[[{"header":{"parameterUnit":"m.s-1","parameterCategory":1,"la1":30.6,"la2":29.2853,"lo1":-89.7004,"lo2":-87.6739,"dy":0.0162,"dx":0.0183,"nx":112,"ny":82,"refTime":"2026-03-26T12:00:00:Z","depth":0,"parameterNumber":2,"parameterNumberName":"U-component_of_WINDS"},"data":[0.0,0.0,0.0,0.0,0.0,0.0,0.0,0.0,0.0,0.0,0.0,0.0,0.0,0.0,0.0,0.0,0.0,0.0,0.0,0.0,0.0,0.0,0.0,0.0,0.0,0.0,0.0,0.0,0.0,0.0,0.0,0.0,0.0,0.0,0.0,0.0,0.0,0.0,0.0,0.0,0.0,0.0,0.0,0.0,0.0,0.0,0.0,0.0,0.0,0.0,0.0,0.0,0.0,0.0,0.0,0.0,0.0,0.0,0.0,0.0,0.0,0.0,0.0,0.0,0.0,0.0,0.0,0.0,0.0,0.0,0.0,0.0,0.0,0.0,0.0,0.0,0.0,0.0,0.0,0.0,0.0,0.0,0.0,0.0,0.0,0.0,0.0,0.0,0.0,0.0,-2.8856,-3.4066,-4.0164,-4.328,-4.1794,-3.9057,-3.578,-3.1908,0.0,0.0,0.0,0.0,0.0,0.0,0.0,0.0,0.0,0.0,0.0,0.0,0.0,0.0,0.0,0.0,0.0,0.0,0.0,0.0,0.0,0.0,0.0,0.0,0.0,0.0,0.0,0.0,0.0,0.0,0.0,0.0,0.0,0.0,0.0,0.0,0.0,0.0,0.0,0.0,0.0,0.0,0.0,0.0,0.0,0.0,0.0,0.0,0.0,0.0,0.0,0.0,0.0,0.0,0.0,0.0,0.0,0.0,0.0,0.0,0.0,0.0,0.0,0.0,0.0,0.0,0.0,0.0,0.0,0.0,0.0,0.0,0.0,0.0,0.0,0.0,0.0,0.0,0.0,0.0,0.0,0.0,0.0,0.0,0.0,0.0,0.0,0.0,0.0,0.0,0.0,0.0,0.0,0.0,0.0,0.0,0.0,0.0,0.0,0.0,0.0,0.0,0.0,0.0,-3.0799,-3.914,-4.3603,-4.5433,-4.3951,-4.156,-3.8296,-3.4008,0.0,0.0,0.0,0.0,0.0,0.0,0.0,0.0,0.0,0.0,0.0,0.0,0.0,0.0,0.0,0.0,0.0,0.0,0.0,0.0,0.0,0.0,0.0,0.0,0.0,0.0,0.0,0.0,0.0,0.0,0.0,0.0,0.0,0.0,0.0,0.0,0.0,0.0,0.0,0.0,0.0,0.0,0.0,0.0,0.0,0.0,0.0,0.0,0.0,0.0,0.0,0.0,0.0,0.0,0.0,0.0,0.0,0.0,0.0,0.0,0.0,0.0,0.0,0.0,0.0,0.0,0.0,0.0,0.0,0.0,0.0,0.0,0.0,0.0,0.0,0.0,0.0,0.0,0.0,0.0,0.0,0.0,0.0,0.0,0.0,0.0,0.0,0.0,0.0,0.0,0.0,0.0,0.0,0.0,0.0,0.0,0.0,0.0,0.0,0.0,0.0,0.0,0.0,-3.0852,-3.5712,-4.0568,-4.3985,-4.4971,-4.2601,-4.0273,-3.7075,-3.2679,-2.6975,0.0,0.0,0.0,0.0,0.0,0.0,0.0,0.0,0.0,0.0,0.0,0.0,0.0,0.0,0.0,0.0,0.0,0.0,0.0,0.0,0.0,0.0,0.0,0.0,0.0,0.0,0.0,0.0,0.0,0.0,0.0,0.0,0.0,0.0,0.0,0.0,0.0,0.0,0.0,0.0,0.0,0.0,0.0,0.0,0.0,0.0,0.0,0.0,0.0,0.0,0.0,0.0,0.0,0.0,0.0,0.0,0.0,0.0,0.0,0.0,0.0,0.0,0.0,0.0,0.0,0.0,0.0,0.0,0.0,0.0,0.0,0.0,0.0,0.0,0.0,0.0,0.0,0.0,0.0,0.0,0.0,0.0,0.0,0.0,0.0,0.0,0.0,0.0,0.0,0.0,0.0,0.0,0.0,0.0,0.0,0.0,0.0,0.0,0.0,0.0,0.0,0.0,-3.6445,-4.0391,-4.1432,-4.4107,-4.4524,-4.1291,-3.8964,-3.5623,-3.0844,-2.5698,0.0,0.0,0.0,0.0,0.0,0.0,0.0,0.0,0.0,0.0,0.0,0.0,0.0,0.0,0.0,0.0,0.0,0.0,0.0,0.0,0.0,0.0,0.0,0.0,0.0,0.0,0.0,0.0,0.0,0.0,0.0,0.0,0.0,0.0,0.0,0.0,0.0,0.0,0.0,0.0,0.0,0.0,0.0,0.0,0.0,0.0,0.0,0.0,0.0,0.0,0.0,0.0,0.0,0.0,0.0,0.0,0.0,0.0,0.0,0.0,0.0,0.0,0.0,0.0,0.0,0.0,0.0,0.0,0.0,0.0,0.0,0.0,0.0,0.0,0.0,0.0,0.0,0.0,0.0,0.0,0.0,0.0,0.0,0.0,0.0,0.0,0.0,0.0,0.0,0.0,0.0,0.0,0.0,0.0,0.0,0.0,0.0,0.0,0.0,0.0,0.0,0.0,-3.8477,-4.2947,-4.302,-4.5474,-4.5593,-4.1927,-3.9495,-3.5702,-2.9868,-2.4729,0.0,0.0,0.0,0.0,0.0,0.0,0.0,0.0,0.0,0.0,0.0,0.0,0.0,0.0,0.0,0.0,0.0,0.0,0.0,0.0,0.0,0.0,0.0,0.0,0.0,0.0,0.0,0.0,0.0,0.0,0.0,0.0,0.0,0.0,0.0,0.0,0.0,0.0,0.0,0.0,0.0,0.0,0.0,0.0,0.0,0.0,0.0,0.0,0.0,0.0,0.0,0.0,0.0,0.0,0.0,0.0,0.0,0.0,0.0,0.0,0.0,0.0,0.0,0.0,0.0,0.0,0.0,0.0,0.0,0.0,0.0,0.0,0.0,0.0,0.0,0.0,0.0,0.0,0.0,0.0,0.0,0.0,0.0,0.0,0.0,0.0,0.0,0.0,0.0,0.0,0.0,0.0,0.0,0.0,0.0,0.0,0.0,0.0,0.0,0.0,0.0,0.0,-3.8908,-4.2964,-4.2334,-4.479,-4.48,-4.0558,-3.7716,-3.4021,-2.9085,0.0,0.0,0.0,0.0,0.0,0.0,0.0,0.0,0.0,0.0,0.0,0.0,0.0,0.0,0.0,0.0,0.0,0.0,0.0,0.0,0.0,0.0,0.0,0.0,0.0,0.0,0.0,0.0,0.0,0.0,0.0,0.0,0.0,0.0,0.0,0.0,0.0,0.0,0.0,0.0,0.0,0.0,0.0,0.0,0.0,0.0,0.0,0.0,0.0,0.0,0.0,0.0,0.0,0.0,0.0,0.0,0.0,0.0,0.0,0.0,0.0,0.0,0.0,0.0,0.0,0.0,0.0,0.0,0.0,0.0,0.0,0.0,0.0,0.0,0.0,0.0,0.0,0.0,0.0,0.0,0.0,0.0,0.0,0.0,0.0,0.0,0.0,0.0,0.0,0.0,0.0,0.0,0.0,0.0,0.0,0.0,0.0,0.0,0.0,0.0,0.0,0.0,-3.2551,-3.9151,-4.2964,-4.1833,-4.4271,-4.4175,-3.968,-3.6804,-3.3292,-2.8674,0.0,0.0,0.0,0.0,0.0,0.0,0.0,0.0,0.0,0.0,0.0,0.0,0.0,0.0,0.0,0.0,0.0,0.0,0.0,0.0,0.0,0.0,0.0,0.0,0.0,0.0,0.0,0.0,0.0,0.0,0.0,0.0,0.0,0.0,0.0,0.0,0.0,0.0,0.0,0.0,0.0,0.0,0.0,0.0,0.0,0.0,0.0,0.0,0.0,0.0,0.0,0.0,0.0,0.0,0.0,0.0,0.0,0.0,0.0,0.0,0.0,0.0,0.0,0.0,0.0,0.0,0.0,0.0,0.0,0.0,0.0,0.0,0.0,0.0,0.0,0.0,0.0,0.0,0.0,0.0,0.0,0.0,0.0,0.0,0.0,0.0,0.0,0.0,0.0,0.0,0.0,0.0,0.0,0.0,0.0,0.0,0.0,0.0,0.0,0.0,0.0,0.0,-3.2545,-3.9387,-4.3269,-4.1838,-4.4149,-4.4026,-3.968,-3.7268,-3.3822,0.0,0.0,0.0,0.0,0.0,0.0,0.0,0.0,0.0,0.0,0.0,0.0,0.0,0.0,0.0,0.0,0.0,0.0,0.0,0.0,0.0,0.0,0.0,0.0,0.0,0.0,0.0,0.0,0.0,0.0,0.0,0.0,0.0,0.0,0.0,0.0,0.0,0.0,0.0,0.0,0.0,0.0,0.0,0.0,0.0,0.0,0.0,0.0,0.0,0.0,0.0,0.0,0.0,0.0,0.0,0.0,0.0,0.0,0.0,0.0,0.0,0.0,0.0,0.0,0.0,0.0,0.0,0.0,0.0,0.0,0.0,0.0,0.0,0.0,0.0,0.0,0.0,0.0,0.0,0.0,0.0,0.0,0.0,0.0,0.0,0.0,0.0,0.0,0.0,0.0,0.0,0.0,0.0,0.0,0.0,0.0,0.0,0.0,0.0,0.0,0.0,0.0,0.0,-3.3184,-4.0101,-4.4005,-4.2427,-4.4387,-4.4224,-4.0409,-3.803,-3.4816,-3.0179,0.0,0.0,0.0,0.0,0.0,0.0,0.0,0.0,0.0,0.0,0.0,0.0,0.0,0.0,0.0,0.0,0.0,0.0,0.0,0.0,0.0,0.0,0.0,0.0,0.0,0.0,0.0,0.0,0.0,0.0,0.0,0.0,0.0,0.0,0.0,0.0,0.0,0.0,0.0,0.0,0.0,0.0,0.0,0.0,0.0,0.0,0.0,0.0,0.0,0.0,0.0,0.0,0.0,0.0,0.0,0.0,0.0,0.0,0.0,0.0,0.0,0.0,0.0,0.0,0.0,0.0,0.0,0.0,0.0,0.0,0.0,0.0,0.0,0.0,0.0,0.0,0.0,0.0,0.0,0.0,0.0,0.0,0.0,0.0,0.0,0.0,0.0,0.0,0.0,0.0,0.0,0.0,0.0,0.0,0.0,0.0,0.0,0.0,0.0,0.0,0.0,0.0,-3.335,-4.0292,-4.4215,-4.2667,-4.4489,-4.4423,-4.1077,-3.9056,-3.6075,-3.1669,0.0,0.0,0.0,0.0,0.0,0.0,0.0,0.0,0.0,0.0,0.0,0.0,0.0,0.0,0.0,0.0,0.0,0.0,0.0,0.0,0.0,0.0,0.0,0.0,0.0,0.0,0.0,0.0,0.0,0.0,0.0,0.0,0.0,0.0,0.0,0.0,0.0,0.0,0.0,0.0,0.0,0.0,0.0,0.0,0.0,0.0,0.0,0.0,0.0,0.0,0.0,0.0,0.0,0.0,0.0,0.0,0.0,0.0,0.0,0.0,0.0,0.0,0.0,0.0,0.0,0.0,0.0,0.0,0.0,0.0,0.0,0.0,0.0,0.0,0.0,0.0,0.0,0.0,0.0,0.0,0.0,0.0,0.0,0.0,0.0,0.0,0.0,0.0,0.0,0.0,0.0,0.0,0.0,0.0,0.0,0.0,0.0,0.0,0.0,0.0,0.0,0.0,-3.3326,-4.015,-4.4092,-4.2738,-4.4456,-4.4522,-4.1674,-4.015,-3.7525,-3.3083,0.0,0.0,0.0,0.0,0.0,0.0,0.0,0.0,0.0,0.0,0.0,0.0,0.0,0.0,0.0,0.0,0.0,0.0,0.0,0.0,0.0,0.0,0.0,0.0,0.0,0.0,0.0,0.0,0.0,0.0,0.0,0.0,0.0,0.0,0.0,0.0,0.0,0.0,0.0,0.0,0.0,0.0,0.0,0.0,0.0,0.0,0.0,0.0,0.0,0.0,0.0,0.0,0.0,0.0,0.0,0.0,0.0,0.0,0.0,0.0,-2.7727,-2.5722,0.0,0.0,0.0,0.0,0.0,0.0,0.0,0.0,0.0,0.0,0.0,0.0,0.0,0.0,0.0,0.0,0.0,0.0,0.0,0.0,0.0,0.0,0.0,0.0,0.0,0.0,0.0,0.0,0.0,0.0,0.0,0.0,0.0,0.0,0.0,0.0,0.0,0.0,0.0,0.0,-3.4087,-4.005,-4.3698,-4.34,-4.4324,-4.3959,-4.1607,-4.0647,-3.8288,-3.3822,-2.9171,0.0,0.0,0.0,0.0,0.0,0.0,0.0,0.0,0.0,0.0,0.0,0.0,0.0,0.0,0.0,0.0,0.0,0.0,0.0,0.0,0.0,0.0,0.0,0.0,0.0,0.0,0.0,0.0,0.0,0.0,0.0,0.0,0.0,0.0,0.0,0.0,0.0,0.0,0.0,0.0,0.0,0.0,0.0,0.0,0.0,0.0,0.0,0.0,0.0,0.0,0.0,0.0,0.0,0.0,0.0,0.0,0.0,0.0,0.0,-3.2232,-2.9847,0.0,0.0,0.0,0.0,0.0,0.0,0.0,0.0,0.0,0.0,0.0,0.0,0.0,0.0,0.0,0.0,0.0,0.0,0.0,0.0,0.0,0.0,0.0,0.0,0.0,0.0,0.0,0.0,0.0,0.0,0.0,0.0,0.0,0.0,0.0,0.0,0.0,0.0,0.0,0.0,-3.4816,-4.0189,-4.3598,-4.3598,-4.4257,-4.3959,-4.2104,-4.1276,-3.9156,-3.5114,-3.1073,0.0,0.0,0.0,0.0,0.0,0.0,0.0,0.0,0.0,0.0,0.0,0.0,0.0,0.0,0.0,0.0,0.0,0.0,0.0,0.0,0.0,0.0,0.0,0.0,0.0,0.0,0.0,0.0,0.0,0.0,0.0,0.0,0.0,0.0,0.0,0.0,0.0,0.0,0.0,0.0,0.0,0.0,0.0,0.0,0.0,0.0,0.0,0.0,0.0,0.0,0.0,0.0,0.0,-4.0713,-4.1801,-4.1967,-4.2502,-4.2833,-4.2671,-3.8361,-3.5876,-3.4883,-3.4044,0.0,0.0,0.0,0.0,0.0,0.0,0.0,0.0,0.0,0.0,0.0,0.0,0.0,0.0,0.0,0.0,0.0,0.0,0.0,0.0,0.0,0.0,-3.5711,-3.4376,-3.5048,-3.4684,-2.9748,0.0,0.0,0.0,0.0,0.0,0.0,0.0,0.0,0.0,0.0,0.0,-3.5346,-4.0222,-4.33,-4.3565,-4.4158,-4.3926,-4.2406,-4.1844,-4.005,-3.6439,-3.3094,-2.9588,0.0,0.0,0.0,0.0,0.0,0.0,0.0,0.0,0.0,0.0,0.0,0.0,0.0,0.0,0.0,0.0,0.0,0.0,0.0,0.0,0.0,0.0,0.0,0.0,0.0,0.0,0.0,0.0,0.0,0.0,0.0,0.0,-2.5788,-2.5887,0.0,0.0,0.0,0.0,0.0,0.0,0.0,0.0,0.0,0.0,0.0,0.0,0.0,-3.8752,-4.0249,-4.2435,-4.3893,-4.4655,-4.6245,-4.7338,-4.7968,-4.8034,-4.8431,-4.8995,-4.7669,0.0,-3.9448,-3.803,0.0,0.0,0.0,0.0,0.0,0.0,0.0,0.0,0.0,0.0,0.0,0.0,0.0,0.0,0.0,0.0,0.0,0.0,0.0,0.0,0.0,0.0,-4.0348,-3.958,-3.9984,-4.0183,-3.8791,-3.6075,-3.3094,-3.0323,-2.9562,-2.8271,0.0,0.0,0.0,0.0,0.0,0.0,-3.5413,-3.9355,-4.2175,-4.3466,-4.3698,-4.3135,-4.1645,-4.2042,-4.0784,-3.7201,-3.5313,-3.2652,-2.8966,-2.5826,0.0,0.0,0.0,0.0,0.0,0.0,0.0,0.0,0.0,0.0,0.0,0.0,0.0,0.0,0.0,0.0,0.0,0.0,0.0,0.0,0.0,0.0,0.0,0.0,0.0,0.0,0.0,0.0,0.0,-2.6417,-2.8304,-2.9132,-2.9496,-2.945,0.0,0.0,0.0,0.0,0.0,0.0,0.0,0.0,0.0,-3.9719,-4.2237,-4.4456,-4.6311,-4.8498,-4.9756,-5.0088,-5.1976,-5.2638,-5.2175,-5.3003,-5.3102,-5.2569,-5.2307,-5.0452,-4.7438,-4.3926,-4.0912,-3.8228,0.0,0.0,0.0,0.0,-3.3856,-3.5048,-3.6506,-3.6307,-3.5313,-3.4584,0.0,0.0,0.0,0.0,0.0,0.0,0.0,-3.4286,-3.7235,-4.0315,-4.2539,-4.227,-4.2734,-4.3065,-4.2369,-4.0945,-3.8666,-3.4925,-3.3557,-3.1934,-2.8701,-2.564,0.0,0.0,0.0,-3.1747,-3.6605,-3.9659,-4.1943,-4.3433,-4.3234,-4.2704,-4.2075,-4.191,-4.0878,-3.8493,-3.7334,-3.509,-3.1394,-2.9171,-2.6312,0.0,0.0,0.0,0.0,0.0,0.0,0.0,0.0,0.0,0.0,0.0,0.0,0.0,0.0,0.0,0.0,0.0,0.0,0.0,0.0,0.0,0.0,0.0,0.0,0.0,0.0,0.0,0.0,-2.9363,-3.157,-3.2839,-3.3501,-3.3535,0.0,0.0,0.0,0.0,0.0,0.0,-3.8427,-3.9752,-4.1939,-4.5187,-4.7239,-4.916,-5.0982,-5.2804,-5.3798,-5.3997,-5.5819,-5.6117,-5.5123,-5.6382,-5.6282,-5.5057,-5.5057,-5.4659,-5.3632,-4.9293,-4.5847,-4.3098,-4.0382,-3.9222,-3.899,-3.8427,-3.9056,-4.0348,-4.1806,-4.1868,-4.1138,-4.0382,-3.8295,-3.5678,-3.3832,0.0,0.0,0.0,0.0,-3.7963,-4.0547,-4.2833,-4.4426,-4.4426,-4.4854,-4.5119,-4.4558,-4.4293,-4.2969,-3.899,-3.7168,-3.5379,-3.2431,-2.9218,0.0,-3.0179,-3.1151,-3.3292,-3.7897,-4.0348,-4.2175,-4.3466,-4.2936,-4.2406,-4.2208,-4.174,-4.0812,-3.9381,-3.8758,-3.7003,-3.368,-3.2133,-2.9383,-2.5209,0.0,0.0,0.0,0.0,0.0,0.0,0.0,0.0,0.0,0.0,0.0,0.0,0.0,0.0,0.0,0.0,0.0,0.0,0.0,0.0,0.0,0.0,0.0,0.0,0.0,0.0,0.0,0.0,0.0,-3.6738,-3.8659,0.0,0.0,0.0,0.0,-4.0713,-4.1579,-4.3032,-4.5185,-4.6046,-4.7504,-4.9823,-5.1313,-5.2473,-5.3235,-5.4026,-5.4787,-5.5483,-5.6316,-5.6647,-5.6614,-5.7376,-5.7309,-5.6581,-5.6581,-5.6183,-5.5284,-5.3003,-5.0717,-4.8498,-4.6245,-4.492,-4.4291,-4.4257,-4.4754,-4.5616,-4.7106,-4.7139,-4.6378,-4.5649,-4.2535,-3.895,-3.8129,-3.6837,0.0,0.0,-4.0017,-4.148,-4.3035,-4.5086,-4.6742,-4.6742,-4.6742,-4.6775,-4.6742,-4.6179,-4.4787,-4.1773,-4.0613,-3.9216,-3.6241,0.0,-3.2597,-3.3425,-3.4187,-3.5777,-3.8851,-4.111,-4.2738,-4.3499,-4.2936,-4.2208,-4.148,-4.1442,-4.0812,-3.9381,-3.9282,-3.8221,-3.5943,-3.4419,-3.1901,-2.8243,-2.6005,0.0,0.0,0.0,0.0,0.0,0.0,0.0,0.0,0.0,0.0,0.0,0.0,0.0,0.0,0.0,0.0,0.0,0.0,0.0,0.0,0.0,0.0,0.0,0.0,0.0,0.0,0.0,0.0,-4.1773,-4.3926,0.0,-4.4257,-4.3959,-4.4324,-4.5549,-4.7206,-4.8696,-4.9955,-5.1612,-5.3102,-5.4328,-5.5819,-5.668,-5.6945,-5.721,-5.7475,-5.774,-5.8966,-5.9264,-5.8833,-5.9595,-5.9794,-5.9496,-5.8535,-5.7972,-5.7641,-5.6382,-5.403,-5.0982,-4.8796,-4.7769,-4.7471,-4.7007,-4.7305,-4.8067,-4.9094,-4.926,-4.8829,-4.7603,-4.5185,-4.2663,-4.1905,-4.0983,-4.0448,-4.1707,-4.2767,-4.386,-4.5351,-4.6311,-4.7007,-4.7504,-4.7603,-4.7471,-4.7007,-4.6311,-4.5351,-4.3827,-4.2965,-4.1707,-3.9222,-3.74,-3.6506,-3.7227,-3.7168,-3.7897,-4.0348,-4.174,-4.2771,-4.3499,-4.2506,-4.1707,-4.1442,-4.058,-3.9818,-3.9315,-3.9315,-3.852,-3.6771,-3.6208,-3.422,-3.0543,-2.8323,-2.5356,0.0,0.0,0.0,0.0,0.0,0.0,0.0,0.0,0.0,0.0,0.0,0.0,0.0,0.0,0.0,0.0,0.0,0.0,0.0,0.0,0.0,0.0,0.0,0.0,0.0,-3.952,-4.3628,-4.5582,-4.7968,-4.9293,-4.8796,-4.8531,-4.8763,-4.9756,-5.1181,-5.244,-5.3434,-5.4593,-5.5686,-5.6647,-5.7641,-5.827,-5.8535,-5.8767,-5.8899,-5.8933,-6.039,-6.0721,-6.0026,-6.0755,-6.1119,-6.102,-5.9529,-5.8899,-5.8833,-5.8104,-5.6216,-5.3665,-5.1976,-5.1148,-5.0883,-5.0386,-5.0518,-5.1015,-5.1479,-5.1678,-5.1413,-4.9955,-4.8465,-4.7106,-4.6146,-4.5485,-4.5187,-4.5684,-4.6179,-4.6775,-4.7769,-4.8001,-4.8067,-4.8332,-4.8365,-4.81,-4.7106,-4.6311,-4.5582,-4.4821,-4.4125,-4.3069,-4.1409,-4.0083,-3.9454,-3.9918,-3.9587,-3.9885,-4.1574,-4.2406,-4.3069,-4.3532,-4.2506,-4.1645,-4.1442,-4.0315,-3.9481,-3.8957,-3.8924,-3.8261,-3.6804,-3.6738,-3.509,-3.1681,-2.8734,-2.5504,-2.1994,0.0,0.0,0.0,0.0,0.0,0.0,0.0,0.0,0.0,0.0,0.0,0.0,0.0,0.0,0.0,0.0,0.0,0.0,0.0,0.0,0.0,0.0,0.0,-3.7168,-4.2303,-4.651,-4.8001,-5.075,-5.2542,-5.2542,-5.1879,-5.2009,-5.34,-5.35,-5.4096,-5.5516,-5.492,-5.5189,-5.6614,-5.6713,-5.7077,-5.7806,-5.8568,-5.8933,-5.8933,-6.039,-6.0688,-6.0026,-6.0755,-6.1086,-6.102,-5.9529,-5.8899,-5.8833,-5.8104,-5.7342,-5.6614,-5.5918,-5.5152,-5.4523,-5.449,-5.449,-5.449,-5.449,-5.449,-5.4295,-5.287,-5.2442,-5.2108,-5.0684,-5.022,-5.0187,-5.0187,-5.0154,-5.0154,-5.0154,-5.0154,-4.9988,-4.926,-4.9094,-4.8696,-4.7173,-4.6311,-4.5582,-4.4787,-4.4125,-4.34,-4.2638,-4.1943,-4.1508,-4.1446,-4.1475,0.0,-4.244,-4.3168,-4.3598,-4.3598,-4.2936,-4.2208,-4.1508,-4.0779,-3.9752,-3.8328,-3.8195,-3.75,-3.6042,-3.5976,-3.4584,-3.1615,-2.7307,-2.3654,-2.0726,0.0,0.0,0.0,0.0,0.0,0.0,0.0,0.0,0.0,0.0,0.0,0.0,0.0,0.0,0.0,0.0,0.0,0.0,0.0,0.0,0.0,-3.6638,-3.962,-4.0845,-4.6079,-5.032,-5.1744,-5.403,-5.5521,-5.5521,-5.4858,-5.4792,-5.5719,-5.5322,-5.5152,-5.5582,-5.5383,-5.545,-5.5918,-5.6945,-5.7839,-5.8601,-5.933,-5.9694,-5.9694,-6.0125,-6.0191,-6.0026,-6.0225,-6.0589,-6.102,-5.9529,-5.8899,-5.8833,-5.8104,-5.7342,-5.6614,-5.5918,-5.545,-5.5218,-5.4688,-5.449,-5.449,-5.449,-5.449,-5.4361,-5.3434,-5.2804,-5.2243,-5.128,-5.0253,-4.9425,-4.9425,-4.9028,-4.8597,-4.8597,-4.8995,-4.9226,-4.8498,-4.873,-4.8564,-4.6543,-4.5947,-4.5417,-4.4158,-4.4158,-4.4158,-4.34,-4.3562,-4.3595,-4.3069,-4.3002,-4.3069,-4.3267,-4.3466,-4.3598,-4.3598,-4.2936,-4.2406,-4.2208,-4.1077,-4.0011,-3.9083,-3.7996,-3.6738,-3.5247,-3.5214,-3.3822,-3.0853,-2.8602,-2.602,0.0,0.0,0.0,0.0,0.0,0.0,0.0,0.0,0.0,0.0,0.0,0.0,0.0,0.0,0.0,0.0,0.0,0.0,0.0,0.0,0.0,0.0,-4.0779,-4.4092,-4.5518,-4.9193,-5.2274,-5.3699,-5.5554,-5.668,-5.668,-5.6316,-5.6249,-5.6647,-5.6316,-5.6084,-5.6084,-5.545,-5.5454,-5.6051,-5.6879,-5.7839,-5.8899,-5.9628,-5.9993,-5.9993,-5.9993,-5.9993,-5.9993,-5.9993,-6.0423,-6.102,-5.9529,-5.8899,-5.8833,-5.8104,-5.7342,-5.6647,0.0,0.0,0.0,0.0,-5.5421,-5.5421,-5.5421,-5.5421,-5.5322,-5.4593,-5.4063,-5.35,-5.2177,-5.0949,-4.9889,-4.926,-4.8365,-4.7669,-4.8299,-4.8796,-4.9094,-4.8961,-4.9491,-4.9425,-4.7206,-4.6477,-4.5914,-4.4754,-4.4854,0.0,-4.4589,-4.4622,-4.4556,-4.4125,-4.3797,-4.3598,-4.3598,-4.3598,-4.3598,-4.3598,-4.3201,-4.2837,-4.2506,-4.174,0.0,0.0,0.0,-3.6903,-3.5413,-3.4783,0.0,0.0,0.0,0.0,0.0,0.0,0.0,0.0,-2.4166,-2.5126,0.0,0.0,0.0,0.0,0.0,0.0,0.0,0.0,0.0,0.0,0.0,0.0,0.0,0.0,0.0,0.0,-4.5019,-4.8696,-5.0353,-5.181,-5.3202,-5.4494,-5.5852,-5.668,-5.668,-5.6614,-5.6614,-5.668,-5.6614,-5.6581,-5.6581,-5.5256,0.0,0.0,0.0,-5.7243,-5.8634,-5.9396,-5.9761,-5.9761,-5.9661,-5.9628,-5.9628,-5.9628,-5.9993,-6.0523,-5.9231,-5.8634,-5.8601,-5.7939,-5.7276,-5.668,-5.668,-5.668,-5.668,-5.668,-5.668,-5.668,-5.668,0.0,0.0,-5.5852,-5.5582,-5.5185,-5.3135,-5.1945,-5.1017,-4.9624,-4.8166,-4.7338,-4.863,-4.9094,-4.9392,-4.9955,-5.0684,-5.0719,-4.8465,-4.7504,-4.6775,-4.5947,-4.5847,-4.5914,-4.5914,-4.5384,-4.492,-4.4821,-4.4291,-4.3797,-4.3731,-4.3698,-4.3698,-4.3598,-4.3598,0.0,-4.2671,-4.2539,-4.164,-3.968,-3.8626,-3.7466,-3.6075,-3.475,-3.4054,-3.4054,-3.274,-3.1416,-3.0026,-3.1416,-3.1747,-3.1085,-2.9648,-2.937,0.0,0.0,0.0,0.0,0.0,0.0,0.0,0.0,0.0,0.0,0.0,0.0,0.0,0.0,0.0,-4.4191,-4.7073,-4.9823,-5.244,-5.4063,-5.5052,-5.535,-5.615,-5.668,-5.668,-5.6183,-5.6084,-5.6647,-5.615,-5.5781,-5.5781,-5.4953,-5.4622,-5.4924,-5.5521,-5.6249,-5.7111,-5.7839,-5.8237,-5.8204,-5.7608,0.0,-5.7342,-5.7342,-5.7409,-5.7541,-5.7243,-5.7111,-5.7111,-5.6945,-5.6812,-5.668,-5.668,-5.668,-5.668,-5.668,-5.668,-5.668,-5.668,-5.668,-5.6581,-5.5852,-5.5582,-5.5284,-5.3699,-5.2307,0.0,-5.022,-4.8928,-4.7868,-4.8133,-4.9094,-4.9889,-4.9425,-5.032,-5.0719,-4.8465,-4.7901,-4.7404,-4.6046,-4.6278,-4.6676,-4.6676,-4.6576,-4.6278,-4.5682,-4.545,-4.5152,-4.4556,-4.4489,-4.4257,-4.3664,-4.3598,-4.3532,-4.34,-4.2837,-4.2071,-4.1077,-3.8692,-3.6936,-3.6042,-3.5744,-3.5578,-3.5578,-3.528,-3.4717,-3.3822,-3.4717,-3.5081,-3.4916,-3.3425,-3.3127,0.0,0.0,0.0,0.0,0.0,0.0,0.0,0.0,0.0,0.0,0.0,-3.7201,-3.9421,0.0,-4.4489,-4.704,-4.9293,-5.1512,-5.3665,-5.5222,-5.615,-5.615,-5.6481,-5.668,-5.668,-5.6382,-5.6316,-5.6647,-5.6349,-5.615,-5.615,-5.5454,-5.5222,-5.5587,-5.5951,-5.6514,-5.7243,-5.7608,-5.7806,-5.7773,-5.7044,-5.668,-5.668,-5.668,-5.668,-5.668,-5.668,-5.668,-5.668,-5.668,-5.668,-5.668,-5.668,-5.668,-5.668,-5.668,-5.668,-5.668,-5.668,-5.668,-5.6614,-5.6282,-5.5918,-5.5317,-5.3864,-5.2407,-5.1083,-4.9955,-4.8597,-4.7636,-4.8365,-4.9094,-4.9756,-5.0121,-5.1083,-5.1448,-4.9955,-4.9624,-4.9193,-4.7736,-4.7736,-4.7901,-4.7504,-4.7438,-4.7206,-4.6444,-4.6046,-4.5649,-4.5284,-4.492,-4.4556,-4.4191,-4.3797,-4.3598,-4.3598,-4.2903,-4.2175,-4.1475,-3.9719,-3.8593,-3.8195,-3.7831,-3.7857,-3.8195,-3.7831,-3.7466,-3.7094,-3.7831,-3.8195,-3.8195,-3.7798,-3.7036,0.0,0.0,0.0,0.0,0.0,0.0,0.0,-3.4021,-3.5479,-3.697,-3.9487,-4.1872,-4.333,-4.5516,-4.7636,-4.926,-5.1148,-5.287,-5.4328,-5.5786,-5.6647,-5.6481,-5.6614,-5.668,-5.668,-5.668,-5.668,-5.668,-5.668,-5.668,-5.668,-5.615,-5.6084,-5.668,-5.668,-5.6978,-5.7574,-5.7574,-5.7574,-5.7574,-5.6978,-5.668,-5.668,-5.668,-5.668,-5.668,-5.668,-5.668,-5.668,-5.668,-5.668,-5.668,-5.668,-5.668,-5.668,-5.668,-5.668,-5.668,-5.668,-5.668,-5.668,-5.668,-5.6216,-5.535,-5.403,-5.2638,-5.1249,-4.9889,-4.8564,-4.7802,-4.9028,-4.9425,-4.9823,-5.1017,-5.1879,-5.221,-5.1481,-5.1315,-5.0884,-4.9392,-4.9094,-4.8862,-4.8133,-4.8001,-4.7802,-4.7206,-4.6609,-4.6179,-4.6013,-4.5483,-4.5052,-4.492,-4.439,-4.3962,-4.386,-4.3135,-4.2406,-4.1645,-4.111,-4.0713,-4.058,-4.0044,-4.0011,-4.058,-4.0011,-3.9713,-3.9713,-4.031,-4.058,-4.0613,-4.1143,-4.0183,-2.7702,-2.9341,-3.2597,-3.475,-3.5943,-3.6771,0.0,-3.8593,-4.005,-4.1508,-4.3595,-4.5649,-4.7106,-4.7669,-4.8564,-5.0719,-5.1812,-5.287,-5.4328,-5.5786,-5.6448,-5.5819,-5.6316,-5.668,-5.668,-5.668,-5.668,-5.668,-5.668,-5.668,-5.668,-5.6614,-5.6614,-5.668,-5.668,-5.6713,-5.6812,-5.6812,-5.6812,-5.6812,-5.6713,-5.668,-5.668,-5.668,-5.668,-5.668,-5.668,-5.668,-5.668,-5.668,-5.668,-5.668,-5.668,-5.668,-5.668,-5.668,-5.668,-5.668,-5.668,-5.668,-5.668,-5.668,-5.6216,-5.545,-5.4622,-5.34,-5.2111,-5.1282,-5.0452,-4.9889,-5.0055,-5.0551,-5.1116,-5.1282,-5.1879,-5.221,-5.1481,-5.1315,-5.0884,-4.9392,-4.9094,-4.8862,-4.8133,-4.8001,-4.7968,-4.7901,-4.7802,-4.7504,-4.6874,-4.6709,-4.6378,-4.5748,-4.5582,-4.5284,-4.4622,-4.3926,-4.3168,-4.2406,-4.2336,-4.1943,-4.1342,-4.121,-4.121,-4.1309,-4.121,-4.1177,-4.1177,-4.1276,-4.1309,-4.1309,-4.1375,-4.1243,-3.1495,-3.3379,-3.634,-3.8096,-4.068,-4.2767,-4.2634,-4.4092,-4.5616,-4.6245,-4.7769,-4.9061,-4.926,-4.9624,-5.0353,-5.1746,-5.2506,-5.35,-5.492,-5.6051,-5.6249,-5.5123,-5.4858,-5.4957,-5.5388,-5.5819,-5.6084,-5.6084,-5.6448,-5.668,-5.668,-5.668,-5.668,-5.668,-5.668,-5.668,-5.668,-5.668,-5.668,-5.668,-5.668,-5.668,-5.668,-5.668,-5.668,-5.668,-5.668,-5.668,-5.668,-5.668,-5.668,-5.668,-5.668,-5.668,-5.668,-5.668,-5.668,-5.668,-5.668,-5.668,-5.668,-5.668,-5.5918,-5.4887,-5.4589,-5.3798,-5.2837,-5.2144,-5.2009,-5.1976,-5.1578,-5.1711,-5.1945,-5.1945,-5.221,-5.2343,-5.2011,-5.1945,-5.1647,-5.0585,-5.0386,-5.0154,-4.9425,-4.9293,-4.9127,-4.8696,-4.8266,-4.7901,-4.757,-4.7173,-4.6609,-4.5881,-4.5781,-4.5483,-4.4754,-4.4423,-4.3926,-4.3168,-4.3135,-4.3002,-4.2671,-4.2671,-4.2671,-4.2671,-4.2671,-4.2671,-4.2671,-4.2671,-4.2671,-4.2671,-4.2671,-4.2671,-3.4618,-3.687,-3.9487,-4.1172,-4.4423,-4.7106,-4.6775,-4.81,-4.9425,-4.9425,-5.0253,-5.0817,-5.032,-5.0452,-5.1083,-5.221,-5.297,-5.393,-5.5383,-5.6249,-5.615,-5.4692,-5.3864,-5.3467,-5.3599,-5.446,-5.5152,-5.5549,-5.6282,-5.668,-5.668,-5.668,-5.668,-5.668,-5.668,-5.668,-5.668,-5.668,-5.668,-5.668,-5.668,-5.668,-5.668,-5.668,-5.668,-5.668,-5.668,-5.668,-5.668,-5.668,-5.668,-5.668,-5.668,-5.668,-5.668,-5.668,-5.668,-5.668,-5.668,-5.668,-5.668,-5.668,-5.5852,-5.4787,-5.4787,-5.4258,-5.3599,-5.3102,-5.3169,-5.3301,-5.2804,-5.2539,-5.2409,-5.2409,-5.2409,-5.2409,-5.2409,-5.2409,-5.221,-5.1448,-5.1315,-5.1083,-5.0353,-5.022,-4.9955,-4.9226,-4.8663,-4.8233,-4.8034,-4.7537,-4.7007,-4.6444,-4.6212,-4.5881,-4.5351,-4.5119,-4.4787,-4.4227,-4.4026,-4.3896,-4.3896,-4.3698,-4.3598,-4.3598,-4.3598,-4.3598,-4.3598,-4.3598,-4.3598,-4.3598,-4.3598,-4.3598,-3.6241,-3.9123,-4.1839,-4.4026,-4.6278,-4.8166,-4.8862,-4.9624,-5.0187,-5.0187,-5.022,-5.0253,-5.022,-4.9657,-4.9889,-5.2042,-5.297,-5.393,-5.5383,-5.6249,-5.615,-5.4692,-5.3864,-5.287,-5.1547,-5.2638,-5.4063,-5.5483,-5.6282,-5.668,-5.668,-5.668,-5.668,-5.668,-5.668,-5.668,-5.668,-5.668,-5.668,-5.668,-5.668,-5.668,-5.668,-5.668,-5.668,-5.668,-5.668,-5.668,-5.668,-5.668,-5.668,-5.668,-5.668,-5.668,-5.668,-5.668,-5.668,-5.668,-5.668,-5.668,-5.668,-5.668,-5.6183,-5.5549,-5.5549,-5.5019,-5.4456,-5.4423,-5.3964,-5.34,-5.3367,-5.287,-5.2409,-5.2409,-5.2409,-5.2409,-5.2409,-5.2409,-5.221,-5.1448,-5.1315,-5.1083,-5.0353,-5.022,-4.9955,-4.9226,-4.9094,-4.8829,-4.81,-4.7968,-4.7968,-4.7934,-4.7305,-4.6841,-4.6841,-4.6179,-4.5748,-4.5715,-4.5052,-4.4655,-4.4655,-4.3992,-4.3598,-4.3598,-4.3598,-4.3598,-4.3598,-4.3598,-4.3598,-4.3598,-4.3598,-4.3598,-3.8387,-4.1375,-4.4125,-4.6344,-4.8531,-5.022,-5.0485,-5.1115,-5.138,-5.0419,-4.9823,-4.9326,-4.8829,-4.9359,-5.022,-5.1481,-5.3467,-5.5019,-5.5516,-5.6249,-5.615,-5.4692,-5.3467,-5.234,-5.1415,-5.2142,-5.2937,-5.3434,-5.5024,-5.5984,-5.5984,-5.6415,-5.668,-5.668,-5.668,-5.668,-5.668,-5.668,-5.6945,-5.7442,-5.7906,-5.8171,-5.8171,-5.8171,-5.7873,-5.7409,-5.7409,-5.7144,-5.668,-5.668,-5.668,-5.668,-5.668,-5.668,-5.668,-5.668,-5.668,-5.668,-5.668,-5.668,-5.668,-5.668,-5.6216,-5.5582,-5.5582,-5.5416,-5.5118,-5.4622,-5.4291,-5.403,-5.3533,-5.2904,-5.2409,-5.2409,-5.2409,-5.2409,-5.2409,-5.2409,-5.2343,-5.2111,-5.2045,-5.1978,-5.1678,-5.1645,-5.1413,-5.0651,-4.9293,-4.8299,-4.8034,-4.8001,-4.8001,-4.8001,-4.7769,-4.7438,-4.6941,-4.6676,-4.6311,-4.5814,-4.5549,-4.5185,-4.4718,-4.4456,-4.4324,-4.4324,-4.4324,-4.4556,-4.5052,-4.5052,-4.5052,-4.5052,-4.5052,-4.5052,-4.0613,-4.386,-4.6676,-4.8365,-5.0253,-5.1713,-5.1713,-5.1879,-5.1512,-4.979,-4.8199,-4.7007,-4.6543,-4.7173,-4.8431,-5.022,-5.2937,-5.4986,-5.5516,-5.6249,-5.6249,-5.5057,-5.3864,-5.2771,-5.1812,-5.2144,-5.2409,-5.2409,-5.3897,-5.5019,-5.5549,-5.6316,-5.668,-5.668,-5.668,-5.668,-5.668,-5.668,-5.7044,-5.7806,-5.8535,-5.8899,-5.8899,-5.8899,-5.8502,-5.7806,-5.7806,-5.7376,-5.668,-5.668,-5.668,-5.668,-5.668,-5.668,-5.668,-5.668,-5.668,-5.668,-5.668,-5.668,-5.668,-5.668,-5.6382,-5.5984,-5.5984,-5.5984,-5.5918,-5.5421,-5.5123,-5.4754,-5.4291,-5.35,-5.2738,-5.2738,-5.2572,-5.2409,-5.2409,-5.2409,-5.2409,-5.2409,-5.2409,-5.2409,-5.2409,-5.221,-5.1879,-5.1382,-4.9624,-4.8398,-4.8398,-4.8166,-4.8001,-4.8001,-4.8001,-4.7802,-4.7338,-4.7305,-4.7073,-4.6609,-4.6344,-4.598,-4.5483,-4.5218,-4.5086,-4.5086,-4.5086,-4.5317,-4.5781,-4.5781,-4.5781,-4.5781,-4.5781,-4.5781,-4.3035,-4.651,-4.9458,-5.0154,-5.138,-5.2442,-5.234,-5.1779,-5.0619,-4.8299,-4.5516,-4.3433,-4.3367,-4.3433,-4.4658,-4.8365,-5.1446,-5.393,-5.5317,-5.6183,-5.6415,-5.5714,-5.4953,-5.3997,-5.2638,-5.2407,-5.2407,-5.2475,-5.3069,-5.4059,-5.5516,-5.6316,-5.668,-5.668,-5.668,-5.668,-5.668,-5.6746,-5.7177,-5.7906,-5.8668,-5.8999,-5.8999,-5.8966,-5.8535,-5.7839,-5.7806,-5.7376,-5.668,-5.668,-5.668,-5.668,-5.668,-5.668,-5.668,-5.668,-5.668,-5.668,-5.668,-5.668,-5.668,-5.668,-5.668,-5.668,-5.668,-5.668,-5.668,-5.668,-5.6183,-5.5582,-5.5582,-5.4527,-5.34,-5.34,-5.287,-5.2409,-5.2409,-5.2409,-5.2409,-5.2409,-5.2409,-5.2409,-5.2409,-5.1846,-5.1382,-5.1382,-5.0121,-4.9193,-4.9127,-4.8465,-4.8001,-4.8001,-4.8001,-4.8001,-4.8001,-4.8001,-4.8001,-4.8001,-4.7338,-4.6941,-4.6908,-4.6212,-4.5847,-4.5847,-4.5847,-4.5881,-4.5914,-4.5914,-4.5914,-4.5914,-4.5914,-4.5914,-4.6079,-4.916,-5.1578,-5.1777,-5.2506,-5.287,-5.1846,-5.1015,-4.9558,-4.6212,-4.323,-4.1044,-4.0481,-4.1243,-4.2999,-4.6113,-5.0452,-5.3695,-5.4622,-5.5454,-5.6017,-5.6382,-5.5289,-5.4357,-5.3997,-5.3003,-5.2605,-5.3102,-5.3831,-5.4589,-5.5549,-5.6316,-5.668,-5.668,-5.668,-5.668,-5.668,-5.7773,-5.8701,-5.9463,-6.0191,-6.0556,-6.0523,-5.996,-5.933,-5.8601,-5.8038,-5.7376,-5.668,-5.668,-5.668,-5.668,-5.668,-5.668,-5.668,-5.668,-5.668,-5.668,-5.668,-5.668,-5.668,-5.668,-5.668,-5.668,-5.668,-5.668,-5.668,-5.668,-5.6183,-5.5582,-5.5582,-5.4527,-5.34,-5.34,-5.287,-5.2409,-5.2409,-5.2409,-5.2409,-5.2409,-5.2409,-5.2409,-5.2409,-5.2243,-5.2144,-5.2144,-5.1348,-5.032,-4.926,-4.8465,-4.8001,-4.8001,-4.8001,-4.8001,-4.8001,-4.8001,-4.8001,-4.8001,-4.7835,-4.7471,-4.6908,-4.6709,-4.6609,-4.6609,-4.6609,-4.6874,-4.7438,-4.7438,-4.7438,-4.7438,-4.7438,-4.7438,-4.863,-5.1115,-5.2837,-5.2837,-5.2904,-5.2572,-5.1148,-4.9491,-4.7305,-4.3959,-4.0415,-3.7956,-3.789,-3.8758,-4.068,-4.4257,-4.8862,-5.2373,-5.3434,-5.4195,-5.4924,-5.5653,-5.5024,-5.449,-5.449,-5.4096,-5.3964,-5.4361,-5.4125,-5.4456,-5.5516,-5.6316,-5.668,-5.668,-5.668,-5.6846,-5.7177,-5.8634,-5.9595,-6.0026,-6.0755,-6.0953,-6.0622,-6.0191,-5.9429,-5.8403,-5.7972,-5.7376,-5.668,-5.668,-5.668,-5.668,-5.668,-5.668,-5.668,-5.668,-5.668,-5.668,-5.668,-5.668,-5.668,-5.668,-5.668,-5.668,-5.668,-5.668,-5.668,-5.668,-5.6415,-5.6084,-5.6084,-5.5256,-5.4394,-5.4394,-5.3599,-5.2837,-5.2837,-5.2605,-5.2409,-5.2409,-5.2409,-5.2409,-5.2409,-5.2409,-5.2409,-5.2409,-5.1779,-5.1017,-5.0154,-4.9425,-4.8862,-4.8531,-4.8498,-4.8365,-4.8034,-4.8001,-4.8001,-4.8001,-4.8001,-4.7802,-4.7404,-4.7371,-4.7371,-4.7371,-4.7371,-4.7603,-4.8001,-4.8001,-4.8001,-4.8001,-4.8001,-4.8001,-5.0752,-5.2539,-5.3629,-5.3467,-5.297,-5.2042,-5.0187,-4.7404,-4.4324,-4.1177,-3.7069,-3.4286,-3.5114,-3.6042,-3.8096,-4.2469,-4.7073,-5.0551,-5.191,-5.2672,-5.3434,-5.4262,-5.4295,-5.4361,-5.4626,-5.5284,-5.5747,-5.5747,-5.4593,-5.4427,-5.5648,-5.6349,-5.668,-5.668,-5.668,-5.7077,-5.7939,-5.9198,-5.996,-6.0158,-6.0788,-6.0721,-5.9993,-5.9893,-5.9098,-5.7773,-5.7674,-5.7276,-5.668,-5.668,-5.668,-5.668,-5.668,-5.668,-5.668,-5.668,-5.668,-5.668,-5.668,-5.668,-5.668,-5.668,-5.668,-5.668,-5.668,-5.668,-5.668,-5.668,-5.668,-5.668,-5.668,-5.615,-5.5582,-5.5582,-5.4456,-5.34,-5.34,-5.287,-5.2409,-5.2409,-5.2409,-5.2409,-5.2409,-5.2409,-5.2409,-5.2409,-5.1879,-5.1448,-5.1448,-5.0717,-4.9955,-4.9326,-4.916,-4.8862,-4.8199,-4.8067,-4.8001,-4.8001,-4.8001,-4.8001,-4.8001,-4.8001,-4.8001,-4.8001,-4.8001,-4.8001,-4.8001,-4.8001,-4.8001,-4.8001,-4.8001,-4.8001,-5.2078,-5.3699,-5.492,-5.3732,-5.3334,-5.2208,-4.8365,-4.4721,-4.1011,-3.687,-3.2586,-2.9934,-3.1239,-3.3061,-3.581,-4.0216,-4.5649,-4.9591,-5.0452,-5.1214,-5.2142,-5.3467,-5.3102,-5.3467,-5.5218,-5.6084,-5.6514,-5.6514,-5.6249,-5.6216,-5.6481,-5.6614,-5.668,-5.668,-5.668,-5.7342,-5.8701,-5.8966,-5.9694,-6.092,-6.1053,-6.0721,-5.9993,-5.9363,-5.8601,-5.7773,-5.7144,-5.6812,-5.668,-5.668,-5.668,-5.668,-5.668,-5.668,-5.668,-5.668,-5.668,-5.668,-5.668,-5.668,-5.668,-5.668,-5.668,-5.668,-5.668,-5.668,-5.668,-5.668,-5.668,-5.668,-5.668,-5.615,-5.5582,-5.5582,-5.4456,-5.34,-5.34,-5.287,-5.2409,-5.2409,-5.2409,-5.2409,-5.2409,-5.2409,-5.2409,-5.2409,-5.231,-5.221,-5.221,-5.1015,-5.0154,-5.0021,-4.9458,-4.9061,-4.8928,-4.8365,-4.8001,-4.8001,-4.8001,-4.8001,-4.8001,-4.8001,-4.8001,-4.8001,-4.8001,-4.8001,-4.8001,-4.8001,-4.8001,-4.8001,-4.8001,-4.8001,-5.3202,-5.4527,-5.5218,-5.3798,-5.2572,-5.0585,-4.6179,-4.1773,-3.7566,-3.3932,-3.0013,-2.7694,-2.9152,-3.0874,-3.3524,-3.7963,-4.2932,-4.6643,-4.7769,-4.8862,-5.0121,-5.1578,-5.1777,-5.2672,-5.4787,-5.6051,-5.668,-5.668,-5.668,-5.668,-5.668,-5.668,-5.668,-5.668,-5.7044,-5.7608,-5.8303,-5.9098,-5.9827,-6.0523,-6.092,-6.0523,-5.9429,-5.9065,-5.827,-5.721,-5.6846,-5.668,-5.668,-5.668,-5.668,-5.668,-5.668,-5.668,-5.668,-5.668,-5.668,-5.668,-5.668,-5.668,-5.668,-5.668,-5.668,-5.668,-5.668,-5.668,-5.668,-5.668,-5.668,-5.668,-5.668,-5.6448,-5.6183,-5.6183,-5.5355,-5.4361,-5.3599,-5.3169,-5.2804,-5.244,-5.2409,-5.2409,-5.2409,-5.2409,-5.2409,-5.2409,-5.2409,-5.2409,-5.2409,-5.1777,-5.1181,-5.0817,-5.0452,-5.0088,-4.9723,-4.9359,-4.916,-4.916,-4.916,-4.916,-4.916,-4.916,-4.916,-4.916,-4.8763,-4.8564,-4.8564,-4.8199,-4.8199,-4.8564,-4.8564,-4.8796,-5.3997,-5.5118,-5.5421,-5.3632,-5.1545,-4.873,-4.3992,-3.8858,-3.422,-3.1283,-2.7774,-2.5706,-2.7182,-2.8622,-3.1019,-3.5446,-3.9852,-4.3264,-4.4854,-4.651,-4.8133,-4.979,-5.0618,-5.1976,-5.4258,-5.5819,-5.668,-5.668,-5.668,-5.668,-5.668,-5.668,-5.668,-5.6641,-5.7204,-5.7562,-5.7688,-5.8852,-5.9613,-5.9944,-6.0382,-6.0026,-5.8899,-5.8734,-5.7939,-5.668,-5.668,-5.668,-5.668,-5.668,-5.668,-5.668,-5.668,-5.668,-5.668,-5.668,-5.668,-5.668,-5.668,-5.668,-5.668,-5.668,-5.668,-5.668,-5.668,-5.668,-5.668,-5.668,-5.668,-5.668,-5.668,-5.668,-5.6647,-5.6481,-5.6017,-5.5185,-5.3732,-5.34,-5.3202,-5.2506,-5.2409,-5.2475,-5.2572,-5.2473,-5.2475,-5.2572,-5.2473,-5.2409,-5.2409,-5.2409,-5.221,-5.1614,-5.1415,-5.1083,-5.0485,-5.0286,-5.022,-5.022,-5.022,-5.022,-5.022,-5.022,-5.022,-5.022,-4.9657,-4.926,-4.9094,-4.8696,-4.8696,-4.9094,-4.926,-4.9657,-5.4258,-5.5521,-5.5918,-5.3169,-5.0817,-4.7703,-4.1972,-3.6208,-3.1184,-2.8276,-2.4763,-2.2674,-2.4116,-2.559,-2.8025,-3.242,-3.6829,-4.0415,-4.2535,-4.4655,-4.6808,-4.8961,-4.9856,-5.1413,-5.4225,-5.5819,-5.668,-5.668,-5.668,-5.668,-5.668,-5.668,-5.6603,-5.6408,-5.6474,-5.6758,-5.7248,-5.7581,-5.8386,-5.9705,-5.9315,-5.9032,-5.8866,-5.8204,-5.7442,-5.668,-5.668,-5.668,-5.668,-5.668,-5.668,-5.668,-5.668,-5.668,-5.668,-5.668,-5.668,-5.668,-5.668,-5.668,-5.668,-5.668,-5.668,-5.668,-5.668,-5.668,-5.668,-5.668,-5.668,-5.668,-5.668,-5.668,-5.6514,-5.5885,-5.5648,-5.5185,-5.3732,-5.34,-5.3202,-5.2506,-5.2409,-5.2572,-5.3202,-5.2804,-5.2605,-5.3235,-5.2771,-5.2409,-5.2409,-5.2409,-5.2376,-5.231,-5.1713,-5.1282,-5.1216,-5.0585,-5.022,-5.022,-5.022,-5.022,-5.022,-5.022,-5.022,-5.022,-5.0154,-4.979,-4.9094,-4.9723,-4.969,-4.9127,-4.979,-5.0154,-5.2241,-5.3964,-5.4692,-5.181,-4.873,-4.5019,-3.962,-3.3889,-2.8953,-2.6468,-2.3768,-2.2228,-2.3719,-2.4845,-2.6814,-3.0742,-3.4352,-3.74,-3.9593,-4.217,-4.4489,-4.6245,-4.7901,-4.9856,-5.234,-5.4262,-5.5752,-5.6614,-5.668,-5.6641,-5.6525,-5.6525,-5.6486,-5.6402,-5.6284,-5.6336,-5.6512,-5.7091,-5.7665,-5.8378,-5.8591,-5.8547,-5.8237,-5.7939,-5.7376,-5.668,-5.668,-5.668,-5.668,-5.668,-5.668,-5.668,-5.668,-5.668,-5.668,-5.668,-5.668,-5.668,-5.668,-5.668,-5.668,-5.668,-5.668,-5.668,-5.668,-5.668,-5.668,-5.668,-5.668,-5.668,-5.668,-5.668,-5.6614,-5.6316,-5.6249,-5.5984,-5.492,-5.4688,-5.4527,-5.3798,-5.3665,-5.3765,-5.403,-5.3467,-5.3102,-5.3367,-5.2837,-5.2409,-5.2409,-5.2409,-5.2409,-5.2409,-5.2144,-5.1978,-5.1978,-5.1678,-5.1512,-5.1512,-5.1512,-5.1512,-5.1512,-5.1512,-5.1512,-5.1512,-5.1082,-5.0717,-5.0419,-5.0286,-5.0286,-5.0419,-5.0717,-5.1082,-5.0121,-5.2241,-5.3135,-5.0021,-4.6609,-4.27,-3.7599,-3.2122,-2.7514,-2.5508,-2.3354,-2.2177,-2.3454,-2.4116,-2.564,-2.9284,-3.1967,-3.4518,-3.7201,-4.005,-4.2435,-4.386,-4.6013,-4.8199,-5.0419,-5.3003,-5.5123,-5.6581,-5.6641,-5.6525,-5.6441,-5.6284,-5.6244,-5.6244,-5.6086,-5.5966,-5.5886,-5.649,-5.697,-5.7329,-5.7665,-5.7785,-5.7648,-5.7417,-5.702,-5.6525,-5.6564,-5.6603,-5.6603,-5.668,-5.6641,-5.6603,-5.668,-5.6641,-5.6603,-5.668,-5.668,-5.668,-5.6641,-5.6564,-5.6486,-5.6447,-5.6369,-5.633,-5.633,-5.6486,-5.668,-5.668,-5.668,-5.668,-5.668,-5.668,-5.668,-5.668,-5.668,-5.6481,-5.5747,-5.5582,-5.535,-5.4622,-5.449,-5.4593,-5.4787,-5.4192,-5.3798,-5.403,-5.3467,-5.3003,-5.3003,-5.2804,-5.2705,-5.2705,-5.2506,-5.2409,-5.2409,-5.2409,-5.2409,-5.2409,-5.2409,-5.2409,-5.2409,-5.2409,-5.2409,-5.2409,-5.1912,-5.1547,-5.1315,-5.0982,-5.1015,-5.1315,-5.1547,-5.1912,-4.8332,-5.0717,-5.1512,-4.7835,-4.4721,-4.1182,-3.6075,-3.0962,-2.6884,-2.5408,-2.3354,-2.2044,-2.2758,-2.2924,-2.4116,-2.7812,-2.9615,-3.1813,-3.5512,-3.856,-4.0945,-4.2369,-4.4489,-4.6676,-4.8928,-5.2407,-5.5123,-5.6581,-5.6519,-5.6402,-5.6402,-5.6006,-5.5839,-5.5839,-5.5766,-5.5685,-5.5409,-5.5685,-5.6197,-5.6915,-5.6366,-5.6519,-5.7208,-5.6453,-5.6126,-5.6126,-5.6323,-5.6369,-5.6441,-5.6603,-5.6564,-5.6408,-5.6603,-5.6564,-5.6408,-5.6603,-5.668,-5.668,-5.6447,-5.6284,-5.6086,-5.5814,-5.5572,-5.5409,-5.5409,-5.6013,-5.668,-5.668,-5.668,-5.668,-5.668,-5.668,-5.668,-5.668,-5.668,-5.6481,-5.5747,-5.5582,-5.535,-5.4622,-5.449,-5.4721,-5.545,-5.4953,-5.4721,-5.545,-5.492,-5.4456,-5.4456,-5.3864,-5.34,-5.34,-5.2804,-5.2409,-5.2409,-5.2409,-5.2409,-5.2409,-5.2409,-5.2409,-5.2409,-5.2409,-5.2409,-5.2409,-5.2373,-5.2045,-5.1315,-5.2045,-5.2011,-5.1315,-5.2078,-5.2373,-4.333,-4.5814,-4.7239,-4.4556,-4.1707,-3.8493,-3.4319,-2.9847,-2.6137,-2.4646,-2.299,-2.2177,-2.3421,-2.3653,-2.4514,-2.7216,-2.882,-3.0853,-3.4054,-3.7492,-4.0348,-4.2274,-4.5781,-4.8895,-5.094,-5.3195,-5.5048,-5.6387,-5.6441,-5.6284,-5.6006,-5.5846,-5.5799,-5.5799,-5.5645,-5.5523,-5.5409,-5.545,-5.5775,-5.6165,-5.5977,-5.6097,-5.6414,-5.6184,-5.6086,-5.6086,-5.6165,-5.6284,-5.6369,-5.6323,-5.6362,-5.6369,-5.6323,-5.6362,-5.6441,-5.6447,-5.6564,-5.6641,-5.6323,-5.5901,-5.5507,-5.5099,-5.4726,-5.4433,-5.4433,-5.509,-5.5894,-5.6172,-5.6402,-5.6525,-5.6641,-5.668,-5.668,-5.668,-5.668,-5.6614,-5.6415,-5.6349,-5.6282,-5.6051,-5.5984,-5.6084,-5.6316,-5.5752,-5.5317,-5.5549,-5.4953,-5.449,-5.449,-5.3864,-5.34,-5.34,-5.2804,-5.2409,-5.2409,-5.2409,-5.2409,-5.2409,-5.2409,-5.2409,-5.2409,-5.2409,-5.2409,-5.2409,-5.2409,-5.231,-5.2078,-5.231,-5.231,-5.2078,-5.231,-5.2409,-3.8235,-4.068,-4.2038,-4.0117,-3.7864,-3.5313,-3.2166,-2.8522,-2.5441,-2.4249,-2.2824,-2.2177,-2.3354,-2.3586,-2.4315,-2.6519,-2.786,-2.9814,-3.3292,-3.6962,-4.0553,-4.4037,-4.7309,-5.0012,-5.1855,-5.3408,-5.4858,-5.627,-5.6284,-5.6046,-5.5839,-5.5685,-5.5645,-5.5645,-5.5523,-5.5409,-5.5409,-5.5409,-5.545,-5.5645,-5.5645,-5.5726,-5.5846,-5.5846,-5.5846,-5.5846,-5.5927,-5.6046,0.0,-5.6126,-5.6126,-5.6165,-5.6006,-5.5974,-5.6013,-5.6093,-5.6211,-5.629,-5.6086,-5.5612,-5.5026,-5.4685,-5.4136,-5.362,-5.3533,-5.4264,-5.5213,-5.5661,-5.6013,-5.6362,-5.6603,-5.668,-5.668,-5.668,-5.668,-5.668,-5.668,-5.668,-5.668,-5.668,-5.668,-5.668,-5.668,-5.6316,-5.6017,-5.6017,-5.562,-5.5322,-5.5322,-5.446,-5.3831,-5.3831,-5.297,-5.2409,-5.2409,-5.2409,-5.2409,-5.2409,-5.2409,-5.2409,-5.2409,-5.2409,-5.2409,-5.2409,-5.2409,-5.2409,-5.2409,-5.2409,-5.2409,-5.2409,-5.2409,-5.2409,0.0,-3.5488,-3.6481,-3.4991,-3.3601,-3.2012,-2.9827,-2.7112,0.0,-2.4149,-2.2824,-2.2029,-2.2824,-2.2941,-2.367,-2.5885,-2.6928,-2.8999,-3.3303,-3.7342,-4.1886,-4.7276,-4.8979,-5.0353,-5.1944,-5.3208,-5.4579,-5.6192,-5.5966,-5.5766,-5.5766,-5.5564,-5.5409,-5.5409,-5.5409,-5.5409,-5.5409,-5.5409,-5.5409,-5.5409,-5.5409,-5.5409,-5.5409,-5.5409,-5.5409,-5.5409,-5.5645,-5.5766,-5.5839,-5.5966,-5.5927,-5.5766,-5.5693,-5.5531,-5.5328,-5.5531,-5.558,-5.562,-5.5685,-5.5246,-5.4675,-5.4338,-5.3652,-5.2891,-5.2667,-5.3521,-5.4643,-5.5108,-5.558,-5.6086,-5.6486,-5.6603,-5.6603,-5.6603,-5.6603,-5.6641,-5.6641,-5.668,-5.668,-5.668,-5.668,-5.668,-5.668,-5.668,-5.668,-5.668,-5.668,-5.668,-5.6641,-5.5416,-5.4518,-5.4518,-5.3331,-5.247,-5.2404,-5.244,-5.244,-5.244,-5.2506,-5.2539,-5.2539,-5.2539,-5.2539,-5.2539,-5.2473,-5.2475,-5.2409,-5.2475,-5.244,-5.244,-5.2506,-5.2539,-2.6357,0.0,-3.3985,-3.2504,-3.189,-3.1068,0.0,-2.6712,-2.4911,-2.4149,-2.2824,-2.218,-2.3357,-2.3556,-2.4211,-2.6316,-2.8078,-3.0587,-3.4489,-4.1078,-4.6619,-4.9637,-5.1059,-5.2113,-5.2921,-5.3721,-5.459,-5.5547,-5.5531,-5.5491,-5.5491,-5.5409,-5.5409,-5.5409,-5.5409,-5.5409,-5.5409,-5.5409,-5.5409,-5.5409,-5.5409,-5.5409,-5.5409,-5.5409,-5.5409,-5.5409,-5.5483,-5.5604,-5.5766,-5.5645,-5.5645,-5.5726,-5.5237,-5.4842,-5.4527,-5.4433,-5.4601,-5.4819,-5.4758,-5.4717,-5.4475,-5.3214,-5.2532,-5.2033,-5.1403,-5.2245,-5.3521,-5.4136,-5.4549,-5.4957,-5.5572,-5.5693,-5.5693,-5.5693,-5.5814,-5.6013,-5.6205,-5.633,-5.6519,-5.668,-5.668,-5.668,-5.668,-5.668,-5.668,-5.668,-5.6564,-5.6408,-5.6284,-5.5456,-5.4897,-5.4897,-5.4071,-5.3316,-5.2762,-5.2987,-5.3169,-5.3169,-5.3699,-5.403,-5.403,-5.403,-5.403,-5.403,-5.3467,-5.2904,-5.2409,-5.2904,-5.3169,-5.3169,-5.3765,-5.403,-2.3987,-2.7016,-2.9598,-2.8857,-2.862,-2.8229,-2.6921,-2.5321,-2.3984,-2.3586,-2.2592,-2.2098,-2.3063,-2.3406,-2.4291,-2.6559,-2.8455,-3.1861,-3.8185,-4.4529,-4.9411,-5.1889,-5.3006,-5.3584,-5.3777,-5.3917,-5.4259,-5.4861,-5.4925,-5.5081,-5.5369,-5.5409,-5.5409,-5.5409,-5.5409,-5.5409,-5.5409,-5.5409,-5.5409,-5.5409,-5.5409,-5.5409,-5.5409,-5.5409,-5.5409,-5.5369,-5.5287,-5.5319,-5.5319,-5.504,-5.4957,-5.4989,-5.437,-5.3954,-5.3675,-5.3608,-5.3664,-5.3879,-5.404,-5.4218,-5.4273,-5.3361,-5.2835,-5.2412,-5.1858,-5.1982,-5.2398,-5.2846,-5.3271,-5.3707,-5.4391,-5.4559,-5.4601,-5.4726,-5.5008,-5.5336,-5.5661,-5.6013,-5.6362,-5.6641,-5.668,-5.668,-5.668,-5.668,-5.668,-5.668,-5.648,-5.6132,-5.5781,-5.5122,-5.4658,-5.4698,-5.4007,-5.3415,-5.303,-5.3482,-5.3644,-5.314,-5.3874,-5.4415,-5.449,-5.4415,-5.4175,-5.37,-5.3338,-5.2778,-5.2122,-5.2778,-5.3107,-5.314,-5.3865,-5.4265,-2.3756,-2.4785,-2.5471,-2.5637,-2.5741,-2.5689,-2.5291,-2.4277,-2.3456,-2.3456,-2.2797,-2.2404,-2.3177,-2.3585,-2.4678,-2.7336,-2.9668,-3.4085,-4.2526,-4.7309,-5.087,-5.3388,-5.4244,-5.4465,-5.4147,-5.3793,-5.375,-5.419,-5.4264,-5.4581,-5.5246,-5.5287,-5.5287,-5.5287,-5.5328,-5.5369,-5.5409,-5.5409,-5.5409,-5.5409,-5.5409,-5.5409,-5.5409,-5.5409,-5.5409,-5.5369,-5.5155,-5.4906,-5.4665,-5.4338,-5.4114,-5.3813,-5.3377,-5.2949,-5.2726,-5.2681,-5.2681,-5.2771,-5.344,-5.3806,-5.399,-5.3905,-5.3592,-5.3107,-5.2763,-5.2103,-5.1512,-5.161,-5.1987,-5.2561,-5.324,-5.3415,-5.3459,-5.3719,-5.4136,-5.4559,-5.5026,-5.5539,-5.6013,-5.6486,-5.6603,-5.6603,-5.6603,-5.6564,-5.6525,-5.6486,-5.6132,-5.5733,-5.5149,-5.4624,-5.4301,-5.4269,-5.3681,-5.3294,-5.3197,-5.3842,-5.384,-5.29,-5.3864,-5.4557,-5.4746,-5.4519,-5.3967,-5.3024,-5.3057,-5.2697,-5.2048,-5.2697,-5.3057,-5.3057,-5.3743,-5.4257,-2.3423,-2.478,-2.5705,-2.5961,-2.6809,-2.7486,-2.7006,-2.6469,-2.6024,-2.6024,-2.4954,-2.4525,-2.6194,-2.6376,-2.7221,-3.0165,-3.5183,-4.0223,-4.4575,-4.8236,-5.1055,-5.2589,-5.3302,-5.3509,-5.3214,-5.2993,-5.3126,-5.375,-5.3782,-5.4114,-5.4832,-5.4864,-5.4864,-5.4874,-5.5072,-5.5237,-5.5409,-5.5409,-5.5409,-5.5409,-5.5409,-5.5409,-5.5409,-5.5409,-5.5409,-5.5369,-5.4998,-5.4549,-5.4094,-5.3664,-5.3227,-5.2785,-5.229,-5.1835,-5.1343,-5.1216,-5.1263,-5.1618,-5.3009,-5.3776,-5.4016,-5.3615,-5.3338,-5.2979,-5.2338,-5.203,-5.1775,-5.1081,-5.1143,-5.1588,-5.2321,-5.2502,-5.2547,-5.2815,-5.3082,-5.3434,-5.4051,-5.4559,-5.5172,-5.6046,-5.6205,-5.6205,-5.6205,-5.6013,-5.5814,-5.5612,-5.5213,-5.4758,-5.4264,-5.419,-5.4126,-5.4052,-5.3989,-5.3714,-5.3079,-5.3714,-5.3777,-5.3003,-5.4777,-5.5837,-5.5877,-5.5382,-5.4817,-5.4096,-5.4064,-5.3707,-5.2987,-5.3707,-5.4064,-5.4096,-5.4745,-5.5343,-2.281,-2.4092,-2.5176,-2.6018,-2.7333,-2.8323,-2.7898,-2.7955,-2.791,-2.7176,-2.6577,-2.6525,-2.7619,-2.817,-2.9911,-3.441,-3.8592,-4.2243,-4.5172,-4.7937,-5.0173,-5.1466,-5.2213,-5.2457,-5.2018,-5.1911,-5.223,-5.3051,-5.3126,-5.3521,-5.4338,-5.4253,-5.4285,-5.438,-5.4623,-5.4915,-5.5409,-5.5409,-5.5409,-5.5409,-5.5409,-5.5409,-5.5409,-5.5409,-5.5409,-5.5369,-5.4989,-5.4412,-5.3793,-5.3346,-5.2726,-5.2002,-5.1635,-5.1169,-5.0698,-5.0603,-5.0745,-5.1148,-5.2782,-5.3356,-5.3507,-5.3982,-5.3872,-5.347,-5.3143,-5.2705,-5.2202,-5.1839,-5.1324,-5.0932,-5.1101,-5.1105,-5.1199,-5.1433,-5.1803,-5.2154,-5.2709,-5.3415,-5.4264,-5.5295,-5.5531,-5.5572,-5.5661,-5.5418,-5.5049,-5.4685,-5.4221,-5.3793,-5.3315,-5.3302,-5.3334,-5.3227,-5.3302,-5.3178,-5.2835,-5.3147,-5.3526,-5.3903,-5.5052,-5.5612,-5.5336,-5.4851,-5.4282,-5.3611,-5.3579,-5.3227,-5.2524,-5.3227,-5.3579,-5.3611,-5.4282,-5.4851,-2.2307,-2.3285,-2.441,-2.5838,-2.7498,-2.8767,-2.8631,-2.9357,-2.9797,-2.8879,-2.8718,-2.8952,-2.9606,-3.0691,-3.3124,-3.8062,-4.0812,-4.3099,-4.535,-4.7425,-4.9118,-5.0377,-5.1044,-5.1315,-5.0999,-5.1058,-5.1479,-5.2381,-5.2457,-5.286,-5.3632,-5.3533,-5.3533,-5.3675,-5.3997,-5.4497,-5.5081,-5.5081,-5.5205,-5.5409,-5.5409,-5.5409,-5.5409,-5.5409,-5.5409,-5.5369,-5.4948,-5.4412,-5.3707,-5.317,-5.2321,-5.1449,-5.1152,-5.071,-5.025,-5.025,-5.0482,-5.0969,-5.2348,-5.2803,-5.293,-5.4052,-5.4126,-5.3815,-5.3815,-5.3308,-5.2746,-5.2652,-5.1926,-5.1075,-5.0652,-5.0525,-5.0574,-5.0894,-5.1083,-5.1332,-5.1769,-5.2473,-5.3284,-5.4443,-5.4685,-5.4758,-5.4943,-5.4601,-5.4136,-5.375,-5.3315,-5.2918,-5.2471,-5.2502,-5.2532,-5.2426,-5.2502,-5.2532,-5.2457,-5.2502,-5.2993,-5.4051,-5.4717,-5.4883,-5.4391,-5.3922,-5.3444,-5.2941,-5.2867,-5.2585,-5.2094,-5.2585,-5.2867,-5.2941,-5.3444,-5.3922,-2.1995,-2.2672,-2.3559,-2.5379,-2.7278,-2.891,-2.9614,-3.0867,-3.2015,-3.2505,-3.2193,-3.2247,-3.3476,-3.5228,-3.731,-3.9856,-4.1964,-4.3902,-4.5654,-4.7108,-4.8417,-4.9567,-4.9928,-5.0199,-5.0537,-5.0728,-5.1122,-5.188,-5.1957,-5.2185,-5.2695,-5.2726,-5.2726,-5.2695,-5.3214,-5.3683,-5.4189,-5.4189,-5.4581,-5.5409,-5.5409,-5.5409,-5.5409,-5.5409,-5.5409,-5.5369,-5.4957,-5.4465,-5.3891,-5.3007,-5.2033,-5.1092,-5.071,-5.0231,-4.9766,-4.9766,-5.0173,-5.0784,-5.1482,-5.2093,-5.2704,-5.3402,-5.3553,-5.35,-5.35,-5.3471,-5.3326,-5.2746,-5.2565,-5.2384,-5.1967,-5.1871,-5.1921,-5.217,-5.1798,-5.152,-5.1972,-5.2057,-5.2381,-5.3533,-5.3577,-5.3577,-5.404,-5.3565,-5.3069,-5.2846,-5.2577,-5.2261,-5.1987,-5.2017,-5.2017,-5.1941,-5.2017,-5.2048,-5.2017,-5.1987,-5.2124,-5.2457,-5.349,-5.3922,-5.3403,-5.2962,-5.274,-5.2709,-5.2634,-5.2603,-5.2647,-5.2603,-5.2634,-5.2709,-5.274,-5.2962,-2.2284,-2.2647,-2.332,-2.5106,-2.7254,-2.9228,-3.0383,-3.2914,-3.5088,-3.5326,-3.5965,-3.6394,-3.6031,-3.7233,-3.9025,-4.1222,-4.2556,-4.3943,-4.5654,-4.6679,-4.7369,-4.7786,-4.8311,-4.867,-4.884,-4.9028,-4.9466,-5.0186,-5.0125,-5.017,-5.0456,-5.0397,-5.0397,-5.0501,-5.1241,-5.1946,-5.253,-5.2953,-5.3315,-5.3664,-5.4295,-5.4581,-5.4581,-5.4581,-5.4581,-5.4581,-5.4242,-5.3856,-5.3346,-5.2681,-5.1819,-5.084,-5.025,-4.9892,-4.9717,-4.9717,-4.9892,-5.0191,-5.1265,-5.1788,-5.2165,-5.3181,-5.35,-5.35,-5.35,-5.35,-5.3471,-5.321,-5.3152,-5.292,-5.1977,-5.1765,-5.1765,-5.1866,-5.1741,-5.147,-5.1258,-5.1402,-5.1742,-5.2261,-5.229,-5.2321,-5.2575,-5.22,-5.1773,-5.1386,-5.1276,-5.1135,-5.1041,-5.1041,-5.1071,-5.1041,-5.1041,-5.1071,-5.1071,-5.1152,-5.1263,-5.1356,-5.2547,-5.3038,-5.2681,-5.2366,-5.2215,-5.2246,-5.2215,-5.2215,-5.2246,-5.2215,-5.2215,-5.2246,-5.2215,-5.2152,-2.212,-2.223,-2.2706,-2.4502,-2.6857,-2.922,-3.119,-3.4456,-3.7258,-3.767,-3.8789,-3.938,-3.8252,-3.8898,-4.0229,-4.2012,-4.2969,-4.4093,-4.5678,-4.6272,-4.6621,-4.6749,-4.7201,-4.755,-4.7753,-4.8016,-4.8433,-4.8939,-4.8862,-4.8862,-4.8984,-4.8862,-4.8862,-4.8984,-4.9898,-5.0638,-5.1161,-5.1819,-5.2185,-5.2185,-5.286,-5.3334,-5.364,-5.364,-5.364,-5.364,-5.3434,-5.317,-5.2815,-5.2366,-5.1588,-5.0632,-4.996,-4.9717,-4.9717,-4.9717,-4.9717,-4.9872,-5.1178,-5.1614,-5.1817,-5.3094,-5.35,-5.35,-5.35,-5.35,-5.35,-5.35,-5.35,-5.3326,-5.2455,-5.2223,-5.2223,-5.2223,-5.2049,-5.1788,-5.1381,-5.1441,-5.166,-5.1828,-5.1892,-5.1922,-5.2162,-5.1683,-5.1167,-5.0814,-5.0618,-5.0501,-5.0501,-5.0501,-5.0501,-5.0501,-5.0501,-5.0501,-5.0501,-5.068,-5.0793,-5.0793,-5.1711,-5.217,-5.1941,-5.1757,-5.1711,-5.1741,-5.1711,-5.1711,-5.1741,-5.1711,-5.1711,-5.1741,-5.1711,-5.1394,-2.1395,-2.1219,-2.1687,-2.3558,-2.6013,-2.8817,-3.2065,-3.5419,-3.8237,-3.9593,-4.0482,-4.0834,-4.0218,-4.0444,-4.1067,-4.2158,-4.3264,-4.4443,-4.5721,-4.5895,-4.6127,-4.6691,-4.6778,-4.7056,-4.7695,-4.8016,-4.8265,-4.8466,-4.8542,-4.8542,-4.8512,-4.8542,-4.8542,-4.8512,-4.9377,-4.9981,-5.0182,-5.0794,-5.1152,-5.1152,-5.1152,-5.1681,-5.2606,-5.2606,-5.2606,-5.2606,-5.2606,-5.2606,-5.2561,-5.2063,-5.1309,-5.0453,-4.9941,-4.9717,-4.9717,-4.9717,-4.9717,-4.9872,-5.1149,-5.1614,-5.1817,-5.3094,-5.35,-5.35,-5.35,-5.35,-5.35,-5.35,-5.35,-5.35,-5.35,-5.35,-5.35,-5.35,-5.3036,-5.2623,-5.2623,-5.2253,-5.2138,-5.2605,-5.2536,-5.2566,-5.3028,-5.2151,-5.1414,-5.1414,-5.0884,-5.0501,-5.0501,-5.0501,-5.0501,-5.0501,-5.0501,-5.0501,-5.0501,-5.068,-5.0793,-5.0793,-5.1058,-5.1182,-5.1229,-5.1229,-5.1229,-5.1229,-5.1229,-5.1229,-5.1229,-5.1229,-5.1229,-5.1229,-5.1229,-5.0823,-2.2797,-2.311,-2.3739,-2.6032,-2.8996,-3.1948,-3.4321,-3.7416,-4.0615,-4.3296,-4.3702,-4.3212,-4.2079,-4.1941,-4.2273,-4.2919,-4.3682,-4.4588,-4.5737,-4.5895,-4.5953,-4.6156,-4.6156,-4.6243,-4.6417,-4.6538,-4.6628,-4.6645,-4.6674,-4.6674,-4.6645,-4.6674,-4.6674,-4.6645,-4.7332,-4.7775,-4.7792,-4.8483,-4.8805,-4.8805,-4.9227,-5.0189,-5.1618,-5.1618,-5.1618,-5.1618,-5.1618,-5.1618,-5.1572,-5.1105,-5.0662,-5.0183,-4.9815,-4.9717,-4.9717,-4.9717,-4.9717,-4.9785,-5.0656,-5.0946,-5.1091,-5.1904,-5.2484,-5.2862,-5.2862,-5.3152,-5.35,-5.35,-5.35,-5.35,-5.35,-5.35,-5.35,-5.35,-5.3355,-5.3123,-5.271,-5.2529,-5.2289,-5.1975,-5.1866,-5.1866,-5.2017,-5.1741,-5.1429,-5.0962,-5.0758,-5.0466,-4.9999,-4.9941,-4.9941,-4.9941,-4.9941,-4.9941,-4.9941,-5.0183,-5.0327,-5.0327,-5.0567,-5.0852,-5.1182,-5.1229,-5.1229,-5.1229,-5.1229,-5.1229,-5.1229,-5.1229,-5.1229,-5.1229,-5.1229,-5.0823,-2.3478,-2.4665,-2.6061,-2.8594,-3.2111,-3.5769,-3.8793,-4.0656,-4.2526,-4.5416,-4.5402,-4.4565,-4.3549,-4.3331,-4.3395,-4.365,-4.4179,-4.488,-4.5795,-4.5895,-4.5895,-4.5895,-4.5895,-4.5895,-4.5895,-4.5895,-4.5895,-4.5895,-4.5895,-4.5895,-4.5895,-4.5895,-4.5895,-4.5895,-4.6505,-4.6778,-4.6778,-4.7462,-4.7782,-4.7782,-4.842,-4.9201,-5.023,-5.0467,-5.0585,-5.0585,-5.0585,-5.0585,-5.0585,-5.0279,-5.0086,-4.9941,-4.9766,-4.9717,-4.9717,-4.9717,-4.9717,-4.9834,-5.0502,-5.0734,-5.0772,-5.141,-5.1875,-5.2223,-5.2484,-5.2833,-5.3181,-5.3442,-5.35,-5.35,-5.35,-5.35,-5.35,-5.35,-5.35,-5.3413,-5.3036,-5.2949,-5.2833,-5.2455,-5.2368,-5.2368,-5.2368,-5.2165,-5.1788,-5.1149,-5.083,-5.0473,-4.9805,-4.9901,-5.0037,-4.9698,-4.9717,-4.9717,-4.9717,-4.9941,-5.0086,-5.0086,-5.0357,-5.0644,-5.0899,-5.0899,-5.0899,-5.0899,-5.0899,-5.0899,-5.0899,-5.0899,-5.0899,-5.0899,-5.1011,-5.073,-2.3601,-2.5894,-2.8478,-3.1031,-3.5067,-3.9586,-4.4177,-4.4264,-4.3972,-4.6109,-4.5889,-4.5171,-4.4771,-4.4555,-4.4426,-4.4426,-4.4749,-4.5198,-4.5808,-4.5895,-4.5895,-4.5895,-4.5895,-4.5895,-4.5895,-4.5895,-4.5895,-4.5895,-4.5895,-4.5895,-4.5895,-4.5895,-4.5895,-4.5895,-4.6446,-4.6691,-4.6691,-4.7317,-4.7608,-4.7608,-4.8246,-4.8518,-4.8518,-4.932,-4.9717,-4.9717,-4.9717,-4.9717,-4.9717,-4.9717,-4.9717,-4.9717,-4.9717,-4.9717,-4.9717,-4.9717,-4.9717,-4.9805,-5.0415,-5.0598,-5.0685,-5.1265,-5.1468,-5.1643,-5.2281,-5.2565,-5.2717,-5.3326,-5.35,-5.35,-5.35,-5.35,-5.35,-5.35,-5.35,-5.35,-5.35,-5.35,-5.35,-5.35,-5.35,-5.35,-5.35,-5.3036,-5.2455,-5.1788,-5.1149,-5.054,-4.993,-5.0386,-5.0502,-4.9892,-4.9746,-4.9717,-4.9717,-4.9941,-5.0038,-5.0038,-5.0279,-5.0453,-5.0453,-5.0453,-5.0501,-5.0501,-5.0501,-5.0501,-5.0501,-5.0501,-5.0501,-5.0501,-5.068,-5.0525,-2.3983,-2.6854,-2.9813,-3.2396,-3.6402,-4.0546,-4.3783,-4.4194,-4.4312,-4.5932,-4.6107,-4.5917,-4.5667,-4.5593,-4.5578,-4.5578,-4.562,-4.5721,-4.5866,-4.5895,-4.5895,-4.5895,-4.5895,-4.5895,-4.5895,-4.5895,-4.5895,-4.5895,-4.5895,-4.5895,-4.5895,-4.5895,-4.5895,-4.5895,-4.6011,-4.6098,-4.6098,-4.6214,-4.6301,-4.6301,-4.694,-4.7184,-4.7242,-4.8943,-4.9717,-4.9717,-4.9717,-4.9717,-4.9717,-4.9717,-4.9717,-4.9717,-4.9717,-4.9717,-4.9717,-4.9717,-4.9717,-4.9698,-4.9892,-4.995,-4.995,-5.0046,-5.0452,-5.1004,-5.1643,-5.2165,-5.2717,-5.3326,-5.35,-5.35,-5.35,-5.35,-5.35,-5.35,-5.35,-5.35,-5.35,-5.35,-5.35,-5.35,-5.35,-5.35,-5.35,-5.3384,-5.3094,-5.2455,-5.1817,-5.1352,-5.1207,-5.0888,-5.0627,-5.0531,-4.9988,-4.9717,-4.9717,-4.9717,-4.9766,-4.9766,-4.9815,-4.9892,-4.9892,-5.0279,-5.0501,-5.0501,-5.0501,-5.0501,-5.0501,-5.0501,-5.0501,-5.0501,-5.068,-5.0668,-2.4152,-2.784,-3.2135,-3.6867,-3.9567,-4.1698,-4.4064,-4.4502,-4.4749,-4.5842,-4.6046,-4.6001,-4.594,-4.5895,-4.5895,-4.5895,-4.5895,-4.5895,-4.5895,-4.5895,-4.5895,-4.5895,-4.5895,-4.5895,-4.5895,-4.5895,-4.5895,-4.5895,-4.5895,-4.5895,-4.5895,-4.5895,-4.5895,-4.5895,-4.5895,-4.5895,-4.5895,-4.5895,-4.5895,-4.5895,-4.6534,-4.7097,-4.7706,-4.8769,-4.9378,-4.9717,-4.9717,-4.9717,-4.9717,-4.9717,-4.9717,-4.9717,-4.9717,-4.9717,-4.9717,-4.9717,-4.9717,-4.9717,-4.9717,-4.9717,-4.9717,-4.9717,-4.995,-5.0365,-5.1323,-5.1846,-5.231,-5.3239,-5.35,-5.35,-5.35,-5.35,-5.35,-5.35,-5.35,-5.35,-5.35,-5.35,-5.35,-5.35,-5.35,-5.35,-5.35,-5.3268,-5.2949,-5.2681,-5.2281,-5.1962,-5.1643,-5.1323,-5.1004,-5.0714,-5.0415,-5.0066,-4.9746,-5.0008,-5.0017,-4.9698,-4.9717,-4.9717,-4.9717,-4.999,-5.0135,-5.0135,-5.0135,-5.0135,-5.0135,-5.0135,-5.0135,-5.0135,-5.0346,-5.0423,-2.4152,-2.8855,-3.4574,-4.1047,-4.2295,-4.2382,-4.4153,-4.456,-4.4763,-4.543,-4.5721,-4.5895,-4.5895,-4.5895,-4.5895,-4.5895,-4.5895,-4.5895,-4.5895,-4.5895,-4.5895,-4.5895,-4.5895,-4.5895,-4.5895,-4.5895,-4.5895,-4.5895,-4.5895,-4.5895,-4.5895,-4.5895,-4.5895,-4.5895,-4.5895,-4.5895,-4.5895,-4.5895,-4.5895,-4.5895,-4.6417,-4.7259,-4.8344,-4.8344,-4.8856,-4.9717,-4.9717,-4.9717,-4.9717,-4.9717,-4.9717,-4.9717,-4.9717,-4.9717,-4.9717,-4.9717,-4.9717,-4.9717,-4.9717,-4.9717,-4.9717,-4.9717,-4.9717,-4.993,-5.1207,-5.1614,-5.1875,-5.3152,-5.35,-5.35,-5.35,-5.35,-5.35,-5.35,-5.35,-5.35,-5.35,-5.35,-5.35,-5.35,-5.35,-5.35,-5.35,-5.3094,-5.2746,-5.2746,-5.2746,-5.2543,-5.202,-5.1846,-5.1585,-5.1062,-5.0888,-5.0598,-5.0046,-5.0423,-5.0423,-4.9872,-4.9727,-4.9717,-4.9717,-4.9717,-4.9717,-4.9717,-4.9717,-4.9717,-4.9717,-4.9717,-4.9717,-4.9717,-4.999,-5.0086,-2.3983,-2.9813,-3.6031,-4.0292,-4.1279,-4.1599,-4.2934,-4.3253,-4.3427,-4.4095,-4.5111,-4.5895,-4.5895,-4.5895,-4.5895,-4.5895,-4.5895,-4.5895,-4.5895,-4.5895,-4.5895,-4.5895,-4.5895,-4.5895,-4.5895,-4.5895,-4.5895,-4.5895,-4.5895,-4.5895,-4.5895,-4.5895,-4.5895,-4.5895,-4.5895,-4.5895,-4.5895,-4.5895,-4.5895,-4.5895,-4.5982,-4.6388,-4.7039,-4.7039,-4.8043,-4.9717,-4.9717,-4.9717,-4.9717,-4.9717,-4.9717,-4.9717,-4.9717,-4.9717,-4.9717,-4.9717,-4.9717,-4.9717,-4.9717,-4.9717,-4.9717,-4.9717,-4.9717,-4.993,-5.1207,-5.1614,-5.1875,-5.3152,-5.35,-5.35,-5.35,-5.35,-5.35,-5.35,-5.35,-5.35,-5.35,-5.35,-5.35,-5.35,-5.35,-5.35,-5.35,-5.3442,-5.3384,-5.3384,-5.3384,-5.3355,-5.3268,-5.2775,-5.2449,-5.2362,-5.1817,-5.1468,-5.1381,-5.0946,-5.0627,-5.0589,-4.9988,-4.9717,-4.9717,-4.9717,-4.9717,-4.9717,-4.9717,-4.9717,-4.9717,-4.9717,-4.9717,-4.9717,-4.999,-4.999,-2.6591,-3.109,-3.5357,-3.9944,-4.0815,-4.096,-4.2615,-4.2992,-4.3195,-4.3863,-4.4443,-4.4937,-4.5256,-4.5314,-4.5459,-4.5837,-4.5895,-4.5895,-4.5895,-4.5895,-4.5895,-4.5895,-4.5895,-4.5895,-4.5895,-4.5895,-4.5895,-4.5895,-4.5895,-4.5895,-4.5895,-4.5895,-4.5895,-4.5895,-4.5895,-4.5895,-4.5895,-4.5895,-4.5895,-4.5895,-4.5895,-4.6214,-4.6778,-4.6778,-4.7666,-4.9146,-4.9146,-4.9349,-4.9717,-4.9717,-4.9717,-4.9717,-4.9717,-4.9717,-4.9717,-4.9717,-4.9717,-4.9717,-4.9717,-4.9717,-4.9717,-4.9717,-4.9717,-4.993,-5.1207,-5.1614,-5.1875,-5.3152,-5.35,-5.35,-5.35,-5.35,-5.35,-5.35,-5.35,-5.35,-5.35,-5.35,-5.35,-5.35,-5.35,-5.35,-5.35,-5.35,-5.35,-5.35,-5.35,-5.35,-5.35,-5.2949,-5.2623,-5.2623,-5.231,-5.202,-5.1643,-5.1381,-5.1062,-5.0685,-5.0095,-4.9717,-4.9717,-4.9717,-4.9717,-4.9717,-4.9717,-4.9717,-4.9717,-4.9717,-4.9717,-4.9717,-4.9815,-4.9815,-2.7605,-3.0887,-3.3819,-3.8463,-3.9392,-3.9625,-4.1599,-4.215,-4.244,-4.3108,-4.3398,-4.3689,-4.4298,-4.4676,-4.5111,-4.5779,-4.5895,-4.5895,-4.5895,-4.5895,-4.5895,-4.5895,-4.5895,-4.5895,-4.5895,-4.5895,-4.5895,-4.5895,-4.5895,-4.5895,-4.5895,-4.5895,-4.5895,-4.5895,-4.5895,-4.5895,-4.5895,-4.5895,-4.5895,-4.5895,-4.5895,-4.6127,-4.6592,-4.6592,-4.7155,-4.8275,-4.8595,-4.9088,-4.9717,-4.9717,-4.9717,-4.9717,-4.9717,-4.9717,-4.9717,-4.9717,-4.9717,-4.9717,-4.9717,-4.9717,-4.9717,-4.9717,-4.9834,-5.0133,-5.1265,-5.173,-5.2078,-5.321,-5.35,-5.35,-5.35,-5.35,-5.35,-5.35,-5.35,-5.35,-5.35,-5.35,-5.35,-5.35,-5.35,-5.35,-5.35,-5.35,-5.35,-5.35,-5.35,-5.35,-5.35,-5.3094,-5.2804,-5.2804,-5.2804,-5.263,-5.2136,-5.1962,-5.1672,-5.1178,-5.054,-5.0104,-4.993,-4.993,-4.9843,-4.9717,-4.9717,-4.9717,-4.9717,-4.9717,-4.9717,-4.9717,-4.9717,-4.9717,-2.4588,-2.7924,-3.1556,-3.4869,-3.6083,-3.7012,-3.8957,-3.9828,-4.0437,-4.1105,-4.1744,-4.2382,-4.2992,-4.4066,-4.5111,-4.5779,-4.5895,-4.5895,-4.5895,-4.5895,-4.5895,-4.5895,-4.5895,-4.5895,-4.5895,-4.5895,-4.5895,-4.5895,-4.5895,-4.5895,-4.5895,-4.5895,-4.5895,-4.5895,-4.5895,-4.5895,-4.5895,-4.5895,-4.5895,-4.5895,-4.5895,-4.5895,-4.5924,-4.5924,-4.6301,-4.6952,-4.817,-4.9088,-4.9717,-4.9717,-4.9717,-4.9717,-4.9717,-4.9717,-4.9717,-4.9717,-4.9717,-4.9717,-4.9717,-4.9717,-4.9717,-4.9717,-5.0104,-5.0743,-5.141,-5.2049,-5.2659,-5.3326,-5.35,-5.35,-5.35,-5.35,-5.35,-5.35,-5.35,-5.35,-5.35,-5.35,-5.35,-5.35,-5.35,-5.35,-5.35,-5.35,-5.35,-5.35,-5.35,-5.35,-5.35,-5.3471,-5.3471,-5.3471,-5.3471,-5.3442,-5.3413,-5.2862,-5.2565,-5.2507,-5.1875,-5.1236,-5.0656,-5.0676,-5.0386,-4.9746,-4.9717,-4.9717,-4.9717,-4.9717,-4.9717,-4.9717,-4.9717,-4.9717,-2.2968,-2.5201,-2.7752,-3.1411,-3.3093,-3.4486,-3.6809,-3.8144,-3.9305,-4.0786,-4.1279,-4.1773,-4.2789,-4.3369,-4.4008,-4.5082,-4.5256,-4.5401,-4.5837,-4.5895,-4.5895,-4.5895,-4.5895,-4.5895,-4.5895,-4.5895,-4.5895,-4.5895,-4.5895,-4.5895,-4.5895,-4.5895,-4.5895,-4.5895,-4.5895,-4.5895,-4.5895,-4.5895,-4.5895,-4.5895,-4.5895,-4.5895,-4.5895,-4.5895,-4.6243,-4.6807,-4.7271,-4.8101,-4.9059,-4.9059,-4.9291,-4.9717,-4.9717,-4.9717,-4.9717,-4.9717,-4.9717,-4.9717,-4.9717,-4.9717,-4.9805,-5.0211,-5.0531,-5.0859,-5.1904,-5.2397,-5.2717,-5.3326,-5.35,-5.35,-5.35,-5.35,-5.35,-5.35,-5.35,-5.35,-5.35,-5.35,-5.35,-5.35,-5.35,-5.35,-5.35,-5.35,-5.35,-5.35,-5.35,-5.35,-5.35,-5.35,-5.35,-5.35,-5.35,-5.35,-5.35,-5.2949,-5.2623,-5.2623,-5.1962,-5.1527,-5.1294,-5.0888,-5.0618,-5.0386,-4.9901,-4.9717,-4.9717,-4.9717,-4.9717,-4.9717,-4.9717,-4.9717,-2.1112,-2.2881,-2.4882,-2.7897,-2.9784,-3.1495,-3.3848,-3.5706,-3.7476,-3.9421,-4.0321,-4.1076,-4.215,-4.2528,-4.3166,-4.4647,-4.4879,-4.5111,-4.5808,-4.5895,-4.5895,-4.5895,-4.5895,-4.5895,-4.5895,-4.5895,-4.5895,-4.5895,-4.5895,-4.5895,-4.5895,-4.5895,-4.5895,-4.5895,-4.5895,-4.5895,-4.5895,-4.5895,-4.5895,-4.5895,-4.5895,-4.5895,-4.5895,-4.5895,-4.6127,-4.6505,-4.6505,-4.7346,-4.8663,-4.8663,-4.9117,-4.9717,-4.9717,-4.9717,-4.9717,-4.9717,-4.9717,-4.9717,-4.9717,-4.9717,-4.9785,-5.0502,-5.083,-5.1178,-5.2304,-5.2717,-5.2978,-5.3384,-5.35,-5.35,-5.35,-5.35,-5.35,-5.35,-5.35,-5.35,-5.35,-5.35,-5.35,-5.35,-5.35,-5.35,-5.35,-5.35,-5.35,-5.35,-5.35,-5.35,-5.35,-5.35,-5.35,-5.35,-5.35,-5.35,-5.35,-5.3123,-5.2891,-5.2891,-5.2484,-5.2165,-5.1933,-5.1527,-5.117,-5.0685,-5.0249,-4.9901,-4.9717,-4.9717,-4.9717,-4.9717,-4.9717,-4.9717,0.0,0.0,0.0,-2.4336,-2.61,-2.8043,-3.0016,-3.2425,-3.4835,-3.6809,-3.8725,-4.0234,-4.096,-4.1628,-4.2673,-4.4531,-4.4821,-4.5053,-4.5721,-4.5837,-4.5837,-4.5837,-4.5837,-4.5837,-4.5866,-4.5866,-4.5866,-4.5895,-4.5895,-4.5895,-4.5895,-4.5895,-4.5895,-4.5895,-4.5895,-4.5895,-4.5895,-4.5895,-4.5895,-4.5895,-4.5895,-4.5895,-4.5895,-4.5895,-4.5895,-4.5924,-4.5924,-4.6998,-4.8663,-4.8663,-4.9088,-4.9717,-4.9717,-4.9717,-4.9717,-4.9717,-4.9717,-4.9717,-4.9717,-4.9717,-4.9785,-5.0531,-5.112,-5.173,-5.2397,-5.3036,-5.35,-5.35,-5.35,-5.35,-5.35,-5.35,-5.35,-5.35,-5.35,-5.35,-5.35,-5.35,-5.35,-5.35,-5.35,-5.35,-5.35,-5.35,-5.35,-5.35,-5.35,-5.35,-5.35,-5.35,-5.35,-5.35,-5.35,-5.35,-5.35,-5.35,-5.35,-5.35,-5.35,-5.3239,-5.2681,-5.2623,-5.2042,-5.0793,-5.0685,-5.0415,-4.9698,-4.9746,-4.9717,-4.9717,-4.9717,-4.9717,-1.8288,0.0,0.0,0.0,0.0,0.0,-2.601,-2.8797,-3.1727,-3.4632,-3.6751,-3.8696,-4.0728,-4.125,-4.1831,-4.3282,-4.3515,-4.3747,-4.4414,-4.4531,-4.4531,-4.4531,-4.4531,-4.4676,-4.5111,-4.5169,-4.5372,-4.5837,-4.5895,-4.5895,-4.5895,-4.5895,-4.5895,-4.5895,-4.5895,-4.5895,-4.5895,-4.5895,-4.5895,-4.5895,-4.5895,-4.5895,-4.5895,-4.5895,-4.6127,-4.6563,-4.6563,-4.7375,-4.8682,-4.8217,-4.8682,-4.9717,-4.9717,-4.9717,-4.9717,-4.9717,-4.9717,-4.9717,-4.9717,-4.9717,-4.9872,-5.0975,-5.1468,-5.1817,-5.292,-5.3384,-5.35,-5.35,-5.35,-5.35,-5.35,-5.35,-5.35,-5.35,-5.35,-5.35,-5.35,-5.35,-5.35,-5.35,-5.35,-5.35,-5.35,-5.35,-5.35,-5.35,-5.35,-5.35,-5.35,-5.35,-5.35,-5.35,-5.35,-5.35,-5.35,-5.35,-5.35,-5.35,-5.35,-5.3442,-5.3268,-5.2804,-5.2449,-5.21,-5.1199,-5.0598,-5.0394,-4.995,-4.9717,-4.9717,-4.9717,-4.9717,-1.8462,-1.8956,-1.9478,-1.9972,0.0,0.0,-2.3426,-2.5923,-2.8855,-3.1785,-3.3964,-3.6083,-3.8638,-3.9334,-3.9828,-4.0844,-4.1221,-4.2005,-4.3747,-4.3979,-4.3979,-4.3979,-4.3979,-4.424,-4.4821,-4.4879,-4.5169,-4.5837,-4.5895,-4.5895,-4.5895,-4.5895,-4.5895,-4.5895,-4.5895,-4.5895,-4.5895,-4.5895,-4.5895,-4.5895,-4.5895,-4.5895,-4.5895,-4.5895,-4.6243,-4.6778,-4.6778,-4.7503,-4.8682,-4.8333,-4.8769,-4.9717,-4.9717,-4.9717,-4.9717,-4.9717,-4.9717,-4.9717,-4.9717,-4.9892,-5.0249,-5.1294,-5.1788,-5.2194,-5.321,-5.35,-5.35,-5.35,-5.35,-5.35,-5.35,-5.35,-5.35,-5.35,-5.35,-5.35,-5.35,-5.35,-5.35,-5.35,-5.35,-5.35,-5.35,-5.35,-5.35,-5.35,-5.35,-5.35,-5.35,-5.35,-5.35,-5.35,-5.35,-5.35,-5.35,-5.35,-5.35,-5.35,-5.35,-5.35,-5.35,-5.3152,-5.2833,-5.2623,-5.1897,-5.1207,-5.0734,-5.0037,-4.9717,-4.9717,-4.9717,-4.9717,-1.942,-2.0262,0.0,-2.0349,-2.0988,0.0,-2.1685,-2.3601,-2.6039,-2.8449,-3.0567,-3.2713,-3.5212,-3.6228,-3.6867,-3.7476,-3.8202,-3.9799,-4.3108,-4.3631,-4.3689,-4.3776,-4.3776,-4.4008,-4.4618,-4.4676,-4.4966,-4.5634,-4.575,-4.5779,-4.5779,-4.5837,-4.5895,-4.5895,-4.5895,-4.5895,-4.5895,-4.5895,-4.5895,-4.5895,-4.5895,-4.5895,-4.5895,-4.5895,-4.6272,-4.6894,-4.6894,-4.7619,-4.8827,-4.8827,-4.9175,-4.9717,-4.9717,-4.9717,-4.9717,-4.9717,-4.9717,-4.9746,-4.9805,-5.0211,-5.0801,-5.1497,-5.2107,-5.2688,-5.3326,-5.35,-5.35,-5.35,-5.35,-5.35,-5.35,-5.35,-5.35,-5.35,-5.35,-5.35,-5.35,-5.35,-5.35,-5.35,-5.35,-5.35,-5.35,-5.35,-5.35,-5.35,-5.35,-5.35,-5.35,-5.35,-5.35,-5.35,-5.35,-5.35,-5.35,-5.35,-5.35,-5.35,-5.35,-5.35,-5.35,-5.35,-5.3239,-5.2688,-5.2543,-5.1875,-5.0734,-5.0037,-4.9717,-4.9717,-4.9717,-4.9717,-2.1423,-2.1627,-2.1656,-2.0988,-2.064,0.0,-1.9798,-2.1249,-2.3165,-2.4704,-2.6968,-2.9262,-3.1322,-3.2222,-3.2861,-3.3529,-3.4603,-3.6635,-4.035,-4.1337,-4.186,-4.2411,-4.2469,-4.2702,-4.3311,-4.3369,-4.3631,-4.4298,-4.4821,-4.5082,-4.5082,-4.5605,-4.5895,-4.5895,-4.5895,-4.5895,-4.5895,-4.5895,-4.5895,-4.5895,-4.5895,-4.5895,-4.5895,-4.5895,-4.6505,-4.7579,-4.7579,-4.8304,-4.9494,-4.9494,-4.9553,-4.9717,-4.9717,-4.9717,-4.9717,-4.9717,-4.9717,-4.9805,-5.0307,-5.0618,-5.0909,-5.202,-5.2507,-5.2688,-5.3326,-5.35,-5.35,-5.35,-5.35,-5.35,-5.35,-5.35,-5.35,-5.35,-5.35,-5.35,-5.35,-5.35,-5.35,-5.35,-5.35,-5.35,-5.35,-5.35,-5.35,-5.35,-5.35,-5.35,-5.35,-5.35,-5.35,-5.35,-5.35,-5.35,-5.35,-5.35,-5.35,-5.35,-5.35,-5.35,-5.35,-5.35,-5.3442,-5.3326,-5.2339,-5.1439,-5.0734,-5.0037,-4.9717,-4.9717,-4.9717,-4.9717,-2.2933,-2.2933,-2.2701,-2.1743,-2.1017,0.0,0.0,-2.0117,-2.1511,-2.3078,-2.4679,-2.6504,-2.8739,-2.9406,-2.9813,-3.051,-3.1671,-3.3499,-3.6373,-3.8725,-4.0641,-4.1947,-4.2092,-4.2324,-4.2934,-4.2992,-4.3282,-4.395,-4.456,-4.4879,-4.4879,-4.5518,-4.5895,-4.5895,-4.5895,-4.5895,-4.5895,-4.5895,-4.5895,-4.5895,-4.5895,-4.5895,-4.5895,-4.5895,-4.6592,-4.7782,-4.7782,-4.8508,-4.9717,-4.9717,-4.9717,-4.9717,-4.9717,-4.9717,-4.9717,-4.9717,-4.9717,-4.9834,-5.0502,-5.0888,-5.1294,-5.2252,-5.2775,-5.3094,-5.3413,-5.35,-5.35,-5.35,-5.35,-5.35,-5.35,-5.35,-5.35,-5.35,-5.35,-5.35,-5.35,-5.35,-5.35,-5.35,-5.35,-5.35,-5.35,-5.35,-5.35,-5.35,-5.35,-5.35,-5.35,-5.35,-5.35,-5.35,-5.35,-5.35,-5.35,-5.35,-5.35,-5.35,-5.35,-5.35,-5.35,-5.35,-5.35,-5.35,-5.2572,-5.1788,-5.1149,-5.0481,-5.0037,-4.9717,-4.9717,-4.9717,-2.4617,-2.453,-2.4123,-2.2701,-2.1772,-2.0814,0.0,0.0,0.0,-2.2069,-2.2991,-2.4152,-2.6216,-2.6709,-2.6912,-2.7343,-2.8593,-3.0133,-3.1963,-3.5183,-3.8347,-4.1018,-4.1337,-4.1599,-4.2208,-4.2266,-4.2528,-4.3195,-4.3805,-4.4211,-4.4327,-4.5198,-4.5692,-4.5692,-4.5808,-4.5895,-4.5895,-4.5895,-4.5895,-4.5895,-4.5895,-4.5895,-4.5895,-4.5895,-4.6592,-4.7782,-4.7782,-4.8508,-4.9717,-4.9717,-4.9717,-4.9717,-4.9717,-4.9717,-4.9717,-4.9717,-4.9717,-4.9785,-5.0569,-5.1178,-5.1759,-5.2514,-5.3094,-5.35,-5.35,-5.35,-5.35,-5.35,-5.35,-5.35,-5.35,-5.35,-5.35,-5.35,-5.35,-5.35,-5.35,-5.35,-5.35,-5.35,-5.35,-5.35,-5.35,-5.35,-5.35,-5.35,-5.35,-5.35,-5.35,-5.35,-5.35,-5.35,-5.35,-5.35,-5.35,-5.35,-5.35,-5.35,-5.35,-5.35,-5.35,-5.35,-5.35,-5.35,-5.2891,-5.231,-5.1788,-5.1033,-5.0386,-4.9717,-4.9717,-4.9717,-2.726,-2.6881,-2.6036,-2.4152,-2.2788,-2.1394,-1.9537,0.0,-2.0175,-2.0378,0.0,-2.2294,-2.2585,0.0,0.0,-2.2846,-2.4273,-2.5955,-2.7345,-2.9377,-3.2655,-3.7999,-3.8638,-3.8899,-3.9567,-3.9625,-3.9886,-4.0495,-4.1163,-4.1773,-4.2382,-4.4066,-4.4995,-4.4995,-4.5576,-4.5895,-4.5895,-4.5895,-4.5895,-4.5895,-4.5895,-4.5895,-4.5895,-4.5895,-4.6592,-4.7782,-4.7782,-4.8508,-4.9717,-4.9717,-4.9717,-4.9717,-4.9717,-4.9717,-4.9717,-4.9717,-4.9717,-4.9843,-5.1091,-5.1556,-5.1817,-5.3007,-5.3442,-5.35,-5.35,-5.35,-5.35,-5.35,-5.35,-5.35,-5.35,-5.35,-5.35,-5.35,-5.35,-5.35,-5.35,-5.35,-5.35,-5.35,-5.35,-5.35,-5.35,-5.35,-5.35,-5.35,-5.35,-5.35,-5.35,-5.35,-5.35,-5.35,-5.35,-5.35,-5.35,-5.35,-5.35,-5.35,-5.35,-5.35,-5.35,-5.35,-5.35,-5.35,-5.2891,-5.2594,-5.2455,-5.1265,-5.0386,-4.9717,-4.9717,-4.9717,-2.8797,-2.7839,-2.6442,-2.4849,-2.3514,-2.2098,-2.0553,-2.0407,-2.0843,-2.1576,0.0,0.0,0.0,0.0,0.0,0.0,-2.349,-2.4617,-2.5546,-2.6997,-2.9697,-3.4341,-3.5561,-3.6548,-3.797,-3.8405,-3.8725,-3.8986,-3.9944,-4.0815,-4.1482,-4.366,-4.4879,-4.4879,-4.5547,-4.5895,-4.5895,-4.5895,-4.5895,-4.5895,-4.5895,-4.5895,-4.5895,-4.5895,-4.6592,-4.7782,-4.7782,-4.8508,-4.9717,-4.9717,-4.9717,-4.9717,-4.9717,-4.9717,-4.9717,-4.9717,-4.9979,-5.0394,-5.1294,-5.1846,-5.231,-5.321,-5.35,-5.35,-5.35,-5.35,-5.35,-5.35,-5.35,-5.35,-5.35,-5.35,-5.35,-5.35,-5.35,-5.35,-5.35,-5.35,-5.35,-5.35,-5.35,-5.35,-5.35,-5.35,-5.35,-5.35,-5.35,-5.35,-5.35,-5.35,-5.35,-5.35,-5.35,-5.35,-5.35,-5.35,-5.35,-5.35,-5.35,-5.35,-5.35,-5.35,-5.35,-5.35,-5.3239,-5.2949,-5.2623,-5.2071,-5.1316,-5.0299,-4.9892,-4.9717,-3.0422,-2.9029,-2.7229,-2.5778,-2.4297,-2.2794,-2.1336,-2.1278,-2.1779,-2.2714,-2.3178,0.0,0.0,0.0,0.0,0.0,0.0,-2.3426,-2.3572,-2.45,-2.6707,-3.0712,-3.2483,-3.4051,-3.5822,-3.6373,-3.678,-3.7128,-3.8028,-3.8986,-4.0002,-4.2644,-4.4182,-4.4356,-4.5343,-4.5895,-4.5895,-4.5895,-4.5895,-4.5895,-4.5895,-4.5895,-4.5895,-4.5895,-4.6592,-4.7782,-4.7782,-4.8508,-4.9717,-4.9717,-4.9717,-4.9717,-4.9717,-4.9717,-4.9698,-4.9872,-5.0299,-5.0801,-5.1614,-5.2281,-5.2891,-5.3355,-5.35,-5.35,-5.35,-5.35,-5.35,-5.35,-5.35,-5.35,-5.35,-5.35,-5.35,-5.35,-5.35,-5.35,-5.35,-5.3646,-5.3733,-5.3559,-5.3675,-5.3733,-5.3559,-5.35,-5.35,-5.35,-5.35,-5.35,-5.35,-5.35,-5.35,-5.35,-5.35,-5.35,-5.35,-5.35,-5.35,-5.35,-5.35,-5.35,-5.35,-5.35,-5.35,-5.35,-5.35,-5.3297,-5.2833,-5.271,-5.2129,-5.1228,-5.0336,-4.9892,-3.26,-3.0973,-2.9058,-2.72,-2.5284,-2.3339,-2.1423,-2.1953,-2.283,-2.2888,-2.3873,-2.4766,-2.4878,0.0,0.0,0.0,0.0,0.0,0.0,-2.0785,-2.2846,-2.7318,-2.9552,-3.1206,-3.2542,-3.2655,-3.3177,-3.4457,-3.4574,-3.5415,-3.7331,-4.0437,-4.244,-4.3021,-4.4908,-4.5895,-4.5895,-4.5895,-4.5895,-4.5895,-4.5895,-4.5895,-4.5895,-4.5895,-4.6592,-4.7782,-4.7782,-4.8508,-4.9717,-4.9717,-4.9717,-4.9717,-4.9717,-4.9717,-4.9805,-5.0394,-5.0705,-5.0909,-5.2158,-5.2949,-5.3471,-5.35,-5.35,-5.35,-5.35,-5.35,-5.35,-5.35,-5.35,-5.35,-5.35,-5.35,-5.35,-5.35,-5.35,-5.35,-5.35,-5.4023,-5.4284,-5.3646,-5.4023,-5.4284,-5.3617,-5.35,-5.35,-5.35,-5.35,-5.35,-5.35,-5.35,-5.35,-5.35,-5.35,-5.35,-5.35,-5.35,-5.35,-5.35,-5.35,-5.35,-5.35,-5.35,-5.35,-5.35,-5.35,-5.35,-5.3471,-5.2862,-5.2594,-5.2536,-5.1287,-5.0307,-3.3935,-3.2655,-3.106,-2.9116,-2.7868,-2.6588,-2.4641,-2.4849,-2.5487,-2.5487,-2.6129,-2.6854,-2.7343,0.0,0.0,0.0,0.0,0.0,0.0,-2.0524,-2.1423,-2.4215,-2.6649,-2.8593,-2.9842,-3.0742,-3.1409,-3.1845,-3.2658,-3.3993,-3.5944,-3.945,-4.1918,-4.2963,-4.4879,-4.5895,-4.5895,-4.5895,-4.5895,-4.5895,-4.5895,-4.5895,-4.5895,-4.5895,-4.6592,-4.7782,-4.7782,-4.8508,-4.9717,-4.9717,-4.9717,-4.9717,-4.9717,-4.9717,-4.9805,-5.0423,-5.0946,-5.1497,-5.2746,-5.3326,-5.35,-5.35,-5.35,-5.35,-5.35,-5.35,-5.35,-5.35,-5.35,-5.35,-5.35,-5.35,-5.35,-5.35,-5.35,-5.35,-5.35,-5.4052,-5.4313,-5.3646,-5.4052,-5.4313,-5.3617,-5.35,-5.35,-5.35,-5.35,-5.35,-5.35,-5.35,-5.35,-5.35,-5.35,-5.35,-5.35,-5.35,-5.35,-5.35,-5.35,-5.35,-5.35,-5.35,-5.35,-5.35,-5.35,-5.35,-5.35,-5.3297,-5.2978,-5.2623,-5.2187,-5.1403,-3.527,-3.4167,-3.2858,-3.1611,-3.0335,-2.8999,-2.749,-2.749,-2.7723,-2.7547,-2.8158,-2.8855,-2.9319,0.0,0.0,0.0,0.0,0.0,0.0,-2.0465,-2.0727,-2.2388,-2.4244,-2.6097,-2.7839,-2.8767,-2.9435,-2.99,-3.0684,-3.2077,-3.4225,-3.7796,-4.0525,-4.2266,-4.4414,-4.5634,-4.5895,-4.5895,-4.5895,-4.5895,-4.5895,-4.6011,-4.6214,-4.6214,-4.6911,-4.813,-4.813,-4.8711,-4.9717,-4.9717,-4.9717,-4.9717,-4.9717,-4.9863,-5.0104,-5.0772,-5.1556,-5.2397,-5.3239,-5.35,-5.35,-5.35,-5.35,-5.35,-5.35,-5.35,-5.35,-5.35,-5.3675,-5.3878,-5.3878,-5.4023,-5.4197,-5.4197,-5.4197,-5.4197,-5.4197,-5.472,-5.4981,-5.4313,-5.472,-5.4981,-5.4313,-5.4197,-5.4023,-5.3588,-5.35,-5.35,-5.35,-5.35,-5.35,-5.35,-5.35,-5.35,-5.35,-5.35,-5.35,-5.35,-5.35,-5.35,-5.35,-5.35,-5.35,-5.35,-5.35,-5.35,-5.35,-5.35,-5.3297,-5.2891,-5.2688,-5.202]},{"header":{"parameterUnit":"m.s-1","parameterCategory":1,"la1":30.6,"la2":29.2853,"lo1":-89.7004,"lo2":-87.6739,"dy":0.0162,"dx":0.0183,"nx":112,"ny":82,"refTime":"2026-03-26T12:00:00:Z","depth":0,"parameterNumber":3,"parameterNumberName":"V-component_of_WINDS"},"data":[0.0,0.0,0.0,0.0,0.0,0.0,0.0,0.0,0.0,0.0,0.0,0.0,0.0,0.0,0.0,0.0,0.0,0.0,0.0,0.0,0.0,0.0,0.0,0.0,0.0,0.0,0.0,0.0,0.0,0.0,0.0,0.0,0.0,0.0,0.0,0.0,0.0,0.0,0.0,0.0,0.0,0.0,0.0,0.0,0.0,0.0,0.0,0.0,0.0,0.0,0.0,0.0,0.0,0.0,0.0,0.0,0.0,0.0,0.0,0.0,0.0,0.0,0.0,0.0,0.0,0.0,0.0,0.0,0.0,0.0,0.0,0.0,0.0,0.0,0.0,0.0,0.0,0.0,0.0,0.0,0.0,0.0,0.0,0.0,0.0,0.0,0.0,0.0,0.0,0.0,1.666,1.9668,2.3247,2.5114,2.4251,2.2663,2.0762,1.8562,0.0,0.0,0.0,0.0,0.0,0.0,0.0,0.0,0.0,0.0,0.0,0.0,0.0,0.0,0.0,0.0,0.0,0.0,0.0,0.0,0.0,0.0,0.0,0.0,0.0,0.0,0.0,0.0,0.0,0.0,0.0,0.0,0.0,0.0,0.0,0.0,0.0,0.0,0.0,0.0,0.0,0.0,0.0,0.0,0.0,0.0,0.0,0.0,0.0,0.0,0.0,0.0,0.0,0.0,0.0,0.0,0.0,0.0,0.0,0.0,0.0,0.0,0.0,0.0,0.0,0.0,0.0,0.0,0.0,0.0,0.0,0.0,0.0,0.0,0.0,0.0,0.0,0.0,0.0,0.0,0.0,0.0,0.0,0.0,0.0,0.0,0.0,0.0,0.0,0.0,0.0,0.0,0.0,0.0,0.0,0.0,0.0,0.0,0.0,0.0,0.0,0.0,0.0,0.0,1.7827,2.2598,2.5492,2.6695,2.5825,2.4726,2.2954,2.0383,0.0,0.0,0.0,0.0,0.0,0.0,0.0,0.0,0.0,0.0,0.0,0.0,0.0,0.0,0.0,0.0,0.0,0.0,0.0,0.0,0.0,0.0,0.0,0.0,0.0,0.0,0.0,0.0,0.0,0.0,0.0,0.0,0.0,0.0,0.0,0.0,0.0,0.0,0.0,0.0,0.0,0.0,0.0,0.0,0.0,0.0,0.0,0.0,0.0,0.0,0.0,0.0,0.0,0.0,0.0,0.0,0.0,0.0,0.0,0.0,0.0,0.0,0.0,0.0,0.0,0.0,0.0,0.0,0.0,0.0,0.0,0.0,0.0,0.0,0.0,0.0,0.0,0.0,0.0,0.0,0.0,0.0,0.0,0.0,0.0,0.0,0.0,0.0,0.0,0.0,0.0,0.0,0.0,0.0,0.0,0.0,0.0,0.0,0.0,0.0,0.0,0.0,0.0,1.7812,2.0722,2.3718,2.5844,2.6556,2.5345,2.4139,2.2332,1.9636,1.6008,0.0,0.0,0.0,0.0,0.0,0.0,0.0,0.0,0.0,0.0,0.0,0.0,0.0,0.0,0.0,0.0,0.0,0.0,0.0,0.0,0.0,0.0,0.0,0.0,0.0,0.0,0.0,0.0,0.0,0.0,0.0,0.0,0.0,0.0,0.0,0.0,0.0,0.0,0.0,0.0,0.0,0.0,0.0,0.0,0.0,0.0,0.0,0.0,0.0,0.0,0.0,0.0,0.0,0.0,0.0,0.0,0.0,0.0,0.0,0.0,0.0,0.0,0.0,0.0,0.0,0.0,0.0,0.0,0.0,0.0,0.0,0.0,0.0,0.0,0.0,0.0,0.0,0.0,0.0,0.0,0.0,0.0,0.0,0.0,0.0,0.0,0.0,0.0,0.0,0.0,0.0,0.0,0.0,0.0,0.0,0.0,0.0,0.0,0.0,0.0,0.0,0.0,2.1094,2.3555,2.4405,2.6176,2.662,2.4871,2.3586,2.1563,1.8671,1.5555,0.0,0.0,0.0,0.0,0.0,0.0,0.0,0.0,0.0,0.0,0.0,0.0,0.0,0.0,0.0,0.0,0.0,0.0,0.0,0.0,0.0,0.0,0.0,0.0,0.0,0.0,0.0,0.0,0.0,0.0,0.0,0.0,0.0,0.0,0.0,0.0,0.0,0.0,0.0,0.0,0.0,0.0,0.0,0.0,0.0,0.0,0.0,0.0,0.0,0.0,0.0,0.0,0.0,0.0,0.0,0.0,0.0,0.0,0.0,0.0,0.0,0.0,0.0,0.0,0.0,0.0,0.0,0.0,0.0,0.0,0.0,0.0,0.0,0.0,0.0,0.0,0.0,0.0,0.0,0.0,0.0,0.0,0.0,0.0,0.0,0.0,0.0,0.0,0.0,0.0,0.0,0.0,0.0,0.0,0.0,0.0,0.0,0.0,0.0,0.0,0.0,0.0,2.2495,2.5298,2.5404,2.7391,2.7871,2.563,2.444,2.2255,1.8618,1.5415,0.0,0.0,0.0,0.0,0.0,0.0,0.0,0.0,0.0,0.0,0.0,0.0,0.0,0.0,0.0,0.0,0.0,0.0,0.0,0.0,0.0,0.0,0.0,0.0,0.0,0.0,0.0,0.0,0.0,0.0,0.0,0.0,0.0,0.0,0.0,0.0,0.0,0.0,0.0,0.0,0.0,0.0,0.0,0.0,0.0,0.0,0.0,0.0,0.0,0.0,0.0,0.0,0.0,0.0,0.0,0.0,0.0,0.0,0.0,0.0,0.0,0.0,0.0,0.0,0.0,0.0,0.0,0.0,0.0,0.0,0.0,0.0,0.0,0.0,0.0,0.0,0.0,0.0,0.0,0.0,0.0,0.0,0.0,0.0,0.0,0.0,0.0,0.0,0.0,0.0,0.0,0.0,0.0,0.0,0.0,0.0,0.0,0.0,0.0,0.0,0.0,0.0,2.2918,2.5498,2.5563,2.7313,2.7521,2.5098,2.3454,2.1259,1.8175,0.0,0.0,0.0,0.0,0.0,0.0,0.0,0.0,0.0,0.0,0.0,0.0,0.0,0.0,0.0,0.0,0.0,0.0,0.0,0.0,0.0,0.0,0.0,0.0,0.0,0.0,0.0,0.0,0.0,0.0,0.0,0.0,0.0,0.0,0.0,0.0,0.0,0.0,0.0,0.0,0.0,0.0,0.0,0.0,0.0,0.0,0.0,0.0,0.0,0.0,0.0,0.0,0.0,0.0,0.0,0.0,0.0,0.0,0.0,0.0,0.0,0.0,0.0,0.0,0.0,0.0,0.0,0.0,0.0,0.0,0.0,0.0,0.0,0.0,0.0,0.0,0.0,0.0,0.0,0.0,0.0,0.0,0.0,0.0,0.0,0.0,0.0,0.0,0.0,0.0,0.0,0.0,0.0,0.0,0.0,0.0,0.0,0.0,0.0,0.0,0.0,0.0,1.9318,2.335,2.5879,2.5635,2.7262,2.727,2.4735,2.2998,2.0803,1.7874,0.0,0.0,0.0,0.0,0.0,0.0,0.0,0.0,0.0,0.0,0.0,0.0,0.0,0.0,0.0,0.0,0.0,0.0,0.0,0.0,0.0,0.0,0.0,0.0,0.0,0.0,0.0,0.0,0.0,0.0,0.0,0.0,0.0,0.0,0.0,0.0,0.0,0.0,0.0,0.0,0.0,0.0,0.0,0.0,0.0,0.0,0.0,0.0,0.0,0.0,0.0,0.0,0.0,0.0,0.0,0.0,0.0,0.0,0.0,0.0,0.0,0.0,0.0,0.0,0.0,0.0,0.0,0.0,0.0,0.0,0.0,0.0,0.0,0.0,0.0,0.0,0.0,0.0,0.0,0.0,0.0,0.0,0.0,0.0,0.0,0.0,0.0,0.0,0.0,0.0,0.0,0.0,0.0,0.0,0.0,0.0,0.0,0.0,0.0,0.0,0.0,0.0,1.9555,2.4018,2.658,2.5701,2.7387,2.751,2.4735,2.3287,2.1135,0.0,0.0,0.0,0.0,0.0,0.0,0.0,0.0,0.0,0.0,0.0,0.0,0.0,0.0,0.0,0.0,0.0,0.0,0.0,0.0,0.0,0.0,0.0,0.0,0.0,0.0,0.0,0.0,0.0,0.0,0.0,0.0,0.0,0.0,0.0,0.0,0.0,0.0,0.0,0.0,0.0,0.0,0.0,0.0,0.0,0.0,0.0,0.0,0.0,0.0,0.0,0.0,0.0,0.0,0.0,0.0,0.0,0.0,0.0,0.0,0.0,0.0,0.0,0.0,0.0,0.0,0.0,0.0,0.0,0.0,0.0,0.0,0.0,0.0,0.0,0.0,0.0,0.0,0.0,0.0,0.0,0.0,0.0,0.0,0.0,0.0,0.0,0.0,0.0,0.0,0.0,0.0,0.0,0.0,0.0,0.0,0.0,0.0,0.0,0.0,0.0,0.0,0.0,2.0236,2.4574,2.7099,2.6383,2.7669,2.7634,2.5189,2.3764,2.1756,1.8858,0.0,0.0,0.0,0.0,0.0,0.0,0.0,0.0,0.0,0.0,0.0,0.0,0.0,0.0,0.0,0.0,0.0,0.0,0.0,0.0,0.0,0.0,0.0,0.0,0.0,0.0,0.0,0.0,0.0,0.0,0.0,0.0,0.0,0.0,0.0,0.0,0.0,0.0,0.0,0.0,0.0,0.0,0.0,0.0,0.0,0.0,0.0,0.0,0.0,0.0,0.0,0.0,0.0,0.0,0.0,0.0,0.0,0.0,0.0,0.0,0.0,0.0,0.0,0.0,0.0,0.0,0.0,0.0,0.0,0.0,0.0,0.0,0.0,0.0,0.0,0.0,0.0,0.0,0.0,0.0,0.0,0.0,0.0,0.0,0.0,0.0,0.0,0.0,0.0,0.0,0.0,0.0,0.0,0.0,0.0,0.0,0.0,0.0,0.0,0.0,0.0,0.0,2.0637,2.4933,2.7428,2.6662,2.78,2.7759,2.5668,2.4405,2.2542,1.9789,0.0,0.0,0.0,0.0,0.0,0.0,0.0,0.0,0.0,0.0,0.0,0.0,0.0,0.0,0.0,0.0,0.0,0.0,0.0,0.0,0.0,0.0,0.0,0.0,0.0,0.0,0.0,0.0,0.0,0.0,0.0,0.0,0.0,0.0,0.0,0.0,0.0,0.0,0.0,0.0,0.0,0.0,0.0,0.0,0.0,0.0,0.0,0.0,0.0,0.0,0.0,0.0,0.0,0.0,0.0,0.0,0.0,0.0,0.0,0.0,0.0,0.0,0.0,0.0,0.0,0.0,0.0,0.0,0.0,0.0,0.0,0.0,0.0,0.0,0.0,0.0,0.0,0.0,0.0,0.0,0.0,0.0,0.0,0.0,0.0,0.0,0.0,0.0,0.0,0.0,0.0,0.0,0.0,0.0,0.0,0.0,0.0,0.0,0.0,0.0,0.0,0.0,2.0824,2.5088,2.7552,2.677,2.7779,2.7821,2.6041,2.5088,2.3391,2.0622,0.0,0.0,0.0,0.0,0.0,0.0,0.0,0.0,0.0,0.0,0.0,0.0,0.0,0.0,0.0,0.0,0.0,0.0,0.0,0.0,0.0,0.0,0.0,0.0,0.0,0.0,0.0,0.0,0.0,0.0,0.0,0.0,0.0,0.0,0.0,0.0,0.0,0.0,0.0,0.0,0.0,0.0,0.0,0.0,0.0,0.0,0.0,0.0,0.0,0.0,0.0,0.0,0.0,0.0,0.0,0.0,0.0,0.0,0.0,0.0,1.7326,1.6112,0.0,0.0,0.0,0.0,0.0,0.0,0.0,0.0,0.0,0.0,0.0,0.0,0.0,0.0,0.0,0.0,0.0,0.0,0.0,0.0,0.0,0.0,0.0,0.0,0.0,0.0,0.0,0.0,0.0,0.0,0.0,0.0,0.0,0.0,0.0,0.0,0.0,0.0,0.0,0.0,2.13,2.5026,2.7372,2.7185,2.7696,2.7469,2.5999,2.5399,2.3867,2.1135,1.8184,0.0,0.0,0.0,0.0,0.0,0.0,0.0,0.0,0.0,0.0,0.0,0.0,0.0,0.0,0.0,0.0,0.0,0.0,0.0,0.0,0.0,0.0,0.0,0.0,0.0,0.0,0.0,0.0,0.0,0.0,0.0,0.0,0.0,0.0,0.0,0.0,0.0,0.0,0.0,0.0,0.0,0.0,0.0,0.0,0.0,0.0,0.0,0.0,0.0,0.0,0.0,0.0,0.0,0.0,0.0,0.0,0.0,0.0,0.0,2.0141,1.8651,0.0,0.0,0.0,0.0,0.0,0.0,0.0,0.0,0.0,0.0,0.0,0.0,0.0,0.0,0.0,0.0,0.0,0.0,0.0,0.0,0.0,0.0,0.0,0.0,0.0,0.0,0.0,0.0,0.0,0.0,0.0,0.0,0.0,0.0,0.0,0.0,0.0,0.0,0.0,0.0,2.1756,2.5174,2.7309,2.7309,2.7655,2.7469,2.631,2.5792,2.4467,2.1942,1.9417,0.0,0.0,0.0,0.0,0.0,0.0,0.0,0.0,0.0,0.0,0.0,0.0,0.0,0.0,0.0,0.0,0.0,0.0,0.0,0.0,0.0,0.0,0.0,0.0,0.0,0.0,0.0,0.0,0.0,0.0,0.0,0.0,0.0,0.0,0.0,0.0,0.0,0.0,0.0,0.0,0.0,0.0,0.0,0.0,0.0,0.0,0.0,0.0,0.0,0.0,0.0,0.0,0.0,2.544,2.6057,2.616,2.6558,2.6765,2.6729,2.3971,2.2418,2.1797,2.1222,0.0,0.0,0.0,0.0,0.0,0.0,0.0,0.0,0.0,0.0,0.0,0.0,0.0,0.0,0.0,0.0,0.0,0.0,0.0,0.0,0.0,0.0,2.2315,2.1428,2.1901,2.1673,1.8589,0.0,0.0,0.0,0.0,0.0,0.0,0.0,0.0,0.0,0.0,0.0,2.2087,2.5194,2.7123,2.7289,2.7593,2.7448,2.6563,2.621,2.5026,2.277,2.0679,1.8623,0.0,0.0,0.0,0.0,0.0,0.0,0.0,0.0,0.0,0.0,0.0,0.0,0.0,0.0,0.0,0.0,0.0,0.0,0.0,0.0,0.0,0.0,0.0,0.0,0.0,0.0,0.0,0.0,0.0,0.0,0.0,0.0,1.6153,1.6216,0.0,0.0,0.0,0.0,0.0,0.0,0.0,0.0,0.0,0.0,0.0,0.0,0.0,2.4156,2.515,2.6517,2.7427,2.7903,2.8897,2.958,2.9973,3.0015,3.0263,3.0615,2.9787,0.0,2.459,2.3764,0.0,0.0,0.0,0.0,0.0,0.0,0.0,0.0,0.0,0.0,0.0,0.0,0.0,0.0,0.0,0.0,0.0,0.0,0.0,0.0,0.0,0.0,2.5213,2.4673,2.4985,2.5109,2.424,2.2542,2.0679,1.8994,1.8517,1.7709,0.0,0.0,0.0,0.0,0.0,0.0,2.2128,2.4592,2.6418,2.7226,2.7372,2.7019,2.6086,2.6335,2.5547,2.3246,2.2066,2.0502,1.8365,1.6532,0.0,0.0,0.0,0.0,0.0,0.0,0.0,0.0,0.0,0.0,0.0,0.0,0.0,0.0,0.0,0.0,0.0,0.0,0.0,0.0,0.0,0.0,0.0,0.0,0.0,0.0,0.0,0.0,0.0,1.6547,1.7729,1.8248,1.8476,1.8402,0.0,0.0,0.0,0.0,0.0,0.0,0.0,0.0,0.0,2.4819,2.6392,2.7779,2.8938,3.0305,3.1091,3.1298,3.2478,3.2892,3.2602,3.312,3.3182,3.2929,3.2685,3.1526,2.9642,2.7448,2.5564,2.3888,0.0,0.0,0.0,0.0,2.1155,2.1901,2.2811,2.2687,2.2066,2.1611,0.0,0.0,0.0,0.0,0.0,0.0,0.0,2.1424,2.3267,2.5192,2.6646,2.6413,2.6703,2.691,2.6475,2.5585,2.422,2.1877,2.0969,1.9955,1.7978,1.6022,0.0,0.0,0.0,1.9886,2.2873,2.4842,2.6273,2.7206,2.7081,2.675,2.6356,2.6252,2.5544,2.4053,2.3329,2.198,1.9713,1.8405,1.6642,0.0,0.0,0.0,0.0,0.0,0.0,0.0,0.0,0.0,0.0,0.0,0.0,0.0,0.0,0.0,0.0,0.0,0.0,0.0,0.0,0.0,0.0,0.0,0.0,0.0,0.0,0.0,0.0,1.8393,1.9727,2.057,2.0985,2.1006,0.0,0.0,0.0,0.0,0.0,0.0,2.4012,2.484,2.6206,2.8305,2.9518,3.0719,3.1857,3.2996,3.3617,3.3741,3.4879,3.5066,3.4445,3.5231,3.5169,3.4403,3.4403,3.4155,3.3513,3.0801,2.8649,2.6931,2.5233,2.4509,2.4364,2.4012,2.4405,2.5213,2.6123,2.6098,2.5644,2.5233,2.3929,2.2294,2.1192,0.0,0.0,0.0,0.0,2.3722,2.5337,2.6765,2.7828,2.7828,2.8028,2.8193,2.7911,2.7745,2.6915,2.4364,2.3225,2.2108,2.0265,1.8257,0.0,1.8858,1.9513,2.0803,2.3681,2.5213,2.6418,2.7226,2.6895,2.6563,2.6438,2.6082,2.5502,2.4549,2.4219,2.3122,2.0994,2.0079,1.8361,1.5753,0.0,0.0,0.0,0.0,0.0,0.0,0.0,0.0,0.0,0.0,0.0,0.0,0.0,0.0,0.0,0.0,0.0,0.0,0.0,0.0,0.0,0.0,0.0,0.0,0.0,0.0,0.0,0.0,0.0,2.2956,2.4157,0.0,0.0,0.0,0.0,2.544,2.6044,2.6889,2.8235,2.8773,2.9684,3.1133,3.2064,3.2789,3.3265,3.3841,3.4318,3.4754,3.519,3.5397,3.5376,3.5852,3.5811,3.5355,3.5355,3.5107,3.4629,3.312,3.1692,3.0305,2.8897,2.8069,2.7676,2.7655,2.7966,2.8504,2.9435,2.9456,2.898,2.8524,2.6579,2.428,2.3826,2.3018,0.0,0.0,2.5006,2.5982,2.6957,2.8173,2.9208,2.9208,2.9208,2.9228,2.9208,2.8856,2.7986,2.6103,2.5378,2.4445,2.2646,0.0,2.0369,2.0886,2.1362,2.2356,2.4218,2.5689,2.677,2.7247,2.6895,2.6438,2.5982,2.5896,2.5502,2.4549,2.4487,2.3825,2.2459,2.1507,1.9934,1.7606,1.6249,0.0,0.0,0.0,0.0,0.0,0.0,0.0,0.0,0.0,0.0,0.0,0.0,0.0,0.0,0.0,0.0,0.0,0.0,0.0,0.0,0.0,0.0,0.0,0.0,0.0,0.0,0.0,0.0,2.6103,2.7448,0.0,2.7655,2.7469,2.7696,2.8462,2.9497,3.0429,3.1215,3.225,3.3182,3.3948,3.4879,3.5418,3.5583,3.5749,3.5914,3.608,3.6846,3.7032,3.6763,3.7239,3.7363,3.7177,3.6577,3.6225,3.6018,3.5231,3.3762,3.1857,3.0491,2.9849,2.9663,2.9373,2.9559,3.0036,3.0677,3.0781,3.0512,2.9746,2.8235,2.6594,2.6185,2.5671,2.5275,2.6061,2.6724,2.7407,2.8338,2.8938,2.9373,2.9684,2.9746,2.9663,2.9373,2.8938,2.8338,2.7386,2.6848,2.6061,2.4509,2.337,2.2811,2.3205,2.3225,2.3681,2.5213,2.6082,2.6791,2.7247,2.6625,2.6061,2.5896,2.5357,2.4881,2.4507,2.4507,2.4011,2.2977,2.2625,2.1383,1.9085,1.7698,1.596,0.0,0.0,0.0,0.0,0.0,0.0,0.0,0.0,0.0,0.0,0.0,0.0,0.0,0.0,0.0,0.0,0.0,0.0,0.0,0.0,0.0,0.0,0.0,0.0,0.0,2.4695,2.7262,2.8483,2.9973,3.0801,3.0491,3.0325,3.047,3.1091,3.1981,3.2768,3.3389,3.4113,3.4797,3.5397,3.6018,3.6411,3.6577,3.6722,3.6804,3.6825,3.7736,3.7943,3.7508,3.7964,3.8191,3.8129,3.7198,3.6804,3.6763,3.6308,3.5128,3.3534,3.2478,3.1961,3.1795,3.1485,3.1567,3.1878,3.2168,3.2292,3.2126,3.1215,3.0284,2.9435,2.8835,2.8491,2.8305,2.8616,2.8856,2.9228,2.9849,2.9994,3.0036,3.0201,3.0222,3.0056,2.9435,2.8938,2.8483,2.8007,2.7572,2.6978,2.5875,2.5047,2.4654,2.4943,2.4736,2.4923,2.5978,2.6563,2.6978,2.7268,2.6625,2.6086,2.5896,2.5192,2.4611,2.4343,2.4322,2.3908,2.2998,2.2956,2.198,1.9844,1.7999,1.6092,1.4113,0.0,0.0,0.0,0.0,0.0,0.0,0.0,0.0,0.0,0.0,0.0,0.0,0.0,0.0,0.0,0.0,0.0,0.0,0.0,0.0,0.0,0.0,0.0,2.3225,2.6434,2.9063,2.9994,3.1712,3.2752,3.2752,3.2339,3.2499,3.3368,3.343,3.3803,3.4774,3.4401,3.4486,3.5376,3.5438,3.5666,3.6121,3.6597,3.6825,3.6825,3.7736,3.7922,3.7508,3.7964,3.8171,3.8129,3.7198,3.6804,3.6763,3.6308,3.5832,3.5376,3.4941,3.4546,3.4152,3.4132,3.4132,3.4132,3.4132,3.4132,3.3927,3.3037,3.269,3.2561,3.1671,3.1381,3.136,3.136,3.134,3.134,3.134,3.134,3.1236,3.0781,3.0677,3.0429,2.9477,2.8938,2.8483,2.7986,2.7572,2.7185,2.6708,2.6273,2.5937,2.5962,2.5916,0.0,2.6584,2.704,2.7309,2.7309,2.6895,2.6438,2.5937,2.5482,2.484,2.395,2.3867,2.3432,2.2522,2.248,2.1611,1.9803,1.7188,1.4997,1.3268,0.0,0.0,0.0,0.0,0.0,0.0,0.0,0.0,0.0,0.0,0.0,0.0,0.0,0.0,0.0,0.0,0.0,0.0,0.0,0.0,0.0,2.2894,2.4757,2.5523,2.8794,3.1443,3.2333,3.3762,3.4693,3.4693,3.4279,3.4238,3.4817,3.4569,3.4546,3.4816,3.4691,3.4733,3.4941,3.5583,3.6142,3.6618,3.7074,3.7301,3.7301,3.757,3.7612,3.7508,3.7632,3.786,3.8129,3.7198,3.6804,3.6763,3.6308,3.5832,3.5376,3.4941,3.4733,3.4588,3.4256,3.4132,3.4132,3.4132,3.4132,3.3969,3.3389,3.2996,3.2566,3.2043,3.1402,3.0884,3.0884,3.0636,3.0367,3.0367,3.0615,3.076,3.0305,3.045,3.0346,2.9083,2.8711,2.838,2.7593,2.7593,2.7593,2.7185,2.722,2.7241,2.6978,2.6936,2.6978,2.7102,2.7226,2.7309,2.7309,2.6895,2.6563,2.6438,2.5668,2.4941,2.4363,2.3743,2.2956,2.2025,2.2004,2.1135,1.9326,1.7916,1.6299,0.0,0.0,0.0,0.0,0.0,0.0,0.0,0.0,0.0,0.0,0.0,0.0,0.0,0.0,0.0,0.0,0.0,0.0,0.0,0.0,0.0,0.0,2.5482,2.7552,2.8512,3.0739,3.2664,3.3555,3.4714,3.5418,3.5418,3.519,3.5148,3.5397,3.519,3.5045,3.5045,3.4733,3.4652,3.5024,3.5542,3.6142,3.6804,3.726,3.7488,3.7488,3.7488,3.7488,3.7488,3.7488,3.7757,3.8129,3.7198,3.6804,3.6763,3.6308,3.5832,3.5397,0.0,0.0,0.0,0.0,3.4631,3.4631,3.4631,3.4631,3.4569,3.4113,3.3782,3.343,3.2525,3.1836,3.1174,3.0781,3.0222,2.9787,3.018,3.0491,3.0677,3.0594,3.0926,3.0884,2.9497,2.9042,2.869,2.7966,2.8028,0.0,2.7862,2.7883,2.7841,2.7572,2.7434,2.7309,2.7309,2.7309,2.7309,2.7309,2.7061,2.6832,2.6625,2.6082,0.0,0.0,0.0,2.306,2.2128,2.1735,0.0,0.0,0.0,0.0,0.0,0.0,0.0,0.0,1.5211,1.5739,0.0,0.0,0.0,0.0,0.0,0.0,0.0,0.0,0.0,0.0,0.0,0.0,0.0,0.0,0.0,0.0,2.8131,3.0429,3.1464,3.2375,3.3244,3.4051,3.49,3.5418,3.5418,3.5376,3.5376,3.5418,3.5376,3.5355,3.5355,3.4527,0.0,0.0,0.0,3.5769,3.6639,3.7115,3.7343,3.7343,3.7281,3.726,3.726,3.726,3.7488,3.7819,3.7011,3.6639,3.6618,3.6204,3.579,3.5418,3.5418,3.5418,3.5418,3.5418,3.5418,3.5418,3.5418,0.0,0.0,3.49,3.4816,3.4567,3.3203,3.238,3.1802,3.1008,3.0098,2.958,3.0387,3.0677,3.0864,3.1215,3.1671,3.1616,3.0284,2.9684,2.9228,2.8711,2.8649,2.869,2.869,2.8359,2.8069,2.8007,2.7676,2.7434,2.7392,2.7372,2.7372,2.7309,2.7309,0.0,2.6729,2.6646,2.602,2.4735,2.4136,2.3412,2.2542,2.1714,2.128,2.128,2.0508,1.9679,1.8808,1.9679,1.9886,1.9471,1.8526,1.8308,0.0,0.0,0.0,0.0,0.0,0.0,0.0,0.0,0.0,0.0,0.0,0.0,0.0,0.0,0.0,2.7614,2.9415,3.1133,3.2768,3.3782,3.4484,3.4671,3.5086,3.5418,3.5418,3.5107,3.5045,3.5397,3.5086,3.494,3.494,3.4422,3.4214,3.432,3.4693,3.5148,3.5687,3.6142,3.639,3.637,3.5997,0.0,3.5832,3.5832,3.5873,3.5956,3.5769,3.5687,3.5687,3.5583,3.55,3.5418,3.5418,3.5418,3.5418,3.5418,3.5418,3.5418,3.5418,3.5418,3.5355,3.49,3.4816,3.4629,3.3555,3.2685,0.0,3.1381,3.0574,2.9911,3.0077,3.0677,3.1174,3.0884,3.1443,3.1616,3.0284,2.9932,2.9622,2.8773,2.8918,2.9166,2.9166,2.9104,2.8918,2.8545,2.84,2.8214,2.7841,2.78,2.7655,2.7351,2.7309,2.7268,2.7185,2.6832,2.6289,2.5668,2.4178,2.308,2.2522,2.2335,2.2232,2.2232,2.2045,2.1694,2.1135,2.1694,2.1921,2.1818,2.0886,2.07,0.0,0.0,0.0,0.0,0.0,0.0,0.0,0.0,0.0,0.0,0.0,2.3246,2.4633,0.0,2.78,2.9394,3.0801,3.2188,3.3534,3.4507,3.5086,3.5086,3.5293,3.5418,3.5418,3.5231,3.519,3.5397,3.5211,3.5086,3.5086,3.4652,3.4507,3.4734,3.4962,3.5314,3.5769,3.5997,3.6121,3.6101,3.5645,3.5418,3.5418,3.5418,3.5418,3.5418,3.5418,3.5418,3.5418,3.5418,3.5418,3.5418,3.5418,3.5418,3.5418,3.5418,3.5418,3.5418,3.5418,3.5418,3.5376,3.5169,3.4941,3.465,3.3658,3.2747,3.1843,3.1215,3.0367,2.9766,3.0222,3.0677,3.1091,3.1319,3.1843,3.207,3.1215,3.1008,3.0739,2.9829,2.9829,2.9932,2.9684,2.9642,2.9497,2.9021,2.8773,2.8524,2.8297,2.8069,2.7841,2.7614,2.7434,2.7309,2.7309,2.6874,2.6418,2.5916,2.4819,2.4115,2.3867,2.3639,2.3598,2.3867,2.3639,2.3412,2.3123,2.3639,2.3867,2.3867,2.3619,2.3143,0.0,0.0,0.0,0.0,0.0,0.0,0.0,2.1259,2.217,2.3101,2.4674,2.6165,2.7076,2.8442,2.9766,3.0781,3.1961,3.3037,3.3948,3.4859,3.5397,3.5293,3.5376,3.5418,3.5418,3.5418,3.5418,3.5418,3.5418,3.5418,3.5418,3.5086,3.5045,3.5418,3.5418,3.5604,3.5976,3.5976,3.5976,3.5976,3.5604,3.5418,3.5418,3.5418,3.5418,3.5418,3.5418,3.5418,3.5418,3.5418,3.5418,3.5418,3.5418,3.5418,3.5418,3.5418,3.5418,3.5418,3.5418,3.5418,3.5418,3.5418,3.5128,3.4671,3.3762,3.2892,3.1946,3.1174,3.0346,2.987,3.0636,3.0884,3.1133,3.1802,3.2339,3.2545,3.2091,3.1988,3.1719,3.0864,3.0677,3.0532,3.0077,2.9994,2.987,2.9497,2.9125,2.8856,2.8752,2.8421,2.8152,2.8069,2.7738,2.7537,2.7407,2.7019,2.6563,2.6086,2.5689,2.544,2.5357,2.4962,2.4941,2.5357,2.4941,2.4755,2.4755,2.5127,2.5357,2.5378,2.5709,2.5109,1.7947,1.8648,2.0369,2.1714,2.2459,2.2977,0.0,2.4115,2.5026,2.5937,2.7241,2.8524,2.9435,2.9787,3.0346,3.1616,3.2297,3.3037,3.3948,3.4859,3.5273,3.4879,3.519,3.5418,3.5418,3.5418,3.5418,3.5418,3.5418,3.5418,3.5418,3.5376,3.5376,3.5418,3.5418,3.5438,3.55,3.55,3.55,3.55,3.5438,3.5418,3.5418,3.5418,3.5418,3.5418,3.5418,3.5418,3.5418,3.5418,3.5418,3.5418,3.5418,3.5418,3.5418,3.5418,3.5418,3.5418,3.5418,3.5418,3.5418,3.5418,3.5128,3.4733,3.4214,3.3368,3.2483,3.1967,3.1526,3.1174,3.1278,3.1588,3.1864,3.1967,3.2339,3.2545,3.2091,3.1988,3.1719,3.0864,3.0677,3.0532,3.0077,2.9994,2.9973,2.9932,2.987,2.9684,2.929,2.9187,2.898,2.8587,2.8483,2.8297,2.7883,2.7448,2.704,2.6563,2.6455,2.6273,2.5834,2.5751,2.5751,2.5813,2.5751,2.573,2.573,2.5792,2.5813,2.5813,2.5854,2.5771,1.992,2.0959,2.2708,2.3805,2.542,2.6724,2.6641,2.7552,2.8504,2.8897,2.9849,3.0657,3.0781,3.1008,3.1464,3.2256,3.2809,3.343,3.4401,3.5024,3.5148,3.4445,3.4279,3.4341,3.461,3.4879,3.5045,3.5045,3.5273,3.5418,3.5418,3.5418,3.5418,3.5418,3.5418,3.5418,3.5418,3.5418,3.5418,3.5418,3.5418,3.5418,3.5418,3.5418,3.5418,3.5418,3.5418,3.5418,3.5418,3.5418,3.5418,3.5418,3.5418,3.5418,3.5418,3.5418,3.5418,3.5418,3.5418,3.5418,3.5418,3.5418,3.4941,3.438,3.4194,3.3617,3.3016,3.2504,3.2499,3.2478,3.223,3.2313,3.238,3.238,3.2545,3.2628,3.2421,3.238,3.2194,3.1609,3.1485,3.134,3.0884,3.0801,3.0698,3.0429,3.016,2.9932,2.9725,2.9477,2.9125,2.8669,2.8607,2.8421,2.7966,2.7759,2.7448,2.704,2.7019,2.6936,2.6729,2.6729,2.6729,2.6729,2.6729,2.6729,2.6729,2.6729,2.6729,2.6729,2.6729,2.6729,2.1631,2.3039,2.4674,2.5664,2.7759,2.9435,2.9228,3.0056,3.0884,3.0884,3.1402,3.1754,3.1443,3.1526,3.1843,3.2545,3.3099,3.3699,3.4691,3.5148,3.5086,3.4176,3.3658,3.341,3.3492,3.4031,3.4546,3.4795,3.5169,3.5418,3.5418,3.5418,3.5418,3.5418,3.5418,3.5418,3.5418,3.5418,3.5418,3.5418,3.5418,3.5418,3.5418,3.5418,3.5418,3.5418,3.5418,3.5418,3.5418,3.5418,3.5418,3.5418,3.5418,3.5418,3.5418,3.5418,3.5418,3.5418,3.5418,3.5418,3.5418,3.5418,3.49,3.4318,3.4318,3.3986,3.3492,3.3182,3.3223,3.3306,3.2996,3.283,3.2669,3.2669,3.2669,3.2669,3.2669,3.2669,3.2545,3.207,3.1988,3.1843,3.1464,3.1381,3.1215,3.076,3.0408,3.0139,3.0015,2.9704,2.9373,2.9021,2.8876,2.8669,2.8338,2.8193,2.7986,2.7703,2.751,2.7496,2.7496,2.7372,2.7309,2.7309,2.7309,2.7309,2.7309,2.7309,2.7309,2.7309,2.7309,2.7309,2.2646,2.4447,2.6144,2.751,2.8918,3.0098,3.0532,3.1008,3.136,3.136,3.1381,3.1402,3.1381,3.1029,3.1174,3.252,3.3099,3.3699,3.4691,3.5148,3.5086,3.4176,3.3658,3.3037,3.2132,3.2892,3.3782,3.4754,3.5169,3.5418,3.5418,3.5418,3.5418,3.5418,3.5418,3.5418,3.5418,3.5418,3.5418,3.5418,3.5418,3.5418,3.5418,3.5418,3.5418,3.5418,3.5418,3.5418,3.5418,3.5418,3.5418,3.5418,3.5418,3.5418,3.5418,3.5418,3.5418,3.5418,3.5418,3.5418,3.5418,3.5418,3.5107,3.4795,3.4795,3.4463,3.4111,3.409,3.372,3.3368,3.3348,3.3037,3.2669,3.2669,3.2669,3.2669,3.2669,3.2669,3.2545,3.207,3.1988,3.1843,3.1464,3.1381,3.1215,3.076,3.0677,3.0512,3.0056,2.9973,2.9973,2.9953,2.9559,2.927,2.927,2.8856,2.8587,2.8566,2.8152,2.7903,2.7903,2.7489,2.7309,2.7309,2.7309,2.7309,2.7309,2.7309,2.7309,2.7309,2.7309,2.7309,2.3929,2.5854,2.7572,2.8959,3.0325,3.1381,3.1547,3.194,3.2106,3.1505,3.1133,3.0822,3.0512,3.0843,3.1381,3.2091,3.341,3.4463,3.4774,3.5148,3.5086,3.4176,3.341,3.2706,3.205,3.2582,3.3078,3.3389,3.4383,3.4983,3.4983,3.5252,3.5418,3.5418,3.5418,3.5418,3.5418,3.5418,3.5583,3.5894,3.6183,3.6349,3.6349,3.6349,3.6163,3.5873,3.5873,3.5707,3.5418,3.5418,3.5418,3.5418,3.5418,3.5418,3.5418,3.5418,3.5418,3.5418,3.5418,3.5418,3.5418,3.5418,3.5128,3.4816,3.4816,3.4712,3.4526,3.4214,3.4007,3.3762,3.3451,3.3058,3.2669,3.2669,3.2669,3.2669,3.2669,3.2669,3.2628,3.2483,3.2442,3.2401,3.2292,3.2271,3.2126,3.165,3.0801,3.018,3.0015,2.9994,2.9994,2.9994,2.9849,2.9642,2.9332,2.9166,2.8938,2.8628,2.8462,2.8235,2.7875,2.7779,2.7696,2.7696,2.7696,2.7841,2.8152,2.8152,2.8152,2.8152,2.8152,2.8152,2.5378,2.7407,2.9166,3.0222,3.1402,3.2235,3.2235,3.2339,3.2188,3.1112,3.0118,2.9373,2.9083,2.9549,3.0263,3.1381,3.3078,3.4443,3.4774,3.5148,3.5148,3.4403,3.3658,3.2975,3.2297,3.2504,3.2669,3.2669,3.3679,3.4463,3.4795,3.519,3.5418,3.5418,3.5418,3.5418,3.5418,3.5418,3.5645,3.6121,3.6577,3.6804,3.6804,3.6804,3.6556,3.6121,3.6121,3.5852,3.5418,3.5418,3.5418,3.5418,3.5418,3.5418,3.5418,3.5418,3.5418,3.5418,3.5418,3.5418,3.5418,3.5418,3.5231,3.4983,3.4983,3.4983,3.4941,3.4631,3.4445,3.4297,3.4007,3.343,3.2954,3.2954,3.2851,3.2669,3.2669,3.2669,3.2669,3.2669,3.2669,3.2669,3.2669,3.2545,3.2339,3.2029,3.1008,3.0243,3.0243,3.0098,2.9994,2.9994,2.9994,2.987,2.958,2.9559,2.9415,2.9125,2.8959,2.8731,2.8421,2.8255,2.8173,2.8173,2.8173,2.8317,2.8607,2.8607,2.8607,2.8607,2.8607,2.8607,2.6957,2.9063,3.0905,3.134,3.2106,3.269,3.2706,3.2277,3.1554,3.018,2.8442,2.7206,2.7164,2.7206,2.7973,3.0222,3.2147,3.3699,3.465,3.5107,3.5252,3.4899,3.4422,3.3741,3.2892,3.2747,3.2747,3.2711,3.3161,3.3862,3.4774,3.519,3.5418,3.5418,3.5418,3.5418,3.5418,3.5459,3.5728,3.6183,3.666,3.6867,3.6867,3.6846,3.6577,3.6142,3.6121,3.5852,3.5418,3.5418,3.5418,3.5418,3.5418,3.5418,3.5418,3.5418,3.5418,3.5418,3.5418,3.5418,3.5418,3.5418,3.5418,3.5418,3.5418,3.5418,3.5418,3.5418,3.5107,3.4816,3.4816,3.4072,3.3368,3.3368,3.3037,3.2669,3.2669,3.2669,3.2669,3.2669,3.2669,3.2669,3.2669,3.2318,3.2029,3.2029,3.1319,3.0739,3.0698,3.0284,2.9994,2.9994,2.9994,2.9994,2.9994,2.9994,2.9994,2.9994,2.958,2.9332,2.9311,2.8876,2.8649,2.8649,2.8649,2.8669,2.869,2.869,2.869,2.869,2.869,2.869,2.8794,3.0719,3.223,3.2354,3.2809,3.3037,3.2318,3.1878,3.0967,2.8876,2.7013,2.5647,2.5295,2.5771,2.6868,2.8814,3.1526,3.3634,3.4214,3.4652,3.5004,3.5231,3.4548,3.4049,3.3741,3.312,3.2871,3.3182,3.3637,3.4194,3.4795,3.519,3.5418,3.5418,3.5418,3.5418,3.5418,3.6101,3.668,3.7156,3.7612,3.7839,3.7819,3.7467,3.7074,3.6618,3.6266,3.5852,3.5418,3.5418,3.5418,3.5418,3.5418,3.5418,3.5418,3.5418,3.5418,3.5418,3.5418,3.5418,3.5418,3.5418,3.5418,3.5418,3.5418,3.5418,3.5418,3.5418,3.5107,3.4816,3.4816,3.4072,3.3368,3.3368,3.3037,3.2669,3.2669,3.2669,3.2669,3.2669,3.2669,3.2669,3.2669,3.2566,3.2504,3.2504,3.2008,3.1443,3.0781,3.0284,2.9994,2.9994,2.9994,2.9994,2.9994,2.9994,2.9994,2.9994,2.9891,2.9663,2.9311,2.9187,2.9125,2.9125,2.9125,2.929,2.9642,2.9642,2.9642,2.9642,2.9642,2.9642,3.0387,3.194,3.3016,3.3016,3.3058,3.2851,3.1961,3.0926,2.9559,2.7469,2.5254,2.366,2.3619,2.4219,2.542,2.7655,3.0532,3.2727,3.3389,3.3865,3.432,3.4776,3.4383,3.4132,3.4132,3.3803,3.372,3.3969,3.3903,3.4111,3.4774,3.519,3.5418,3.5418,3.5418,3.5521,3.5728,3.6639,3.7239,3.7508,3.7964,3.8088,3.7881,3.7612,3.7136,3.6494,3.6225,3.5852,3.5418,3.5418,3.5418,3.5418,3.5418,3.5418,3.5418,3.5418,3.5418,3.5418,3.5418,3.5418,3.5418,3.5418,3.5418,3.5418,3.5418,3.5418,3.5418,3.5418,3.5252,3.5045,3.5045,3.4527,3.3989,3.3989,3.3492,3.3016,3.3016,3.2871,3.2669,3.2669,3.2669,3.2669,3.2669,3.2669,3.2669,3.2669,3.2277,3.1802,3.134,3.0884,3.0532,3.0325,3.0305,3.0222,3.0015,2.9994,2.9994,2.9994,2.9994,2.987,2.9622,2.9601,2.9601,2.9601,2.9601,2.9746,2.9994,2.9994,2.9994,2.9994,2.9994,2.9994,3.1636,3.283,3.3592,3.341,3.3099,3.252,3.136,2.9622,2.7696,2.573,2.3163,2.1424,2.1942,2.2522,2.3805,2.6537,2.9415,3.1588,3.2437,3.2913,3.3389,3.3906,3.3927,3.3969,3.4134,3.4629,3.492,3.492,3.4113,3.401,3.4857,3.5211,3.5418,3.5418,3.5418,3.5666,3.6204,3.6991,3.7467,3.7591,3.7984,3.7943,3.7488,3.7425,3.6929,3.6101,3.6039,3.579,3.5418,3.5418,3.5418,3.5418,3.5418,3.5418,3.5418,3.5418,3.5418,3.5418,3.5418,3.5418,3.5418,3.5418,3.5418,3.5418,3.5418,3.5418,3.5418,3.5418,3.5418,3.5418,3.5418,3.5086,3.4816,3.4816,3.4111,3.3368,3.3368,3.3037,3.2669,3.2669,3.2669,3.2669,3.2669,3.2669,3.2669,3.2669,3.2339,3.207,3.207,3.1692,3.1215,3.0822,3.0719,3.0532,3.0118,3.0036,2.9994,2.9994,2.9994,2.9994,2.9994,2.9994,2.9994,2.9994,2.9994,2.9994,2.9994,2.9994,2.9994,2.9994,2.9994,2.9994,3.2463,3.3555,3.4401,3.3575,3.3327,3.2623,3.0222,2.7945,2.5627,2.3039,2.0312,1.8659,1.952,2.0659,2.2377,2.513,2.8524,3.0988,3.1526,3.2002,3.2582,3.341,3.3182,3.341,3.4588,3.5045,3.5314,3.5314,3.5148,3.5128,3.5293,3.5376,3.5418,3.5418,3.5418,3.5832,3.668,3.6846,3.7301,3.8067,3.815,3.7943,3.7488,3.7094,3.6618,3.6101,3.5707,3.55,3.5418,3.5418,3.5418,3.5418,3.5418,3.5418,3.5418,3.5418,3.5418,3.5418,3.5418,3.5418,3.5418,3.5418,3.5418,3.5418,3.5418,3.5418,3.5418,3.5418,3.5418,3.5418,3.5418,3.5086,3.4816,3.4816,3.4111,3.3368,3.3368,3.3037,3.2669,3.2669,3.2669,3.2669,3.2669,3.2669,3.2669,3.2669,3.2607,3.2545,3.2545,3.1878,3.134,3.1257,3.0905,3.0657,3.0574,3.0222,2.9994,2.9994,2.9994,2.9994,2.9994,2.9994,2.9994,2.9994,2.9994,2.9994,2.9994,2.9994,2.9994,2.9994,2.9994,2.9994,3.3244,3.4072,3.4588,3.3617,3.2851,3.1609,2.8856,2.6103,2.3474,2.1254,1.8754,1.7305,1.8216,1.9292,2.0948,2.3722,2.6827,2.9145,2.9849,3.0532,3.1319,3.223,3.2354,3.2913,3.4318,3.5024,3.5418,3.5418,3.5418,3.5418,3.5418,3.5418,3.5418,3.5418,3.5645,3.5997,3.6432,3.6929,3.7384,3.7819,3.8067,3.7819,3.7136,3.6908,3.6411,3.5749,3.5521,3.5418,3.5418,3.5418,3.5418,3.5418,3.5418,3.5418,3.5418,3.5418,3.5418,3.5418,3.5418,3.5418,3.5418,3.5418,3.5418,3.5418,3.5418,3.5418,3.5418,3.5418,3.5418,3.5418,3.5418,3.5273,3.5107,3.5107,3.459,3.3969,3.3492,3.3223,3.2996,3.2768,3.2669,3.2669,3.2669,3.2669,3.2669,3.2669,3.2669,3.2669,3.2669,3.2354,3.1981,3.1754,3.1526,3.1298,3.1071,3.0843,3.0719,3.0719,3.0719,3.0719,3.0719,3.0719,3.0719,3.0719,3.047,3.0346,3.0346,3.0118,3.0118,3.0346,3.0346,3.0491,3.3741,3.4526,3.4631,3.3513,3.2209,3.0376,2.7489,2.4281,2.1383,1.9596,1.7398,1.6063,1.6944,1.7885,1.943,2.2149,2.4902,2.7034,2.8028,2.9063,3.0077,3.1112,3.1629,3.2478,3.3986,3.4879,3.5418,3.5418,3.5418,3.5418,3.5418,3.5418,3.5418,3.5479,3.5832,3.6144,3.631,3.6954,3.7431,3.7639,3.7823,3.7508,3.6804,3.6701,3.6204,3.5418,3.5418,3.5418,3.5418,3.5418,3.5418,3.5418,3.5418,3.5418,3.5418,3.5418,3.5418,3.5418,3.5418,3.5418,3.5418,3.5418,3.5418,3.5418,3.5418,3.5418,3.5418,3.5418,3.5418,3.5418,3.5418,3.5418,3.5397,3.5293,3.5004,3.4567,3.3575,3.3368,3.3244,3.2809,3.2669,3.2711,3.2851,3.2789,3.2711,3.2851,3.2789,3.2669,3.2669,3.2669,3.2545,3.2173,3.205,3.1843,3.1547,3.1422,3.1381,3.1381,3.1381,3.1381,3.1381,3.1381,3.1381,3.1381,3.1029,3.0781,3.0677,3.0429,3.0429,3.0677,3.0781,3.1029,3.3986,3.4693,3.4941,3.3223,3.1754,2.9808,2.6227,2.2625,1.9533,1.7626,1.5436,1.4134,1.507,1.6029,1.7512,2.0209,2.2957,2.5254,2.6579,2.7903,2.9249,3.0594,3.1153,3.2126,3.3966,3.4879,3.5418,3.5418,3.5418,3.5418,3.5418,3.5418,3.5541,3.5849,3.5891,3.6246,3.7,3.6771,3.7106,3.7945,3.7244,3.6887,3.6784,3.637,3.5894,3.5418,3.5418,3.5418,3.5418,3.5418,3.5418,3.5418,3.5418,3.5418,3.5418,3.5418,3.5418,3.5418,3.5418,3.5418,3.5418,3.5418,3.5418,3.5418,3.5418,3.5418,3.5418,3.5418,3.5418,3.5418,3.5418,3.5418,3.5314,3.4921,3.4857,3.4567,3.3575,3.3368,3.3244,3.2809,3.2669,3.2851,3.3244,3.2996,3.2871,3.3265,3.2975,3.2669,3.2669,3.2669,3.2649,3.2607,3.2235,3.1967,3.1926,3.1609,3.1381,3.1381,3.1381,3.1381,3.1381,3.1381,3.1381,3.1381,3.134,3.1112,3.0677,3.1071,3.105,3.0698,3.1112,3.134,3.2644,3.372,3.4176,3.2375,3.045,2.8131,2.4757,2.1176,1.8092,1.6539,1.4816,1.389,1.4821,1.5525,1.6796,1.921,2.1466,2.337,2.48,2.6351,2.78,2.8897,2.9932,3.1153,3.2706,3.3906,3.4838,3.5376,3.5418,3.5479,3.5665,3.5665,3.5726,3.5932,3.6116,3.6324,3.6699,3.681,3.7002,3.7191,3.7147,3.6851,3.639,3.6204,3.5852,3.5418,3.5418,3.5418,3.5418,3.5418,3.5418,3.5418,3.5418,3.5418,3.5418,3.5418,3.5418,3.5418,3.5418,3.5418,3.5418,3.5418,3.5418,3.5418,3.5418,3.5418,3.5418,3.5418,3.5418,3.5418,3.5418,3.5418,3.5376,3.519,3.5148,3.4983,3.4401,3.4256,3.4072,3.3617,3.3534,3.3596,3.3762,3.341,3.3182,3.3348,3.3016,3.2669,3.2669,3.2669,3.2669,3.2669,3.2504,3.2401,3.2401,3.2292,3.2188,3.2188,3.2188,3.2188,3.2188,3.2188,3.2188,3.2188,3.1919,3.1692,3.1505,3.1422,3.1422,3.1505,3.1692,3.1919,3.1319,3.2644,3.3203,3.1257,2.9125,2.6682,2.3494,2.0023,1.7151,1.5939,1.4593,1.3824,1.4656,1.507,1.6022,1.8299,1.9975,2.1569,2.3246,2.5026,2.6517,2.7407,2.8752,3.0118,3.1505,3.312,3.4445,3.5355,3.5479,3.5665,3.587,3.6116,3.6178,3.6178,3.6423,3.6606,3.6728,3.6948,3.6997,3.6875,3.7002,3.6813,3.6373,3.6227,3.5977,3.5665,3.5603,3.5541,3.5541,3.5418,3.5479,3.5541,3.5418,3.5479,3.5541,3.5418,3.5418,3.5418,3.5479,3.5603,3.5726,3.5788,3.5911,3.5972,3.5972,3.5726,3.5418,3.5418,3.5418,3.5418,3.5418,3.5418,3.5418,3.5418,3.5418,3.5293,3.492,3.4816,3.4671,3.4214,3.4132,3.4113,3.4318,3.3945,3.3617,3.3762,3.341,3.312,3.312,3.2996,3.2934,3.2934,3.2809,3.2669,3.2669,3.2669,3.2669,3.2669,3.2669,3.2669,3.2669,3.2669,3.2669,3.2669,3.2359,3.2132,3.1988,3.1857,3.1878,3.1988,3.2132,3.2359,3.0201,3.1692,3.2188,2.9891,2.7945,2.5796,2.2542,1.93,1.6758,1.5877,1.4593,1.3741,1.4221,1.4324,1.507,1.7337,1.8506,1.9927,2.219,2.4095,2.5585,2.6475,2.78,2.9166,3.0574,3.2747,3.4445,3.5355,3.5747,3.5932,3.5932,3.6545,3.6871,3.6871,3.6911,3.7032,3.7374,3.7032,3.7108,3.7582,3.678,3.6616,3.7062,3.6574,3.6361,3.6361,3.6055,3.5911,3.587,3.5541,3.5603,3.5849,3.5541,3.5603,3.5849,3.5541,3.5418,3.5418,3.5788,3.6116,3.6423,3.6767,3.7132,3.7374,3.7374,3.6462,3.5418,3.5418,3.5418,3.5418,3.5418,3.5418,3.5418,3.5418,3.5418,3.5293,3.492,3.4816,3.4671,3.4214,3.4132,3.4277,3.4733,3.4422,3.4277,3.4733,3.4401,3.4111,3.4111,3.3658,3.3368,3.3368,3.2996,3.2669,3.2669,3.2669,3.2669,3.2669,3.2669,3.2669,3.2669,3.2669,3.2669,3.2669,3.2727,3.2442,3.1988,3.2442,3.2421,3.1988,3.2463,3.2727,2.7076,2.8628,2.9518,2.7841,2.6061,2.4053,2.1445,1.8651,1.6332,1.5401,1.4366,1.3824,1.4635,1.478,1.5318,1.6965,1.8009,1.9326,2.128,2.3371,2.5213,2.648,2.8607,3.0627,3.2218,3.3402,3.4565,3.5664,3.587,3.6116,3.6545,3.6789,3.6932,3.6932,3.7093,3.7275,3.7374,3.7314,3.718,3.7087,3.6875,3.6692,3.6635,3.6486,3.6423,3.6423,3.63,3.6116,3.5911,3.6055,3.5993,3.5911,3.6055,3.5993,3.587,3.5788,3.5603,3.5479,3.6055,3.6563,3.7089,3.7692,3.8231,3.8648,3.8648,3.7774,3.6646,3.6218,3.5932,3.5665,3.5479,3.5418,3.5418,3.5418,3.5418,3.5376,3.5252,3.5211,3.5169,3.5024,3.4983,3.5045,3.519,3.4838,3.465,3.4795,3.4422,3.4132,3.4132,3.3658,3.3368,3.3368,3.2996,3.2669,3.2669,3.2669,3.2669,3.2669,3.2669,3.2669,3.2669,3.2669,3.2669,3.2669,3.2669,3.2607,3.2463,3.2607,3.2607,3.2463,3.2607,3.2669,2.395,2.542,2.6268,2.5068,2.366,2.2066,2.01,1.7823,1.5898,1.5152,1.4262,1.3824,1.4593,1.4738,1.5194,1.6531,1.7409,1.863,2.0803,2.304,2.5402,2.7785,2.9994,3.1785,3.3035,3.3943,3.4865,3.5848,3.6116,3.6484,3.6871,3.7032,3.7093,3.7093,3.7275,3.7374,3.7374,3.7374,3.7314,3.7093,3.7093,3.6972,3.6789,3.6789,3.6789,3.6789,3.6667,3.6484,0.0,3.6361,3.6361,3.63,3.6545,3.6524,3.6462,3.634,3.6156,3.6034,3.6423,3.7071,3.773,3.8291,3.9062,3.9767,3.9884,3.8885,3.7594,3.6928,3.6462,3.5993,3.5541,3.5418,3.5418,3.5418,3.5418,3.5418,3.5418,3.5418,3.5418,3.5418,3.5418,3.5418,3.5418,3.519,3.5004,3.5004,3.4755,3.4569,3.4569,3.4031,3.3637,3.3637,3.3099,3.2669,3.2669,3.2669,3.2669,3.2669,3.2669,3.2669,3.2669,3.2669,3.2669,3.2669,3.2669,3.2669,3.2669,3.2669,3.2669,3.2669,3.2669,3.2669,0.0,2.2229,2.2851,2.1918,2.1047,2.0052,1.8683,1.6983,0.0,1.509,1.4262,1.3765,1.4262,1.437,1.4826,1.6293,1.6909,1.8165,2.086,2.339,2.6364,3.0191,3.1731,3.27,3.3332,3.4471,3.5444,3.5971,3.6606,3.6911,3.6911,3.7214,3.7374,3.7374,3.7374,3.7374,3.7374,3.7374,3.7374,3.7374,3.7374,3.7374,3.7374,3.7374,3.7374,3.7374,3.7093,3.6911,3.6871,3.6606,3.6667,3.6911,3.695,3.7193,3.7495,3.7193,3.705,3.6989,3.7032,3.7616,3.8373,3.8848,3.9791,4.086,4.1148,3.9966,3.835,3.761,3.705,3.6423,3.5726,3.5541,3.5541,3.5541,3.5541,3.5479,3.5479,3.5418,3.5418,3.5418,3.5418,3.5418,3.5418,3.5418,3.5418,3.5418,3.5418,3.5418,3.5479,3.4712,3.4232,3.4232,3.3406,3.2867,3.2825,3.2768,3.2768,3.2768,3.2809,3.283,3.283,3.283,3.283,3.283,3.2789,3.2711,3.2669,3.2711,3.2768,3.2768,3.2809,3.283,1.7363,0.0,2.1755,2.0807,2.0463,1.9936,0.0,1.6813,1.5566,1.509,1.4262,1.3893,1.4809,1.5079,1.5648,1.7213,1.8585,2.0245,2.2558,2.6613,3.013,3.2081,3.3476,3.4574,3.5194,3.5895,3.6562,3.7028,3.7193,3.7253,3.7253,3.7374,3.7374,3.7374,3.7374,3.7374,3.7374,3.7374,3.7374,3.7374,3.7374,3.7374,3.7374,3.7374,3.7374,3.7374,3.7335,3.7154,3.6911,3.7093,3.7093,3.6972,3.7698,3.8134,3.8447,3.8648,3.841,3.8029,3.8253,3.8313,3.8588,4.0374,4.132,4.1948,4.2656,4.1558,3.9966,3.9062,3.8551,3.8036,3.7132,3.695,3.695,3.695,3.6767,3.6462,3.6239,3.5972,3.5747,3.5418,3.5418,3.5418,3.5418,3.5418,3.5418,3.5418,3.5603,3.5849,3.6116,3.567,3.5311,3.5311,3.4863,3.4376,3.3938,3.3513,3.3223,3.3223,3.3555,3.3762,3.3762,3.3762,3.3762,3.3762,3.341,3.3058,3.2669,3.3058,3.3223,3.3223,3.3596,3.3762,1.6409,1.8137,1.9544,1.8965,1.8898,1.864,1.7357,1.6015,1.4987,1.4738,1.4117,1.3876,1.4835,1.5382,1.6308,1.8253,2.011,2.2465,2.5817,2.9824,3.2782,3.3777,3.5418,3.6655,3.7133,3.7753,3.8081,3.797,3.8014,3.7856,3.7435,3.7374,3.7374,3.7374,3.7374,3.7374,3.7374,3.7374,3.7374,3.7374,3.7374,3.7374,3.7374,3.7374,3.7374,3.7435,3.7555,3.7577,3.7577,3.7916,3.8036,3.8058,3.8871,3.938,3.9627,3.9849,3.9709,3.9416,3.9262,3.9482,4.0068,4.1972,4.2881,4.3397,4.3998,4.3425,4.2242,4.0918,4.0234,3.965,3.8707,3.8469,3.841,3.8231,3.7894,3.7413,3.6928,3.6462,3.5993,3.5479,3.5418,3.5418,3.5418,3.5418,3.5418,3.5418,3.5809,3.6279,3.6746,3.6398,3.6178,3.6118,3.5746,3.5438,3.51,3.4981,3.4588,3.3854,3.4156,3.425,3.4132,3.425,3.4265,3.4211,3.398,3.3623,3.3126,3.3623,3.3833,3.3854,3.4316,3.4487,1.6673,1.7315,1.7629,1.7456,1.765,1.7656,1.678,1.5691,1.4871,1.4871,1.4453,1.4342,1.5304,1.6096,1.74,1.9861,2.2356,2.5452,2.9708,3.2819,3.488,3.5337,3.7281,3.867,3.898,3.9533,3.9592,3.8921,3.8885,3.8574,3.7616,3.7555,3.7555,3.7555,3.7495,3.7435,3.7374,3.7374,3.7374,3.7374,3.7374,3.7374,3.7374,3.7374,3.7374,3.7435,3.7818,3.8178,3.8455,3.8848,3.9226,3.9638,4.0223,4.0721,4.1009,4.1067,4.1067,4.0952,4.027,4.0822,4.1992,4.336,4.4178,4.4759,4.5164,4.5093,4.4582,4.3019,4.2004,4.1157,4.021,3.9978,3.9919,3.9569,3.9062,3.8469,3.773,3.711,3.6462,3.5726,3.5541,3.5541,3.5541,3.5603,3.5665,3.5726,3.6279,3.6889,3.755,3.7279,3.7059,3.7037,3.6721,3.6457,3.6391,3.6832,3.6487,3.5013,3.4896,3.4756,3.4458,3.4816,3.488,3.4682,3.4703,3.4468,3.3962,3.4468,3.4703,3.4703,3.5152,3.5151,1.694,1.8128,1.8848,1.8561,1.9256,1.9787,1.891,1.8107,1.7512,1.7512,1.6792,1.666,1.8299,1.8988,2.0281,2.3251,2.7426,3.0934,3.2684,3.5287,3.6924,3.6652,3.8549,4.0048,4.0374,4.0663,4.049,3.9592,3.9615,3.9226,3.8216,3.8238,3.8238,3.8156,3.7938,3.7698,3.7374,3.7374,3.7374,3.7374,3.7374,3.7374,3.7374,3.7374,3.7374,3.7435,3.7976,3.8551,3.9121,3.9709,4.0292,4.087,4.1501,4.2069,4.2606,4.288,4.2824,4.2457,4.1789,4.2204,4.3159,4.3903,4.4361,4.485,4.5597,4.583,4.5706,4.5193,4.3873,4.2432,4.1525,4.1296,4.1239,4.0894,4.0548,4.0083,3.918,3.8469,3.7654,3.6484,3.6239,3.6239,3.6239,3.6462,3.6767,3.7071,3.7594,3.8253,3.8885,3.8921,3.8876,3.8912,3.8866,3.8579,3.8124,3.8579,3.8625,3.7894,3.6774,3.6088,3.6027,3.657,3.6714,3.6317,3.6295,3.6056,3.5656,3.6056,3.6295,3.6317,3.6752,3.663,1.6917,1.8072,1.9101,1.9606,2.0974,2.193,2.107,2.0733,2.0465,1.9881,1.931,1.9316,2.0531,2.1616,2.3953,2.8938,3.2097,3.4361,3.5451,3.7368,3.8499,3.8083,3.9884,4.1353,4.1842,4.2037,4.1639,4.0524,4.049,3.9966,3.8848,3.8967,3.899,3.8789,3.8514,3.8096,3.7374,3.7374,3.7374,3.7374,3.7374,3.7374,3.7374,3.7374,3.7374,3.7435,3.8058,3.8812,3.9533,4.0199,4.1009,4.1923,4.2375,4.2936,4.3492,4.3602,4.3436,4.3204,4.3317,4.3788,4.4403,4.5296,4.591,4.6378,4.6811,4.6835,4.6695,4.6573,4.5508,4.4177,4.326,4.3073,4.2961,4.2681,4.2231,4.1672,4.0904,3.9978,3.8885,3.7473,3.7193,3.7132,3.6928,3.7292,3.7834,3.8291,3.8944,3.9533,4.0176,4.0257,4.0281,4.0292,4.0257,4.0163,3.9904,4.014,3.9698,3.8449,3.7484,3.7071,3.7413,3.8052,3.8185,3.7713,3.7691,3.7443,3.6949,3.7443,3.7691,3.7713,3.8185,3.8052,1.7001,1.7908,1.9071,2.0415,2.2217,2.3504,2.2927,2.3143,2.328,2.2614,2.2185,2.2266,2.3079,2.4853,2.7979,3.3674,3.5634,3.681,3.7717,3.9007,3.9775,3.9448,4.1058,4.2395,4.3078,4.3129,4.2625,4.1386,4.1353,4.0836,3.9686,3.9884,3.9884,3.9627,3.9321,3.8693,3.7856,3.7856,3.7676,3.7374,3.7374,3.7374,3.7374,3.7374,3.7374,3.7435,3.8118,3.8812,3.965,4.0432,4.1525,4.26,4.3017,4.3598,4.4068,4.4068,4.398,4.4015,4.4808,4.5298,4.5809,4.678,4.7468,4.7821,4.7821,4.7684,4.7492,4.7304,4.6652,4.5787,4.4911,4.4701,4.4646,4.4339,4.3822,4.3168,4.2581,4.1459,4.0152,3.8566,3.8291,3.8253,3.785,3.841,3.9062,3.9592,4.0176,4.0697,4.1272,4.1296,4.132,4.1329,4.1296,4.132,4.1353,4.1296,4.0663,3.918,3.8313,3.8074,3.8707,3.9357,3.9546,3.9175,3.9209,3.9,3.8547,3.9,3.9209,3.9175,3.9546,3.9357,1.7339,1.7994,1.895,2.0736,2.2486,2.3884,2.4196,2.4884,2.5638,2.6088,2.5665,2.5535,2.6688,2.9299,3.222,3.5184,3.7045,3.8332,3.8992,4.0056,4.0807,4.0769,4.1802,4.2874,4.3738,4.3517,4.2992,4.2012,4.198,4.1696,4.0985,4.1009,4.1009,4.0985,4.0374,3.9814,3.919,3.919,3.8574,3.7374,3.7374,3.7374,3.7374,3.7374,3.7374,3.7435,3.8036,3.867,3.9334,4.0582,4.1761,4.2967,4.3598,4.4148,4.4613,4.4613,4.4978,4.5526,4.6152,4.6699,4.7247,4.7873,4.8114,4.8172,4.8172,4.8146,4.8015,4.7492,4.7226,4.696,4.6078,4.5892,4.5835,4.5551,4.5027,4.4393,4.3803,4.2722,4.1386,3.9884,3.9826,3.9826,3.9262,3.9908,4.0629,4.0918,4.1263,4.1663,4.2004,4.2029,4.2029,4.2061,4.2029,4.2054,4.2029,4.2004,4.1834,4.1353,3.9943,3.9357,4.0059,4.0639,4.0928,4.0904,4.0937,4.0913,4.0856,4.0913,4.0937,4.0904,4.0928,4.0639,1.8288,1.8586,1.9181,2.1066,2.3124,2.4963,2.5836,2.7925,2.977,2.9972,3.0245,3.0403,3.0167,3.159,3.37,3.647,3.7733,3.8877,4.0303,4.1207,4.1725,4.1723,4.2368,4.2965,4.3305,4.3091,4.2528,4.1554,4.1688,4.1634,4.1225,4.1359,4.1359,4.117,4.1125,4.0676,3.9854,4.0266,4.0176,3.9709,3.8908,3.8574,3.8574,3.8574,3.8574,3.8574,3.9049,3.9579,4.0199,4.1067,4.215,4.3326,4.4068,4.4531,4.4668,4.4668,4.4824,4.5192,4.6159,4.663,4.697,4.7885,4.8172,4.8172,4.8172,4.8172,4.8146,4.7911,4.7858,4.7649,4.6595,4.6304,4.6304,4.6191,4.5979,4.5637,4.5051,4.4291,4.3225,4.1663,4.1501,4.1525,4.1076,4.1615,4.2206,4.2737,4.293,4.3098,4.3209,4.3209,4.3235,4.3209,4.3209,4.3235,4.3235,4.3017,4.2824,4.2712,4.1239,4.0605,4.1067,4.1468,4.172,4.1745,4.172,4.172,4.1745,4.172,4.172,4.1745,4.172,4.1298,1.885,1.8902,1.9307,2.1113,2.3346,2.5569,2.7233,3.0085,3.2459,3.2818,3.3496,3.3708,3.2742,3.3369,3.4817,3.7169,3.8267,3.9355,4.1039,4.1664,4.1977,4.2185,4.25,4.2814,4.2997,4.2762,4.2288,4.1521,4.1732,4.1732,4.1468,4.1732,4.1732,4.1468,4.1777,4.1558,4.0787,4.1403,4.1696,4.1696,4.0836,4.0281,3.9873,3.9873,3.9873,3.9873,4.0083,4.0432,4.0894,4.1468,4.2432,4.3628,4.4396,4.4668,4.4668,4.4668,4.4668,4.4905,4.6081,4.6473,4.6656,4.7806,4.8172,4.8172,4.8172,4.8172,4.8172,4.8172,4.8172,4.8015,4.7231,4.7022,4.7022,4.7022,4.6865,4.663,4.6264,4.5611,4.4709,4.3489,4.335,4.3375,4.2903,4.3175,4.3604,4.4075,4.4002,4.3899,4.3899,4.3899,4.3899,4.3899,4.3899,4.3899,4.3899,4.3572,4.3381,4.3381,4.2344,4.1777,4.2061,4.2287,4.2344,4.2369,4.2344,4.2344,4.2369,4.2344,4.2344,4.2369,4.2344,4.1991,1.897,1.8815,1.9229,2.0888,2.3065,2.5495,2.8368,3.1061,3.3239,3.4417,3.4882,3.4952,3.435,3.4926,3.5936,3.7298,3.8699,4.0017,4.1167,4.1324,4.1533,4.2133,4.2211,4.2369,4.2944,4.2762,4.2421,4.2131,4.2104,4.2104,4.2078,4.2104,4.2104,4.2078,4.2452,4.2406,4.2108,4.2715,4.3017,4.3017,4.3017,4.2319,4.11,4.11,4.11,4.11,4.11,4.11,4.1157,4.1785,4.2768,4.3955,4.4476,4.4668,4.4668,4.4668,4.4668,4.4905,4.6055,4.6473,4.6656,4.7806,4.8172,4.8172,4.8172,4.8172,4.8172,4.8172,4.8172,4.8172,4.8172,4.8172,4.8172,4.8172,4.7754,4.7278,4.7278,4.6638,4.5825,4.5228,4.5368,4.5393,4.4792,4.4738,4.4694,4.4694,4.4233,4.3899,4.3899,4.3899,4.3899,4.3899,4.3899,4.3899,4.3899,4.3572,4.3381,4.3381,4.3129,4.3042,4.2986,4.2986,4.2986,4.2986,4.2986,4.2986,4.2986,4.2986,4.2986,4.2986,4.2986,4.274,2.0391,2.0627,2.1095,2.3337,2.5823,2.8265,3.0298,3.2813,3.5384,3.7719,3.7906,3.7398,3.6499,3.6539,3.6991,3.7971,3.8817,3.9797,4.1091,4.1324,4.1376,4.1559,4.1559,4.1638,4.1794,4.1719,4.1618,4.1541,4.1567,4.1567,4.1541,4.1567,4.1567,4.1541,4.2061,4.2268,4.219,4.2706,4.299,4.299,4.3457,4.3245,4.2457,4.2457,4.2457,4.2457,4.2457,4.2457,4.2513,4.3073,4.3653,4.4203,4.4559,4.4668,4.4668,4.4668,4.4668,4.4826,4.5611,4.5872,4.6003,4.6734,4.7257,4.7597,4.7597,4.7858,4.8172,4.8172,4.8172,4.8172,4.8172,4.8172,4.8172,4.8172,4.8041,4.7832,4.7357,4.709,4.6773,4.6186,4.6191,4.6191,4.6021,4.5979,4.5801,4.5386,4.5204,4.4944,4.4528,4.4476,4.4476,4.4476,4.4476,4.4476,4.4476,4.4203,4.4039,4.4039,4.3764,4.3432,4.3042,4.2986,4.2986,4.2986,4.2986,4.2986,4.2986,4.2986,4.2986,4.2986,4.2986,4.274,2.1094,2.2111,2.3363,2.5746,2.8786,3.1785,3.4322,3.5812,3.7294,3.9567,3.9642,3.8997,3.8023,3.7917,3.814,3.8618,3.9258,4.0057,4.1143,4.1324,4.1324,4.1324,4.1324,4.1324,4.1324,4.1324,4.1324,4.1324,4.1324,4.1324,4.1324,4.1324,4.1324,4.1324,4.1873,4.2211,4.2211,4.2735,4.3023,4.3023,4.3598,4.3721,4.3377,4.3581,4.3683,4.3683,4.3683,4.3683,4.3683,4.4094,4.4313,4.4476,4.4613,4.4668,4.4668,4.4668,4.4668,4.4772,4.5373,4.5581,4.5715,4.629,4.6708,4.7022,4.7257,4.7571,4.7885,4.812,4.8172,4.8172,4.8172,4.8172,4.8172,4.8172,4.8172,4.8094,4.7754,4.7675,4.7571,4.7231,4.7153,4.7153,4.7153,4.697,4.663,4.6055,4.5767,4.5346,4.4746,4.4931,4.4955,4.4748,4.4668,4.4668,4.4668,4.4476,4.4313,4.4313,4.4064,4.3734,4.3376,4.3376,4.3376,4.3376,4.3376,4.3376,4.3376,4.3376,4.3376,4.3376,4.3184,4.2851,2.125,2.3315,2.5698,2.8001,3.1575,3.5487,3.9084,3.9162,3.8903,4.0259,4.0332,3.9964,3.9177,3.9246,3.9391,3.9391,4.0028,4.0697,4.1246,4.1324,4.1324,4.1324,4.1324,4.1324,4.1324,4.1324,4.1324,4.1324,4.1324,4.1324,4.1324,4.1324,4.1324,4.1324,4.1821,4.2133,4.2133,4.2605,4.2866,4.2866,4.3441,4.3782,4.3782,4.4408,4.4668,4.4668,4.4668,4.4668,4.4668,4.4668,4.4668,4.4668,4.4668,4.4668,4.4668,4.4668,4.4668,4.4746,4.5294,4.5558,4.5637,4.6159,4.6342,4.6499,4.7074,4.7226,4.7466,4.8015,4.8172,4.8172,4.8172,4.8172,4.8172,4.8172,4.8172,4.8172,4.8172,4.8172,4.8172,4.8172,4.8172,4.8172,4.8172,4.7754,4.7231,4.663,4.6055,4.5506,4.4957,4.5268,4.5373,4.4824,4.4694,4.4668,4.4668,4.4476,4.4367,4.4367,4.4094,4.3955,4.3955,4.3955,4.3899,4.3899,4.3899,4.3899,4.3899,4.3899,4.3899,4.3899,4.3572,4.3153,2.1642,2.4233,2.6902,2.917,3.2777,3.6348,3.8821,3.9358,3.9637,4.0637,4.0792,4.0713,4.0759,4.0783,4.0859,4.0859,4.0987,4.1167,4.1298,4.1324,4.1324,4.1324,4.1324,4.1324,4.1324,4.1324,4.1324,4.1324,4.1324,4.1324,4.1324,4.1324,4.1324,4.1324,4.1428,4.1507,4.1507,4.1611,4.169,4.169,4.2265,4.2578,4.263,4.4068,4.4668,4.4668,4.4668,4.4668,4.4668,4.4668,4.4668,4.4668,4.4668,4.4668,4.4668,4.4668,4.4668,4.4748,4.4824,4.4877,4.4877,4.5062,4.5428,4.5924,4.6499,4.697,4.7466,4.8015,4.8172,4.8172,4.8172,4.8172,4.8172,4.8172,4.8172,4.8172,4.8172,4.8172,4.8172,4.8172,4.8172,4.8172,4.8172,4.8068,4.7806,4.7231,4.6656,4.6238,4.6107,4.582,4.5584,4.5399,4.5009,4.4668,4.4668,4.4668,4.4613,4.4613,4.4559,4.4531,4.4531,4.4094,4.3899,4.3899,4.3899,4.3899,4.3899,4.3899,4.3899,4.3899,4.3572,4.3466,2.1747,2.5123,2.8935,3.3195,3.5626,3.7462,3.9329,3.9894,4.0204,4.0915,4.1097,4.1147,4.1274,4.1324,4.1324,4.1324,4.1324,4.1324,4.1324,4.1324,4.1324,4.1324,4.1324,4.1324,4.1324,4.1324,4.1324,4.1324,4.1324,4.1324,4.1324,4.1324,4.1324,4.1324,4.1324,4.1324,4.1324,4.1324,4.1324,4.1324,4.1899,4.2499,4.3049,4.3912,4.446,4.4668,4.4668,4.4668,4.4668,4.4668,4.4668,4.4668,4.4668,4.4668,4.4668,4.4668,4.4668,4.4668,4.4668,4.4668,4.4668,4.4668,4.4877,4.5349,4.6212,4.6682,4.71,4.7937,4.8172,4.8172,4.8172,4.8172,4.8172,4.8172,4.8172,4.8172,4.8172,4.8172,4.8172,4.8172,4.8172,4.8172,4.8172,4.7963,4.7675,4.733,4.7074,4.6787,4.6499,4.6212,4.5924,4.5663,4.5294,4.4981,4.4694,4.4929,4.5036,4.4748,4.4668,4.4668,4.4668,4.4422,4.4258,4.4258,4.4258,4.4258,4.4258,4.4258,4.4258,4.4258,4.3958,4.3929,2.1747,2.5981,3.113,3.6959,3.8083,3.8161,3.9756,4.0122,4.0305,4.0906,4.1167,4.1324,4.1324,4.1324,4.1324,4.1324,4.1324,4.1324,4.1324,4.1324,4.1324,4.1324,4.1324,4.1324,4.1324,4.1324,4.1324,4.1324,4.1324,4.1324,4.1324,4.1324,4.1324,4.1324,4.1324,4.1324,4.1324,4.1324,4.1324,4.1324,4.1794,4.2552,4.3625,4.3625,4.399,4.4668,4.4668,4.4668,4.4668,4.4668,4.4668,4.4668,4.4668,4.4668,4.4668,4.4668,4.4668,4.4668,4.4668,4.4668,4.4668,4.4668,4.4668,4.4957,4.6107,4.6473,4.6708,4.7858,4.8172,4.8172,4.8172,4.8172,4.8172,4.8172,4.8172,4.8172,4.8172,4.8172,4.8172,4.8172,4.8172,4.8172,4.8172,4.7806,4.7492,4.7492,4.7492,4.731,4.6839,4.6682,4.6447,4.5976,4.582,4.5558,4.5062,4.5401,4.5401,4.4905,4.4774,4.4668,4.4668,4.4668,4.4668,4.4668,4.4668,4.4668,4.4668,4.4668,4.4668,4.4668,4.4422,4.4313,2.1642,2.6844,3.2372,3.6279,3.7168,3.7456,3.8658,3.8945,3.9102,3.9703,4.0618,4.1324,4.1324,4.1324,4.1324,4.1324,4.1324,4.1324,4.1324,4.1324,4.1324,4.1324,4.1324,4.1324,4.1324,4.1324,4.1324,4.1324,4.1324,4.1324,4.1324,4.1324,4.1324,4.1324,4.1324,4.1324,4.1324,4.1324,4.1324,4.1324,4.1402,4.1768,4.2447,4.2447,4.3258,4.4668,4.4668,4.4668,4.4668,4.4668,4.4668,4.4668,4.4668,4.4668,4.4668,4.4668,4.4668,4.4668,4.4668,4.4668,4.4668,4.4668,4.4668,4.4957,4.6107,4.6473,4.6708,4.7858,4.8172,4.8172,4.8172,4.8172,4.8172,4.8172,4.8172,4.8172,4.8172,4.8172,4.8172,4.8172,4.8172,4.8172,4.8172,4.812,4.8068,4.8068,4.8068,4.8041,4.7963,4.7519,4.7122,4.7043,4.6656,4.6342,4.6264,4.5872,4.5584,4.5451,4.5009,4.4668,4.4668,4.4668,4.4668,4.4668,4.4668,4.4668,4.4668,4.4668,4.4668,4.4668,4.4422,4.4422,2.3942,2.7994,3.1836,3.5966,3.675,3.6881,3.837,3.871,3.8893,3.9494,4.0017,4.0461,4.0749,4.0801,4.0932,4.1272,4.1324,4.1324,4.1324,4.1324,4.1324,4.1324,4.1324,4.1324,4.1324,4.1324,4.1324,4.1324,4.1324,4.1324,4.1324,4.1324,4.1324,4.1324,4.1324,4.1324,4.1324,4.1324,4.1324,4.1324,4.1324,4.1611,4.2211,4.2211,4.2918,4.4251,4.4251,4.4434,4.4668,4.4668,4.4668,4.4668,4.4668,4.4668,4.4668,4.4668,4.4668,4.4668,4.4668,4.4668,4.4668,4.4668,4.4668,4.4957,4.6107,4.6473,4.6708,4.7858,4.8172,4.8172,4.8172,4.8172,4.8172,4.8172,4.8172,4.8172,4.8172,4.8172,4.8172,4.8172,4.8172,4.8172,4.8172,4.8172,4.8172,4.8172,4.8172,4.8172,4.8172,4.7675,4.7278,4.7278,4.71,4.6839,4.6499,4.6264,4.5976,4.5637,4.5007,4.4668,4.4668,4.4668,4.4668,4.4668,4.4668,4.4668,4.4668,4.4668,4.4668,4.4668,4.4559,4.4559,2.4801,2.7811,3.0451,3.4633,3.5469,3.5678,3.7456,3.7952,3.8214,3.8815,3.9076,3.9337,3.9886,4.0226,4.0618,4.1219,4.1324,4.1324,4.1324,4.1324,4.1324,4.1324,4.1324,4.1324,4.1324,4.1324,4.1324,4.1324,4.1324,4.1324,4.1324,4.1324,4.1324,4.1324,4.1324,4.1324,4.1324,4.1324,4.1324,4.1324,4.1324,4.1533,4.1951,4.1951,4.2552,4.3467,4.3755,4.4199,4.4668,4.4668,4.4668,4.4668,4.4668,4.4668,4.4668,4.4668,4.4668,4.4668,4.4668,4.4668,4.4668,4.4668,4.4772,4.514,4.6159,4.6578,4.6891,4.7911,4.8172,4.8172,4.8172,4.8172,4.8172,4.8172,4.8172,4.8172,4.8172,4.8172,4.8172,4.8172,4.8172,4.8172,4.8172,4.8172,4.8172,4.8172,4.8172,4.8172,4.8172,4.7806,4.7545,4.7545,4.7545,4.7388,4.6944,4.6787,4.6525,4.6081,4.5506,4.5114,4.4957,4.4957,4.4879,4.4668,4.4668,4.4668,4.4668,4.4668,4.4668,4.4668,4.4668,4.4668,2.2139,2.5088,2.8351,3.1327,3.2489,3.3326,3.5077,3.5861,3.641,3.7011,3.7586,3.8161,3.871,3.9677,4.0618,4.1219,4.1324,4.1324,4.1324,4.1324,4.1324,4.1324,4.1324,4.1324,4.1324,4.1324,4.1324,4.1324,4.1324,4.1324,4.1324,4.1324,4.1324,4.1324,4.1324,4.1324,4.1324,4.1324,4.1324,4.1324,4.1324,4.1324,4.135,4.135,4.169,4.2368,4.3468,4.4199,4.4668,4.4668,4.4668,4.4668,4.4668,4.4668,4.4668,4.4668,4.4668,4.4668,4.4668,4.4668,4.4668,4.4668,4.5114,4.5689,4.629,4.6865,4.7414,4.8015,4.8172,4.8172,4.8172,4.8172,4.8172,4.8172,4.8172,4.8172,4.8172,4.8172,4.8172,4.8172,4.8172,4.8172,4.8172,4.8172,4.8172,4.8172,4.8172,4.8172,4.8172,4.8146,4.8146,4.8146,4.8146,4.812,4.8094,4.7597,4.7226,4.7174,4.6708,4.6133,4.5611,4.5529,4.5268,4.4694,4.4668,4.4668,4.4668,4.4668,4.4668,4.4668,4.4668,4.4668,2.0726,2.2741,2.4988,2.8221,2.9797,3.1052,3.3143,3.4345,3.5391,3.6724,3.7168,3.7612,3.8527,3.905,3.9625,4.0592,4.0749,4.088,4.1272,4.1324,4.1324,4.1324,4.1324,4.1324,4.1324,4.1324,4.1324,4.1324,4.1324,4.1324,4.1324,4.1324,4.1324,4.1324,4.1324,4.1324,4.1324,4.1324,4.1324,4.1324,4.1324,4.1324,4.1324,4.1324,4.1638,4.2238,4.2656,4.331,4.4173,4.4173,4.4382,4.4668,4.4668,4.4668,4.4668,4.4668,4.4668,4.4668,4.4668,4.4668,4.4746,4.5111,4.5399,4.5794,4.6734,4.7179,4.7466,4.8015,4.8172,4.8172,4.8172,4.8172,4.8172,4.8172,4.8172,4.8172,4.8172,4.8172,4.8172,4.8172,4.8172,4.8172,4.8172,4.8172,4.8172,4.8172,4.8172,4.8172,4.8172,4.8172,4.8172,4.8172,4.8172,4.8172,4.8172,4.7675,4.7278,4.7278,4.6787,4.6395,4.6186,4.582,4.5477,4.5268,4.4931,4.4668,4.4668,4.4668,4.4668,4.4668,4.4668,4.4668,1.9051,2.0648,2.2453,2.5118,2.6817,2.842,3.0477,3.215,3.3744,3.5495,3.6305,3.6985,3.7952,3.8292,3.8867,4.02,4.0409,4.0618,4.1246,4.1324,4.1324,4.1324,4.1324,4.1324,4.1324,4.1324,4.1324,4.1324,4.1324,4.1324,4.1324,4.1324,4.1324,4.1324,4.1324,4.1324,4.1324,4.1324,4.1324,4.1324,4.1324,4.1324,4.1324,4.1324,4.1533,4.1873,4.1873,4.2631,4.3912,4.3912,4.4225,4.4668,4.4668,4.4668,4.4668,4.4668,4.4668,4.4668,4.4668,4.4668,4.4826,4.5373,4.5767,4.6081,4.6991,4.7466,4.7702,4.8068,4.8172,4.8172,4.8172,4.8172,4.8172,4.8172,4.8172,4.8172,4.8172,4.8172,4.8172,4.8172,4.8172,4.8172,4.8172,4.8172,4.8172,4.8172,4.8172,4.8172,4.8172,4.8172,4.8172,4.8172,4.8172,4.8172,4.8172,4.7832,4.7623,4.7623,4.7257,4.697,4.6761,4.6395,4.5973,4.5637,4.5245,4.4931,4.4668,4.4668,4.4668,4.4668,4.4668,4.4668,0.0,0.0,0.0,2.2009,2.3553,2.5306,2.6968,2.9196,3.1365,3.3143,3.4868,3.6227,3.6881,3.7482,3.8423,4.0095,4.0357,4.0566,4.1167,4.1272,4.1272,4.1272,4.1272,4.1272,4.1298,4.1298,4.1298,4.1324,4.1324,4.1324,4.1324,4.1324,4.1324,4.1324,4.1324,4.1324,4.1324,4.1324,4.1324,4.1324,4.1324,4.1324,4.1324,4.1324,4.1324,4.135,4.135,4.2317,4.3912,4.3912,4.4199,4.4668,4.4668,4.4668,4.4668,4.4668,4.4668,4.4668,4.4668,4.4668,4.4826,4.5399,4.6029,4.6578,4.7179,4.7754,4.8172,4.8172,4.8172,4.8172,4.8172,4.8172,4.8172,4.8172,4.8172,4.8172,4.8172,4.8172,4.8172,4.8172,4.8172,4.8172,4.8172,4.8172,4.8172,4.8172,4.8172,4.8172,4.8172,4.8172,4.8172,4.8172,4.8172,4.8172,4.8172,4.8172,4.8172,4.8172,4.8172,4.7937,4.733,4.7278,4.6756,4.5634,4.5637,4.5294,4.4748,4.4694,4.4668,4.4668,4.4668,4.4668,1.6467,0.0,0.0,0.0,0.0,0.0,2.342,2.5929,2.8629,3.1182,3.3091,3.4842,3.6671,3.7142,3.7665,3.8972,3.9181,3.939,3.9991,4.0095,4.0095,4.0095,4.0095,4.0226,4.0618,4.0671,4.0853,4.1272,4.1324,4.1324,4.1324,4.1324,4.1324,4.1324,4.1324,4.1324,4.1324,4.1324,4.1324,4.1324,4.1324,4.1324,4.1324,4.1324,4.1533,4.1925,4.1925,4.2657,4.3833,4.3415,4.3833,4.4668,4.4668,4.4668,4.4668,4.4668,4.4668,4.4668,4.4668,4.4668,4.4905,4.5898,4.6342,4.6656,4.7649,4.8068,4.8172,4.8172,4.8172,4.8172,4.8172,4.8172,4.8172,4.8172,4.8172,4.8172,4.8172,4.8172,4.8172,4.8172,4.8172,4.8172,4.8172,4.8172,4.8172,4.8172,4.8172,4.8172,4.8172,4.8172,4.8172,4.8172,4.8172,4.8172,4.8172,4.8172,4.8172,4.8172,4.8172,4.812,4.7963,4.7545,4.7122,4.6808,4.5999,4.5558,4.5375,4.4877,4.4668,4.4668,4.4668,4.4668,1.6624,1.7068,1.7539,1.7983,0.0,0.0,2.1093,2.3341,2.5981,2.8682,3.0581,3.2489,3.4789,3.5417,3.5861,3.6776,3.7116,3.7821,3.939,3.9599,3.9599,3.9599,3.9599,3.9834,4.0357,4.0409,4.0671,4.1272,4.1324,4.1324,4.1324,4.1324,4.1324,4.1324,4.1324,4.1324,4.1324,4.1324,4.1324,4.1324,4.1324,4.1324,4.1324,4.1324,4.1638,4.2211,4.2211,4.2866,4.3833,4.352,4.3912,4.4668,4.4668,4.4668,4.4668,4.4668,4.4668,4.4668,4.4668,4.4824,4.5245,4.6186,4.663,4.6996,4.7911,4.8172,4.8172,4.8172,4.8172,4.8172,4.8172,4.8172,4.8172,4.8172,4.8172,4.8172,4.8172,4.8172,4.8172,4.8172,4.8172,4.8172,4.8172,4.8172,4.8172,4.8172,4.8172,4.8172,4.8172,4.8172,4.8172,4.8172,4.8172,4.8172,4.8172,4.8172,4.8172,4.8172,4.8172,4.8172,4.8172,4.7858,4.7571,4.7278,4.6626,4.6107,4.5581,4.4955,4.4668,4.4668,4.4668,4.4668,1.7486,1.8244,0.0,1.8323,1.8898,0.0,1.9525,2.125,2.3446,2.5672,2.7583,2.9519,3.1705,3.262,3.3195,3.3744,3.4397,3.5835,3.8815,3.9285,3.9337,3.9416,3.9416,3.9625,4.0174,4.0226,4.0488,4.1089,4.1193,4.1219,4.1219,4.1272,4.1324,4.1324,4.1324,4.1324,4.1324,4.1324,4.1324,4.1324,4.1324,4.1324,4.1324,4.1324,4.1664,4.2316,4.2316,4.297,4.3964,4.3964,4.4278,4.4668,4.4668,4.4668,4.4668,4.4668,4.4668,4.4694,4.4746,4.5111,4.5741,4.6369,4.6917,4.744,4.8015,4.8172,4.8172,4.8172,4.8172,4.8172,4.8172,4.8172,4.8172,4.8172,4.8172,4.8172,4.8172,4.8172,4.8172,4.8172,4.8172,4.8172,4.8172,4.8172,4.8172,4.8172,4.8172,4.8172,4.8172,4.8172,4.8172,4.8172,4.8172,4.8172,4.8172,4.8172,4.8172,4.8172,4.8172,4.8172,4.8172,4.8172,4.7937,4.744,4.731,4.6708,4.5581,4.4955,4.4668,4.4668,4.4668,4.4668,1.929,1.9473,1.9499,1.8898,1.8584,0.0,1.7826,1.9133,2.0858,2.2243,2.4282,2.6405,2.8203,2.9013,2.9588,3.0189,3.1156,3.2986,3.6332,3.722,3.7691,3.8187,3.824,3.8449,3.8998,3.905,3.9285,3.9886,4.0357,4.0592,4.0592,4.1063,4.1324,4.1324,4.1324,4.1324,4.1324,4.1324,4.1324,4.1324,4.1324,4.1324,4.1324,4.1324,4.1873,4.284,4.284,4.3493,4.4565,4.4565,4.4617,4.4668,4.4668,4.4668,4.4668,4.4668,4.4668,4.4746,4.5297,4.5477,4.5738,4.6839,4.7174,4.744,4.8015,4.8172,4.8172,4.8172,4.8172,4.8172,4.8172,4.8172,4.8172,4.8172,4.8172,4.8172,4.8172,4.8172,4.8172,4.8172,4.8172,4.8172,4.8172,4.8172,4.8172,4.8172,4.8172,4.8172,4.8172,4.8172,4.8172,4.8172,4.8172,4.8172,4.8172,4.8172,4.8172,4.8172,4.8172,4.8172,4.8172,4.8172,4.812,4.8015,4.7127,4.6316,4.5581,4.4955,4.4668,4.4668,4.4668,4.4668,2.0649,2.0649,2.044,1.9577,1.8924,0.0,0.0,1.8114,1.9368,2.078,2.227,2.3864,2.5876,2.6478,2.6902,2.7471,2.8516,3.0163,3.2751,3.4868,3.6593,3.7769,3.79,3.8109,3.8658,3.871,3.8972,3.9573,4.0122,4.0409,4.0409,4.0984,4.1324,4.1324,4.1324,4.1324,4.1324,4.1324,4.1324,4.1324,4.1324,4.1324,4.1324,4.1324,4.1951,4.3023,4.3023,4.3676,4.4668,4.4668,4.4668,4.4668,4.4668,4.4668,4.4668,4.4668,4.4668,4.4772,4.5373,4.582,4.6186,4.7048,4.7519,4.7806,4.8094,4.8172,4.8172,4.8172,4.8172,4.8172,4.8172,4.8172,4.8172,4.8172,4.8172,4.8172,4.8172,4.8172,4.8172,4.8172,4.8172,4.8172,4.8172,4.8172,4.8172,4.8172,4.8172,4.8172,4.8172,4.8172,4.8172,4.8172,4.8172,4.8172,4.8172,4.8172,4.8172,4.8172,4.8172,4.8172,4.8172,4.8172,4.8172,4.8172,4.7336,4.663,4.6055,4.5454,4.4955,4.4668,4.4668,4.4668,2.2165,2.2086,2.1721,2.044,1.9603,1.8741,0.0,0.0,0.0,1.9915,2.0701,2.1747,2.3657,2.4102,2.4285,2.4566,2.5688,2.7072,2.8717,3.1679,3.4528,3.6933,3.722,3.7456,3.8004,3.8057,3.8292,3.8893,3.9442,3.9808,3.9913,4.0697,4.1141,4.1141,4.1246,4.1324,4.1324,4.1324,4.1324,4.1324,4.1324,4.1324,4.1324,4.1324,4.1951,4.3023,4.3023,4.3676,4.4668,4.4668,4.4668,4.4668,4.4668,4.4668,4.4668,4.4668,4.4668,4.4826,4.5532,4.6081,4.6604,4.7283,4.7806,4.8172,4.8172,4.8172,4.8172,4.8172,4.8172,4.8172,4.8172,4.8172,4.8172,4.8172,4.8172,4.8172,4.8172,4.8172,4.8172,4.8172,4.8172,4.8172,4.8172,4.8172,4.8172,4.8172,4.8172,4.8172,4.8172,4.8172,4.8172,4.8172,4.8172,4.8172,4.8172,4.8172,4.8172,4.8172,4.8172,4.8172,4.8172,4.8172,4.8172,4.8172,4.7623,4.71,4.663,4.595,4.5268,4.4668,4.4668,4.4668,2.4599,2.4204,2.3391,2.1747,2.0518,1.9264,1.7591,0.0,1.8166,1.8349,0.0,2.0074,2.0335,0.0,0.0,2.057,2.1904,2.3422,2.4622,2.6452,2.9467,3.4214,3.4789,3.5025,3.5626,3.5678,3.5913,3.6462,3.7063,3.7612,3.8161,3.9677,4.0514,4.0514,4.1036,4.1324,4.1324,4.1324,4.1324,4.1324,4.1324,4.1324,4.1324,4.1324,4.1951,4.3023,4.3023,4.3676,4.4668,4.4668,4.4668,4.4668,4.4668,4.4668,4.4668,4.4668,4.4668,4.4879,4.6003,4.6421,4.6656,4.7728,4.812,4.8172,4.8172,4.8172,4.8172,4.8172,4.8172,4.8172,4.8172,4.8172,4.8172,4.8172,4.8172,4.8172,4.8172,4.8172,4.8172,4.8172,4.8172,4.8172,4.8172,4.8172,4.8172,4.8172,4.8172,4.8172,4.8172,4.8172,4.8172,4.8172,4.8172,4.8172,4.8172,4.8172,4.8172,4.8172,4.8172,4.8172,4.8172,4.8172,4.8172,4.8172,4.7623,4.7252,4.7231,4.6159,4.5268,4.4668,4.4668,4.4668,2.5986,2.5066,2.3757,2.2374,2.1172,1.9941,1.8506,1.8375,1.8767,1.947,0.0,0.0,0.0,0.0,0.0,0.0,2.1197,2.2165,2.3001,2.4308,2.6739,3.0921,3.2019,3.2908,3.4188,3.458,3.4868,3.5103,3.5966,3.675,3.7351,3.9311,4.0409,4.0409,4.101,4.1324,4.1324,4.1324,4.1324,4.1324,4.1324,4.1324,4.1324,4.1324,4.1951,4.3023,4.3023,4.3676,4.4668,4.4668,4.4668,4.4668,4.4668,4.4668,4.4668,4.4668,4.4903,4.5375,4.6186,4.6682,4.71,4.7911,4.8172,4.8172,4.8172,4.8172,4.8172,4.8172,4.8172,4.8172,4.8172,4.8172,4.8172,4.8172,4.8172,4.8172,4.8172,4.8172,4.8172,4.8172,4.8172,4.8172,4.8172,4.8172,4.8172,4.8172,4.8172,4.8172,4.8172,4.8172,4.8172,4.8172,4.8172,4.8172,4.8172,4.8172,4.8172,4.8172,4.8172,4.8172,4.8172,4.8172,4.8172,4.8172,4.7937,4.7675,4.7278,4.6782,4.6104,4.519,4.4824,4.4668,2.7452,2.6138,2.4517,2.321,2.1877,2.0569,1.9211,1.9159,1.9653,2.0542,2.0961,0.0,0.0,0.0,0.0,0.0,0.0,2.1093,2.1224,2.206,2.4047,2.7714,2.9248,3.066,3.2254,3.2751,3.3117,3.343,3.4241,3.5103,3.6018,3.8397,3.9782,3.9939,4.0827,4.1324,4.1324,4.1324,4.1324,4.1324,4.1324,4.1324,4.1324,4.1324,4.1951,4.3023,4.3023,4.3676,4.4668,4.4668,4.4668,4.4668,4.4668,4.4668,4.4748,4.4905,4.519,4.5741,4.6473,4.7074,4.7623,4.8041,4.8172,4.8172,4.8172,4.8172,4.8172,4.8172,4.8172,4.8172,4.8172,4.8172,4.8172,4.8172,4.8172,4.8172,4.8172,4.8303,4.8381,4.8224,4.8329,4.8381,4.8224,4.8172,4.8172,4.8172,4.8172,4.8172,4.8172,4.8172,4.8172,4.8172,4.8172,4.8172,4.8172,4.8172,4.8172,4.8172,4.8172,4.8172,4.8172,4.8172,4.8172,4.8172,4.8172,4.7989,4.7571,4.7357,4.6834,4.6025,4.5323,4.4824,2.9353,2.7949,2.6222,2.4491,2.2766,2.1015,1.929,1.981,2.0646,2.0699,2.159,2.2349,2.24,0.0,0.0,0.0,0.0,0.0,0.0,1.8715,2.057,2.4652,2.6608,2.8098,2.9301,2.9467,2.9938,3.1026,3.113,3.1888,3.3613,3.641,3.8214,3.8736,4.0435,4.1324,4.1324,4.1324,4.1324,4.1324,4.1324,4.1324,4.1324,4.1324,4.1951,4.3023,4.3023,4.3676,4.4668,4.4668,4.4668,4.4668,4.4668,4.4668,4.4746,4.5375,4.5555,4.5738,4.6861,4.7675,4.8146,4.8172,4.8172,4.8172,4.8172,4.8172,4.8172,4.8172,4.8172,4.8172,4.8172,4.8172,4.8172,4.8172,4.8172,4.8172,4.8172,4.8643,4.8878,4.8303,4.8643,4.8878,4.8277,4.8172,4.8172,4.8172,4.8172,4.8172,4.8172,4.8172,4.8172,4.8172,4.8172,4.8172,4.8172,4.8172,4.8172,4.8172,4.8172,4.8172,4.8172,4.8172,4.8172,4.8172,4.8172,4.8172,4.8146,4.7597,4.7252,4.72,4.6077,4.5297,3.0555,2.9467,2.8028,2.6274,2.5092,2.3887,2.2138,2.2374,2.2949,2.2949,2.3579,2.4233,2.4566,0.0,0.0,0.0,0.0,0.0,0.0,1.8479,1.929,2.1852,2.3995,2.5688,2.687,2.768,2.8281,2.8673,2.9405,3.0607,3.2293,3.5521,3.7743,3.8684,4.0409,4.1324,4.1324,4.1324,4.1324,4.1324,4.1324,4.1324,4.1324,4.1324,4.1951,4.3023,4.3023,4.3676,4.4668,4.4668,4.4668,4.4668,4.4668,4.4668,4.4746,4.5401,4.5872,4.6369,4.7492,4.8015,4.8172,4.8172,4.8172,4.8172,4.8172,4.8172,4.8172,4.8172,4.8172,4.8172,4.8172,4.8172,4.8172,4.8172,4.8172,4.8172,4.8172,4.8669,4.8904,4.8303,4.8669,4.8904,4.8277,4.8172,4.8172,4.8172,4.8172,4.8172,4.8172,4.8172,4.8172,4.8172,4.8172,4.8172,4.8172,4.8172,4.8172,4.8172,4.8172,4.8172,4.8172,4.8172,4.8172,4.8172,4.8172,4.8172,4.8172,4.7989,4.7702,4.7278,4.6887,4.6182,3.1757,3.0764,2.965,2.8525,2.7314,2.6054,2.4753,2.4753,2.4962,2.4749,2.5354,2.5981,2.6341,0.0,0.0,0.0,0.0,0.0,0.0,1.8427,1.8662,2.0203,2.1878,2.3498,2.5066,2.5845,2.6446,2.6863,2.7628,2.8882,3.0817,3.4031,3.6488,3.8057,3.9991,4.1089,4.1324,4.1324,4.1324,4.1324,4.1324,4.1428,4.1611,4.1611,4.2239,4.3337,4.3337,4.3859,4.4668,4.4668,4.4668,4.4668,4.4668,4.4798,4.5114,4.5715,4.6421,4.7179,4.7937,4.8172,4.8172,4.8172,4.8172,4.8172,4.8172,4.8172,4.8172,4.8172,4.8329,4.8512,4.8512,4.8643,4.8799,4.8799,4.8799,4.8799,4.8799,4.927,4.9505,4.8904,4.927,4.9505,4.8904,4.8799,4.8643,4.825,4.8172,4.8172,4.8172,4.8172,4.8172,4.8172,4.8172,4.8172,4.8172,4.8172,4.8172,4.8172,4.8172,4.8172,4.8172,4.8172,4.8172,4.8172,4.8172,4.8172,4.8172,4.8172,4.7989,4.7623,4.744,4.6839]}]]